<?xml version="1.0" encoding="UTF-8" standalone="no" ?>
<gpx xmlns="http://www.topografix.com/GPX/1/1" xmlns:xsi="http://www.w3.org/2001/XMLSchema-instance" xsi:schemaLocation="http://www.topografix.com/GPX/1/1 http://www.topografix.com/GPX/1/1/gpx.xsd" version="1.1" creator="VisuGPX - https://www.visugpx.com">
  <metadata>
    <name>Aigle-Tour d'Aï-Leysin</name>
    <desc><![CDATA[Aigle-Aï-Leysin avec une spéciale Tour d'Aï au milieu]]></desc>
  </metadata>
  <trk>
    <name><![CDATA[Aigle Course à pied]]></name>
    <trkseg>
      <trkpt lat="46.31827" lon="6.96812">
        <ele>417.60000610352</ele>
        <time>2017-10-11T06:55:57.000Z</time>
      </trkpt>
      <trkpt lat="46.31833" lon="6.96832">
        <ele>418.20001220703</ele>
        <time>2017-10-11T06:56:08.000Z</time>
      </trkpt>
      <trkpt lat="46.31849" lon="6.96846">
        <ele>418.20001220703</ele>
        <time>2017-10-11T06:56:20.000Z</time>
      </trkpt>
      <trkpt lat="46.3185" lon="6.96882">
        <ele>418.60000610352</ele>
        <time>2017-10-11T06:56:37.000Z</time>
      </trkpt>
      <trkpt lat="46.31849" lon="6.96881">
        <ele>418.60000610352</ele>
        <time>2017-10-11T06:56:39.000Z</time>
      </trkpt>
      <trkpt lat="46.31845" lon="6.96881">
        <ele>418.60000610352</ele>
        <time>2017-10-11T06:56:41.000Z</time>
      </trkpt>
      <trkpt lat="46.31843" lon="6.9688">
        <ele>418.60000610352</ele>
        <time>2017-10-11T06:56:45.000Z</time>
      </trkpt>
      <trkpt lat="46.31849" lon="6.96874">
        <ele>418.39999389648</ele>
        <time>2017-10-11T06:56:53.000Z</time>
      </trkpt>
      <trkpt lat="46.31866" lon="6.96862">
        <ele>418.20001220703</ele>
        <time>2017-10-11T06:57:01.000Z</time>
      </trkpt>
      <trkpt lat="46.31884" lon="6.96851">
        <ele>418.60000610352</ele>
        <time>2017-10-11T06:57:08.000Z</time>
      </trkpt>
      <trkpt lat="46.31902" lon="6.9684">
        <ele>418.79998779297</ele>
        <time>2017-10-11T06:57:14.000Z</time>
      </trkpt>
      <trkpt lat="46.31922" lon="6.96837">
        <ele>418.39999389648</ele>
        <time>2017-10-11T06:57:20.000Z</time>
      </trkpt>
      <trkpt lat="46.3194" lon="6.96831">
        <ele>418</ele>
        <time>2017-10-11T06:57:26.000Z</time>
      </trkpt>
      <trkpt lat="46.31958" lon="6.96826">
        <ele>417.60000610352</ele>
        <time>2017-10-11T06:57:32.000Z</time>
      </trkpt>
      <trkpt lat="46.31984" lon="6.96824">
        <ele>416.79998779297</ele>
        <time>2017-10-11T06:57:41.000Z</time>
      </trkpt>
      <trkpt lat="46.31996" lon="6.96847">
        <ele>416.60000610352</ele>
        <time>2017-10-11T06:57:47.000Z</time>
      </trkpt>
      <trkpt lat="46.31998" lon="6.96851">
        <ele>416.60000610352</ele>
        <time>2017-10-11T06:57:49.000Z</time>
      </trkpt>
      <trkpt lat="46.32014" lon="6.96866">
        <ele>416.20001220703</ele>
        <time>2017-10-11T06:58:01.000Z</time>
      </trkpt>
      <trkpt lat="46.32017" lon="6.96875">
        <ele>416.20001220703</ele>
        <time>2017-10-11T06:58:05.000Z</time>
      </trkpt>
      <trkpt lat="46.32018" lon="6.96891">
        <ele>416</ele>
        <time>2017-10-11T06:58:13.000Z</time>
      </trkpt>
      <trkpt lat="46.32024" lon="6.96895">
        <ele>416</ele>
        <time>2017-10-11T06:58:17.000Z</time>
      </trkpt>
      <trkpt lat="46.32043" lon="6.96893">
        <ele>415.39999389648</ele>
        <time>2017-10-11T06:58:25.000Z</time>
      </trkpt>
      <trkpt lat="46.32056" lon="6.96911">
        <ele>415.39999389648</ele>
        <time>2017-10-11T06:58:33.000Z</time>
      </trkpt>
      <trkpt lat="46.32055" lon="6.96916">
        <ele>415.39999389648</ele>
        <time>2017-10-11T06:58:34.000Z</time>
      </trkpt>
      <trkpt lat="46.32046" lon="6.9694">
        <ele>416.60000610352</ele>
        <time>2017-10-11T06:58:41.000Z</time>
      </trkpt>
      <trkpt lat="46.32034" lon="6.96963">
        <ele>417.60000610352</ele>
        <time>2017-10-11T06:58:50.000Z</time>
      </trkpt>
      <trkpt lat="46.32023" lon="6.96988">
        <ele>417.60000610352</ele>
        <time>2017-10-11T06:58:57.000Z</time>
      </trkpt>
      <trkpt lat="46.32009" lon="6.97007">
        <ele>419.79998779297</ele>
        <time>2017-10-11T06:59:04.000Z</time>
      </trkpt>
      <trkpt lat="46.31998" lon="6.97031">
        <ele>420.39999389648</ele>
        <time>2017-10-11T06:59:12.000Z</time>
      </trkpt>
      <trkpt lat="46.31984" lon="6.9705">
        <ele>419</ele>
        <time>2017-10-11T06:59:20.000Z</time>
      </trkpt>
      <trkpt lat="46.31974" lon="6.97077">
        <ele>419.20001220703</ele>
        <time>2017-10-11T06:59:27.000Z</time>
      </trkpt>
      <trkpt lat="46.31963" lon="6.971">
        <ele>421.39999389648</ele>
        <time>2017-10-11T06:59:34.000Z</time>
      </trkpt>
      <trkpt lat="46.31954" lon="6.97125">
        <ele>423.79998779297</ele>
        <time>2017-10-11T06:59:41.000Z</time>
      </trkpt>
      <trkpt lat="46.31947" lon="6.97152">
        <ele>424.39999389648</ele>
        <time>2017-10-11T06:59:48.000Z</time>
      </trkpt>
      <trkpt lat="46.31941" lon="6.9718">
        <ele>428.60000610352</ele>
        <time>2017-10-11T06:59:56.000Z</time>
      </trkpt>
      <trkpt lat="46.3193" lon="6.97204">
        <ele>431</ele>
        <time>2017-10-11T07:00:05.000Z</time>
      </trkpt>
      <trkpt lat="46.31919" lon="6.97225">
        <ele>429.79998779297</ele>
        <time>2017-10-11T07:00:12.000Z</time>
      </trkpt>
      <trkpt lat="46.31917" lon="6.97253">
        <ele>431.60000610352</ele>
        <time>2017-10-11T07:00:21.000Z</time>
      </trkpt>
      <trkpt lat="46.31919" lon="6.97279">
        <ele>434.39999389648</ele>
        <time>2017-10-11T07:00:31.000Z</time>
      </trkpt>
      <trkpt lat="46.31921" lon="6.9728">
        <ele>435.20001220703</ele>
        <time>2017-10-11T07:00:32.000Z</time>
      </trkpt>
      <trkpt lat="46.31924" lon="6.97307">
        <ele>437.79998779297</ele>
        <time>2017-10-11T07:00:42.000Z</time>
      </trkpt>
      <trkpt lat="46.31929" lon="6.97334">
        <ele>439.79998779297</ele>
        <time>2017-10-11T07:00:55.000Z</time>
      </trkpt>
      <trkpt lat="46.31927" lon="6.9736">
        <ele>438.20001220703</ele>
        <time>2017-10-11T07:01:06.000Z</time>
      </trkpt>
      <trkpt lat="46.31932" lon="6.97386">
        <ele>439.60000610352</ele>
        <time>2017-10-11T07:01:19.000Z</time>
      </trkpt>
      <trkpt lat="46.31932" lon="6.97391">
        <ele>440</ele>
        <time>2017-10-11T07:01:23.000Z</time>
      </trkpt>
      <trkpt lat="46.31931" lon="6.97395">
        <ele>439.79998779297</ele>
        <time>2017-10-11T07:01:25.000Z</time>
      </trkpt>
      <trkpt lat="46.31929" lon="6.97422">
        <ele>440</ele>
        <time>2017-10-11T07:01:34.000Z</time>
      </trkpt>
      <trkpt lat="46.31925" lon="6.97448">
        <ele>440</ele>
        <time>2017-10-11T07:01:41.000Z</time>
      </trkpt>
      <trkpt lat="46.31925" lon="6.97474">
        <ele>440.60000610352</ele>
        <time>2017-10-11T07:01:51.000Z</time>
      </trkpt>
      <trkpt lat="46.31925" lon="6.97502">
        <ele>443.20001220703</ele>
        <time>2017-10-11T07:02:03.000Z</time>
      </trkpt>
      <trkpt lat="46.31925" lon="6.9753">
        <ele>447.20001220703</ele>
        <time>2017-10-11T07:02:12.000Z</time>
      </trkpt>
      <trkpt lat="46.31921" lon="6.97556">
        <ele>448.20001220703</ele>
        <time>2017-10-11T07:02:20.000Z</time>
      </trkpt>
      <trkpt lat="46.31915" lon="6.97583">
        <ele>450.20001220703</ele>
        <time>2017-10-11T07:02:30.000Z</time>
      </trkpt>
      <trkpt lat="46.31913" lon="6.9761">
        <ele>454</ele>
        <time>2017-10-11T07:02:44.000Z</time>
      </trkpt>
      <trkpt lat="46.31913" lon="6.97638">
        <ele>457</ele>
        <time>2017-10-11T07:02:57.000Z</time>
      </trkpt>
      <trkpt lat="46.31909" lon="6.97664">
        <ele>459.20001220703</ele>
        <time>2017-10-11T07:03:09.000Z</time>
      </trkpt>
      <trkpt lat="46.31905" lon="6.97689">
        <ele>462</ele>
        <time>2017-10-11T07:03:21.000Z</time>
      </trkpt>
      <trkpt lat="46.31902" lon="6.97709">
        <ele>464.60000610352</ele>
        <time>2017-10-11T07:03:32.000Z</time>
      </trkpt>
      <trkpt lat="46.31901" lon="6.9771">
        <ele>464</ele>
        <time>2017-10-11T07:03:36.000Z</time>
      </trkpt>
      <trkpt lat="46.31902" lon="6.9771">
        <ele>464.79998779297</ele>
        <time>2017-10-11T07:03:38.000Z</time>
      </trkpt>
      <trkpt lat="46.31903" lon="6.9771">
        <ele>465</ele>
        <time>2017-10-11T07:03:40.000Z</time>
      </trkpt>
      <trkpt lat="46.31902" lon="6.97712">
        <ele>465</ele>
        <time>2017-10-11T07:03:49.000Z</time>
      </trkpt>
      <trkpt lat="46.31902" lon="6.97713">
        <ele>465</ele>
        <time>2017-10-11T07:03:53.000Z</time>
      </trkpt>
      <trkpt lat="46.31903" lon="6.97711">
        <ele>465.39999389648</ele>
        <time>2017-10-11T07:03:57.000Z</time>
      </trkpt>
      <trkpt lat="46.31904" lon="6.97711">
        <ele>465.60000610352</ele>
        <time>2017-10-11T07:04:00.000Z</time>
      </trkpt>
      <trkpt lat="46.31907" lon="6.97717">
        <ele>468</ele>
        <time>2017-10-11T07:04:04.000Z</time>
      </trkpt>
      <trkpt lat="46.31903" lon="6.97744">
        <ele>471.39999389648</ele>
        <time>2017-10-11T07:04:17.000Z</time>
      </trkpt>
      <trkpt lat="46.31902" lon="6.9777">
        <ele>475.60000610352</ele>
        <time>2017-10-11T07:04:30.000Z</time>
      </trkpt>
      <trkpt lat="46.31903" lon="6.97796">
        <ele>481.20001220703</ele>
        <time>2017-10-11T07:04:43.000Z</time>
      </trkpt>
      <trkpt lat="46.31906" lon="6.97823">
        <ele>487.79998779297</ele>
        <time>2017-10-11T07:04:56.000Z</time>
      </trkpt>
      <trkpt lat="46.31903" lon="6.97848">
        <ele>494.39999389648</ele>
        <time>2017-10-11T07:05:10.000Z</time>
      </trkpt>
      <trkpt lat="46.3189" lon="6.97866">
        <ele>494.39999389648</ele>
        <time>2017-10-11T07:05:22.000Z</time>
      </trkpt>
      <trkpt lat="46.31879" lon="6.97888">
        <ele>497</ele>
        <time>2017-10-11T07:05:35.000Z</time>
      </trkpt>
      <trkpt lat="46.31877" lon="6.97899">
        <ele>497.60000610352</ele>
        <time>2017-10-11T07:05:41.000Z</time>
      </trkpt>
      <trkpt lat="46.31877" lon="6.97925">
        <ele>508</ele>
        <time>2017-10-11T07:05:59.000Z</time>
      </trkpt>
      <trkpt lat="46.31876" lon="6.97953">
        <ele>520.79998779297</ele>
        <time>2017-10-11T07:06:16.000Z</time>
      </trkpt>
      <trkpt lat="46.31874" lon="6.9798">
        <ele>530.40002441406</ele>
        <time>2017-10-11T07:06:34.000Z</time>
      </trkpt>
      <trkpt lat="46.31869" lon="6.98006">
        <ele>536.79998779297</ele>
        <time>2017-10-11T07:06:49.000Z</time>
      </trkpt>
      <trkpt lat="46.31856" lon="6.98026">
        <ele>536.59997558594</ele>
        <time>2017-10-11T07:07:01.000Z</time>
      </trkpt>
      <trkpt lat="46.31852" lon="6.98033">
        <ele>537</ele>
        <time>2017-10-11T07:07:07.000Z</time>
      </trkpt>
      <trkpt lat="46.31851" lon="6.98031">
        <ele>534.79998779297</ele>
        <time>2017-10-11T07:07:28.000Z</time>
      </trkpt>
      <trkpt lat="46.31851" lon="6.98031">
        <ele>535</ele>
        <time>2017-10-11T07:07:32.000Z</time>
      </trkpt>
      <trkpt lat="46.31853" lon="6.98032">
        <ele>537.59997558594</ele>
        <time>2017-10-11T07:08:19.000Z</time>
      </trkpt>
      <trkpt lat="46.31854" lon="6.98034">
        <ele>539</ele>
        <time>2017-10-11T07:08:24.000Z</time>
      </trkpt>
      <trkpt lat="46.31855" lon="6.98035">
        <ele>540.20001220703</ele>
        <time>2017-10-11T07:08:29.000Z</time>
      </trkpt>
      <trkpt lat="46.31855" lon="6.98038">
        <ele>541.40002441406</ele>
        <time>2017-10-11T07:08:32.000Z</time>
      </trkpt>
      <trkpt lat="46.31855" lon="6.98038">
        <ele>540.79998779297</ele>
        <time>2017-10-11T07:08:34.000Z</time>
      </trkpt>
      <trkpt lat="46.31854" lon="6.98037">
        <ele>540</ele>
        <time>2017-10-11T07:08:36.000Z</time>
      </trkpt>
      <trkpt lat="46.31854" lon="6.98037">
        <ele>539.79998779297</ele>
        <time>2017-10-11T07:08:44.000Z</time>
      </trkpt>
      <trkpt lat="46.31853" lon="6.98036">
        <ele>539</ele>
        <time>2017-10-11T07:08:46.000Z</time>
      </trkpt>
      <trkpt lat="46.31853" lon="6.98038">
        <ele>539.79998779297</ele>
        <time>2017-10-11T07:08:49.000Z</time>
      </trkpt>
      <trkpt lat="46.31854" lon="6.98038">
        <ele>540</ele>
        <time>2017-10-11T07:08:53.000Z</time>
      </trkpt>
      <trkpt lat="46.31854" lon="6.98038">
        <ele>540.40002441406</ele>
        <time>2017-10-11T07:08:54.000Z</time>
      </trkpt>
      <trkpt lat="46.3185" lon="6.98037">
        <ele>536.59997558594</ele>
        <time>2017-10-11T07:09:57.000Z</time>
      </trkpt>
      <trkpt lat="46.31849" lon="6.98045">
        <ele>538.59997558594</ele>
        <time>2017-10-11T07:10:00.000Z</time>
      </trkpt>
      <trkpt lat="46.31836" lon="6.98065">
        <ele>536</ele>
        <time>2017-10-11T07:10:15.000Z</time>
      </trkpt>
      <trkpt lat="46.31827" lon="6.9809">
        <ele>536.59997558594</ele>
        <time>2017-10-11T07:10:29.000Z</time>
      </trkpt>
      <trkpt lat="46.31819" lon="6.98114">
        <ele>537.20001220703</ele>
        <time>2017-10-11T07:10:41.000Z</time>
      </trkpt>
      <trkpt lat="46.3181" lon="6.98138">
        <ele>538.20001220703</ele>
        <time>2017-10-11T07:10:54.000Z</time>
      </trkpt>
      <trkpt lat="46.31806" lon="6.98165">
        <ele>538.20001220703</ele>
        <time>2017-10-11T07:11:07.000Z</time>
      </trkpt>
      <trkpt lat="46.3181" lon="6.98192">
        <ele>531.79998779297</ele>
        <time>2017-10-11T07:11:22.000Z</time>
      </trkpt>
      <trkpt lat="46.31818" lon="6.98215">
        <ele>531.79998779297</ele>
        <time>2017-10-11T07:11:36.000Z</time>
      </trkpt>
      <trkpt lat="46.31818" lon="6.98243">
        <ele>522.59997558594</ele>
        <time>2017-10-11T07:11:46.000Z</time>
      </trkpt>
      <trkpt lat="46.31821" lon="6.98269">
        <ele>528</ele>
        <time>2017-10-11T07:11:53.000Z</time>
      </trkpt>
      <trkpt lat="46.31829" lon="6.98296">
        <ele>539.79998779297</ele>
        <time>2017-10-11T07:12:00.000Z</time>
      </trkpt>
      <trkpt lat="46.31835" lon="6.98321">
        <ele>549.20001220703</ele>
        <time>2017-10-11T07:12:06.000Z</time>
      </trkpt>
      <trkpt lat="46.31839" lon="6.98349">
        <ele>547.59997558594</ele>
        <time>2017-10-11T07:12:13.000Z</time>
      </trkpt>
      <trkpt lat="46.31843" lon="6.98376">
        <ele>549.20001220703</ele>
        <time>2017-10-11T07:12:20.000Z</time>
      </trkpt>
      <trkpt lat="46.31846" lon="6.98402">
        <ele>549.59997558594</ele>
        <time>2017-10-11T07:12:27.000Z</time>
      </trkpt>
      <trkpt lat="46.31849" lon="6.98428">
        <ele>549.79998779297</ele>
        <time>2017-10-11T07:12:34.000Z</time>
      </trkpt>
      <trkpt lat="46.31854" lon="6.98453">
        <ele>551.40002441406</ele>
        <time>2017-10-11T07:12:41.000Z</time>
      </trkpt>
      <trkpt lat="46.31863" lon="6.98479">
        <ele>555.59997558594</ele>
        <time>2017-10-11T07:12:49.000Z</time>
      </trkpt>
      <trkpt lat="46.31868" lon="6.98504">
        <ele>557.20001220703</ele>
        <time>2017-10-11T07:12:56.000Z</time>
      </trkpt>
      <trkpt lat="46.31869" lon="6.9853">
        <ele>556.20001220703</ele>
        <time>2017-10-11T07:13:03.000Z</time>
      </trkpt>
      <trkpt lat="46.31869" lon="6.98558">
        <ele>554.20001220703</ele>
        <time>2017-10-11T07:13:11.000Z</time>
      </trkpt>
      <trkpt lat="46.31871" lon="6.98585">
        <ele>553</ele>
        <time>2017-10-11T07:13:20.000Z</time>
      </trkpt>
      <trkpt lat="46.31878" lon="6.9861">
        <ele>556.59997558594</ele>
        <time>2017-10-11T07:13:30.000Z</time>
      </trkpt>
      <trkpt lat="46.31883" lon="6.98637">
        <ele>558.79998779297</ele>
        <time>2017-10-11T07:13:41.000Z</time>
      </trkpt>
      <trkpt lat="46.31892" lon="6.98661">
        <ele>564.59997558594</ele>
        <time>2017-10-11T07:13:55.000Z</time>
      </trkpt>
      <trkpt lat="46.31902" lon="6.98683">
        <ele>571.20001220703</ele>
        <time>2017-10-11T07:14:08.000Z</time>
      </trkpt>
      <trkpt lat="46.31908" lon="6.98709">
        <ele>575.40002441406</ele>
        <time>2017-10-11T07:14:22.000Z</time>
      </trkpt>
      <trkpt lat="46.31911" lon="6.98734">
        <ele>577.40002441406</ele>
        <time>2017-10-11T07:14:38.000Z</time>
      </trkpt>
      <trkpt lat="46.31915" lon="6.9876">
        <ele>580</ele>
        <time>2017-10-11T07:14:55.000Z</time>
      </trkpt>
      <trkpt lat="46.31921" lon="6.98785">
        <ele>585.79998779297</ele>
        <time>2017-10-11T07:15:12.000Z</time>
      </trkpt>
      <trkpt lat="46.31921" lon="6.98788">
        <ele>586</ele>
        <time>2017-10-11T07:15:14.000Z</time>
      </trkpt>
      <trkpt lat="46.31922" lon="6.988">
        <ele>587.59997558594</ele>
        <time>2017-10-11T07:15:22.000Z</time>
      </trkpt>
      <trkpt lat="46.31927" lon="6.98825">
        <ele>592.79998779297</ele>
        <time>2017-10-11T07:15:38.000Z</time>
      </trkpt>
      <trkpt lat="46.31935" lon="6.98849">
        <ele>595.59997558594</ele>
        <time>2017-10-11T07:15:57.000Z</time>
      </trkpt>
      <trkpt lat="46.31938" lon="6.98847">
        <ele>597.79998779297</ele>
        <time>2017-10-11T07:16:01.000Z</time>
      </trkpt>
      <trkpt lat="46.31944" lon="6.98821">
        <ele>603.40002441406</ele>
        <time>2017-10-11T07:16:17.000Z</time>
      </trkpt>
      <trkpt lat="46.31952" lon="6.98798">
        <ele>607.20001220703</ele>
        <time>2017-10-11T07:16:30.000Z</time>
      </trkpt>
      <trkpt lat="46.31963" lon="6.98777">
        <ele>615</ele>
        <time>2017-10-11T07:16:43.000Z</time>
      </trkpt>
      <trkpt lat="46.31973" lon="6.98754">
        <ele>622</ele>
        <time>2017-10-11T07:16:57.000Z</time>
      </trkpt>
      <trkpt lat="46.31981" lon="6.98729">
        <ele>627.40002441406</ele>
        <time>2017-10-11T07:17:12.000Z</time>
      </trkpt>
      <trkpt lat="46.31989" lon="6.98705">
        <ele>632.20001220703</ele>
        <time>2017-10-11T07:17:27.000Z</time>
      </trkpt>
      <trkpt lat="46.31998" lon="6.98681">
        <ele>637.20001220703</ele>
        <time>2017-10-11T07:17:43.000Z</time>
      </trkpt>
      <trkpt lat="46.31998" lon="6.98662">
        <ele>637.59997558594</ele>
        <time>2017-10-11T07:17:54.000Z</time>
      </trkpt>
      <trkpt lat="46.32004" lon="6.98637">
        <ele>642.59997558594</ele>
        <time>2017-10-11T07:18:09.000Z</time>
      </trkpt>
      <trkpt lat="46.32007" lon="6.98609">
        <ele>646</ele>
        <time>2017-10-11T07:18:27.000Z</time>
      </trkpt>
      <trkpt lat="46.32013" lon="6.98584">
        <ele>651.79998779297</ele>
        <time>2017-10-11T07:18:43.000Z</time>
      </trkpt>
      <trkpt lat="46.3202" lon="6.98561">
        <ele>658</ele>
        <time>2017-10-11T07:19:01.000Z</time>
      </trkpt>
      <trkpt lat="46.32025" lon="6.98536">
        <ele>661.79998779297</ele>
        <time>2017-10-11T07:19:19.000Z</time>
      </trkpt>
      <trkpt lat="46.32021" lon="6.98524">
        <ele>659.40002441406</ele>
        <time>2017-10-11T07:19:26.000Z</time>
      </trkpt>
      <trkpt lat="46.32019" lon="6.985">
        <ele>657.40002441406</ele>
        <time>2017-10-11T07:19:41.000Z</time>
      </trkpt>
      <trkpt lat="46.32019" lon="6.98475">
        <ele>660.59997558594</ele>
        <time>2017-10-11T07:19:56.000Z</time>
      </trkpt>
      <trkpt lat="46.32025" lon="6.98449">
        <ele>668.59997558594</ele>
        <time>2017-10-11T07:20:10.000Z</time>
      </trkpt>
      <trkpt lat="46.32029" lon="6.98423">
        <ele>670.20001220703</ele>
        <time>2017-10-11T07:20:24.000Z</time>
      </trkpt>
      <trkpt lat="46.32037" lon="6.98399">
        <ele>675.79998779297</ele>
        <time>2017-10-11T07:20:39.000Z</time>
      </trkpt>
      <trkpt lat="46.32045" lon="6.98375">
        <ele>680</ele>
        <time>2017-10-11T07:20:54.000Z</time>
      </trkpt>
      <trkpt lat="46.32059" lon="6.98358">
        <ele>681.79998779297</ele>
        <time>2017-10-11T07:21:09.000Z</time>
      </trkpt>
      <trkpt lat="46.32067" lon="6.98334">
        <ele>682.40002441406</ele>
        <time>2017-10-11T07:21:22.000Z</time>
      </trkpt>
      <trkpt lat="46.3208" lon="6.98317">
        <ele>687.20001220703</ele>
        <time>2017-10-11T07:21:35.000Z</time>
      </trkpt>
      <trkpt lat="46.32095" lon="6.98303">
        <ele>693.79998779297</ele>
        <time>2017-10-11T07:21:50.000Z</time>
      </trkpt>
      <trkpt lat="46.32102" lon="6.98278">
        <ele>696.20001220703</ele>
        <time>2017-10-11T07:22:04.000Z</time>
      </trkpt>
      <trkpt lat="46.32111" lon="6.98254">
        <ele>697.40002441406</ele>
        <time>2017-10-11T07:22:20.000Z</time>
      </trkpt>
      <trkpt lat="46.32126" lon="6.98237">
        <ele>701.79998779297</ele>
        <time>2017-10-11T07:22:36.000Z</time>
      </trkpt>
      <trkpt lat="46.32143" lon="6.98226">
        <ele>707.59997558594</ele>
        <time>2017-10-11T07:22:50.000Z</time>
      </trkpt>
      <trkpt lat="46.32158" lon="6.98211">
        <ele>714.20001220703</ele>
        <time>2017-10-11T07:23:07.000Z</time>
      </trkpt>
      <trkpt lat="46.32161" lon="6.9821">
        <ele>716</ele>
        <time>2017-10-11T07:23:10.000Z</time>
      </trkpt>
      <trkpt lat="46.32163" lon="6.98209">
        <ele>716.59997558594</ele>
        <time>2017-10-11T07:23:12.000Z</time>
      </trkpt>
      <trkpt lat="46.32168" lon="6.98205">
        <ele>718.79998779297</ele>
        <time>2017-10-11T07:23:18.000Z</time>
      </trkpt>
      <trkpt lat="46.32173" lon="6.98201">
        <ele>721.40002441406</ele>
        <time>2017-10-11T07:23:24.000Z</time>
      </trkpt>
      <trkpt lat="46.32191" lon="6.98196">
        <ele>730.20001220703</ele>
        <time>2017-10-11T07:23:39.000Z</time>
      </trkpt>
      <trkpt lat="46.32201" lon="6.9819">
        <ele>734.40002441406</ele>
        <time>2017-10-11T07:23:52.000Z</time>
      </trkpt>
      <trkpt lat="46.32203" lon="6.9819">
        <ele>735.20001220703</ele>
        <time>2017-10-11T07:23:56.000Z</time>
      </trkpt>
      <trkpt lat="46.32205" lon="6.98191">
        <ele>736.20001220703</ele>
        <time>2017-10-11T07:23:58.000Z</time>
      </trkpt>
      <trkpt lat="46.32208" lon="6.98192">
        <ele>737.59997558594</ele>
        <time>2017-10-11T07:24:02.000Z</time>
      </trkpt>
      <trkpt lat="46.32212" lon="6.98193">
        <ele>739.79998779297</ele>
        <time>2017-10-11T07:24:08.000Z</time>
      </trkpt>
      <trkpt lat="46.32213" lon="6.98197">
        <ele>740.59997558594</ele>
        <time>2017-10-11T07:24:12.000Z</time>
      </trkpt>
      <trkpt lat="46.32214" lon="6.98198">
        <ele>741</ele>
        <time>2017-10-11T07:24:13.000Z</time>
      </trkpt>
      <trkpt lat="46.32216" lon="6.98201">
        <ele>742.40002441406</ele>
        <time>2017-10-11T07:24:17.000Z</time>
      </trkpt>
      <trkpt lat="46.32218" lon="6.98202">
        <ele>743.59997558594</ele>
        <time>2017-10-11T07:24:19.000Z</time>
      </trkpt>
      <trkpt lat="46.32221" lon="6.98204">
        <ele>745</ele>
        <time>2017-10-11T07:24:22.000Z</time>
      </trkpt>
      <trkpt lat="46.32223" lon="6.98206">
        <ele>746</ele>
        <time>2017-10-11T07:24:24.000Z</time>
      </trkpt>
      <trkpt lat="46.32236" lon="6.98216">
        <ele>753</ele>
        <time>2017-10-11T07:24:37.000Z</time>
      </trkpt>
      <trkpt lat="46.32238" lon="6.98218">
        <ele>753.79998779297</ele>
        <time>2017-10-11T07:24:40.000Z</time>
      </trkpt>
      <trkpt lat="46.32246" lon="6.98224">
        <ele>757.59997558594</ele>
        <time>2017-10-11T07:24:48.000Z</time>
      </trkpt>
      <trkpt lat="46.32249" lon="6.98227">
        <ele>759.20001220703</ele>
        <time>2017-10-11T07:24:51.000Z</time>
      </trkpt>
      <trkpt lat="46.32251" lon="6.98231">
        <ele>760.59997558594</ele>
        <time>2017-10-11T07:24:55.000Z</time>
      </trkpt>
      <trkpt lat="46.32253" lon="6.98235">
        <ele>761.59997558594</ele>
        <time>2017-10-11T07:24:57.000Z</time>
      </trkpt>
      <trkpt lat="46.32254" lon="6.9824">
        <ele>762.59997558594</ele>
        <time>2017-10-11T07:25:01.000Z</time>
      </trkpt>
      <trkpt lat="46.32254" lon="6.98245">
        <ele>763</ele>
        <time>2017-10-11T07:25:05.000Z</time>
      </trkpt>
      <trkpt lat="46.32251" lon="6.98265">
        <ele>765.59997558594</ele>
        <time>2017-10-11T07:25:25.000Z</time>
      </trkpt>
      <trkpt lat="46.32255" lon="6.98266">
        <ele>767.40002441406</ele>
        <time>2017-10-11T07:25:29.000Z</time>
      </trkpt>
      <trkpt lat="46.32258" lon="6.98268">
        <ele>768.79998779297</ele>
        <time>2017-10-11T07:25:32.000Z</time>
      </trkpt>
      <trkpt lat="46.32259" lon="6.9827">
        <ele>769.79998779297</ele>
        <time>2017-10-11T07:25:36.000Z</time>
      </trkpt>
      <trkpt lat="46.32258" lon="6.98269">
        <ele>769.20001220703</ele>
        <time>2017-10-11T07:25:39.000Z</time>
      </trkpt>
      <trkpt lat="46.32257" lon="6.98267">
        <ele>768.40002441406</ele>
        <time>2017-10-11T07:25:43.000Z</time>
      </trkpt>
      <trkpt lat="46.32257" lon="6.98266">
        <ele>768.40002441406</ele>
        <time>2017-10-11T07:25:46.000Z</time>
      </trkpt>
      <trkpt lat="46.32256" lon="6.98263">
        <ele>767.20001220703</ele>
        <time>2017-10-11T07:25:51.000Z</time>
      </trkpt>
      <trkpt lat="46.32255" lon="6.98262">
        <ele>766.59997558594</ele>
        <time>2017-10-11T07:25:53.000Z</time>
      </trkpt>
      <trkpt lat="46.32255" lon="6.98259">
        <ele>766</ele>
        <time>2017-10-11T07:26:01.000Z</time>
      </trkpt>
      <trkpt lat="46.32255" lon="6.98259">
        <ele>766.20001220703</ele>
        <time>2017-10-11T07:26:06.000Z</time>
      </trkpt>
      <trkpt lat="46.3226" lon="6.98277">
        <ele>770.79998779297</ele>
        <time>2017-10-11T07:26:48.000Z</time>
      </trkpt>
      <trkpt lat="46.32258" lon="6.98284">
        <ele>770.79998779297</ele>
        <time>2017-10-11T07:26:54.000Z</time>
      </trkpt>
      <trkpt lat="46.32259" lon="6.98286">
        <ele>771.40002441406</ele>
        <time>2017-10-11T07:26:56.000Z</time>
      </trkpt>
      <trkpt lat="46.32263" lon="6.98287">
        <ele>773.20001220703</ele>
        <time>2017-10-11T07:27:00.000Z</time>
      </trkpt>
      <trkpt lat="46.32266" lon="6.98284">
        <ele>774.59997558594</ele>
        <time>2017-10-11T07:27:05.000Z</time>
      </trkpt>
      <trkpt lat="46.32268" lon="6.98284">
        <ele>775.59997558594</ele>
        <time>2017-10-11T07:27:09.000Z</time>
      </trkpt>
      <trkpt lat="46.32271" lon="6.98285">
        <ele>777</ele>
        <time>2017-10-11T07:27:12.000Z</time>
      </trkpt>
      <trkpt lat="46.32274" lon="6.98287">
        <ele>779</ele>
        <time>2017-10-11T07:27:19.000Z</time>
      </trkpt>
      <trkpt lat="46.32278" lon="6.98286">
        <ele>780.59997558594</ele>
        <time>2017-10-11T07:27:24.000Z</time>
      </trkpt>
      <trkpt lat="46.32279" lon="6.98287">
        <ele>781</ele>
        <time>2017-10-11T07:27:26.000Z</time>
      </trkpt>
      <trkpt lat="46.3228" lon="6.98287">
        <ele>781.40002441406</ele>
        <time>2017-10-11T07:27:28.000Z</time>
      </trkpt>
      <trkpt lat="46.32284" lon="6.98288">
        <ele>783.40002441406</ele>
        <time>2017-10-11T07:27:32.000Z</time>
      </trkpt>
      <trkpt lat="46.32297" lon="6.98294">
        <ele>789.40002441406</ele>
        <time>2017-10-11T07:27:45.000Z</time>
      </trkpt>
      <trkpt lat="46.323" lon="6.98302">
        <ele>792</ele>
        <time>2017-10-11T07:27:51.000Z</time>
      </trkpt>
      <trkpt lat="46.323" lon="6.98304">
        <ele>792.79998779297</ele>
        <time>2017-10-11T07:27:53.000Z</time>
      </trkpt>
      <trkpt lat="46.323" lon="6.98308">
        <ele>793.20001220703</ele>
        <time>2017-10-11T07:27:55.000Z</time>
      </trkpt>
      <trkpt lat="46.32298" lon="6.98311">
        <ele>793</ele>
        <time>2017-10-11T07:27:59.000Z</time>
      </trkpt>
      <trkpt lat="46.32296" lon="6.98314">
        <ele>792.40002441406</ele>
        <time>2017-10-11T07:28:01.000Z</time>
      </trkpt>
      <trkpt lat="46.32295" lon="6.98319">
        <ele>792.40002441406</ele>
        <time>2017-10-11T07:28:05.000Z</time>
      </trkpt>
      <trkpt lat="46.32295" lon="6.98324">
        <ele>792.59997558594</ele>
        <time>2017-10-11T07:28:09.000Z</time>
      </trkpt>
      <trkpt lat="46.32304" lon="6.98338">
        <ele>801</ele>
        <time>2017-10-11T07:28:21.000Z</time>
      </trkpt>
      <trkpt lat="46.32306" lon="6.98343">
        <ele>803.40002441406</ele>
        <time>2017-10-11T07:28:25.000Z</time>
      </trkpt>
      <trkpt lat="46.32307" lon="6.98345">
        <ele>804.79998779297</ele>
        <time>2017-10-11T07:28:27.000Z</time>
      </trkpt>
      <trkpt lat="46.3231" lon="6.98352">
        <ele>808.40002441406</ele>
        <time>2017-10-11T07:28:33.000Z</time>
      </trkpt>
      <trkpt lat="46.32312" lon="6.98355">
        <ele>810.40002441406</ele>
        <time>2017-10-11T07:28:37.000Z</time>
      </trkpt>
      <trkpt lat="46.32314" lon="6.98358">
        <ele>812.40002441406</ele>
        <time>2017-10-11T07:28:40.000Z</time>
      </trkpt>
      <trkpt lat="46.32314" lon="6.98359">
        <ele>812.59997558594</ele>
        <time>2017-10-11T07:28:42.000Z</time>
      </trkpt>
      <trkpt lat="46.32314" lon="6.98359">
        <ele>812.79998779297</ele>
        <time>2017-10-11T07:28:45.000Z</time>
      </trkpt>
      <trkpt lat="46.32314" lon="6.9836">
        <ele>813</ele>
        <time>2017-10-11T07:28:48.000Z</time>
      </trkpt>
      <trkpt lat="46.32315" lon="6.98361">
        <ele>813.59997558594</ele>
        <time>2017-10-11T07:28:53.000Z</time>
      </trkpt>
      <trkpt lat="46.32315" lon="6.98377">
        <ele>818.40002441406</ele>
        <time>2017-10-11T07:29:14.000Z</time>
      </trkpt>
      <trkpt lat="46.32316" lon="6.98378">
        <ele>819.40002441406</ele>
        <time>2017-10-11T07:29:16.000Z</time>
      </trkpt>
      <trkpt lat="46.32319" lon="6.98378">
        <ele>820.79998779297</ele>
        <time>2017-10-11T07:29:18.000Z</time>
      </trkpt>
      <trkpt lat="46.32323" lon="6.98376">
        <ele>823</ele>
        <time>2017-10-11T07:29:23.000Z</time>
      </trkpt>
      <trkpt lat="46.32324" lon="6.98376">
        <ele>823.40002441406</ele>
        <time>2017-10-11T07:29:25.000Z</time>
      </trkpt>
      <trkpt lat="46.32326" lon="6.98375">
        <ele>824.59997558594</ele>
        <time>2017-10-11T07:29:28.000Z</time>
      </trkpt>
      <trkpt lat="46.32328" lon="6.98374">
        <ele>825.20001220703</ele>
        <time>2017-10-11T07:29:30.000Z</time>
      </trkpt>
      <trkpt lat="46.3233" lon="6.98372">
        <ele>825.79998779297</ele>
        <time>2017-10-11T07:29:33.000Z</time>
      </trkpt>
      <trkpt lat="46.32332" lon="6.98372">
        <ele>826.79998779297</ele>
        <time>2017-10-11T07:29:37.000Z</time>
      </trkpt>
      <trkpt lat="46.32332" lon="6.98374">
        <ele>827.40002441406</ele>
        <time>2017-10-11T07:29:40.000Z</time>
      </trkpt>
      <trkpt lat="46.32332" lon="6.98376">
        <ele>828</ele>
        <time>2017-10-11T07:29:42.000Z</time>
      </trkpt>
      <trkpt lat="46.32333" lon="6.9838">
        <ele>830.20001220703</ele>
        <time>2017-10-11T07:29:46.000Z</time>
      </trkpt>
      <trkpt lat="46.32334" lon="6.98382">
        <ele>830.79998779297</ele>
        <time>2017-10-11T07:29:48.000Z</time>
      </trkpt>
      <trkpt lat="46.32337" lon="6.9838">
        <ele>832.59997558594</ele>
        <time>2017-10-11T07:29:52.000Z</time>
      </trkpt>
      <trkpt lat="46.32338" lon="6.98379">
        <ele>832.40002441406</ele>
        <time>2017-10-11T07:29:55.000Z</time>
      </trkpt>
      <trkpt lat="46.32345" lon="6.98382">
        <ele>837.59997558594</ele>
        <time>2017-10-11T07:30:05.000Z</time>
      </trkpt>
      <trkpt lat="46.32347" lon="6.98378">
        <ele>837.40002441406</ele>
        <time>2017-10-11T07:30:10.000Z</time>
      </trkpt>
      <trkpt lat="46.32348" lon="6.98376">
        <ele>837.79998779297</ele>
        <time>2017-10-11T07:30:13.000Z</time>
      </trkpt>
      <trkpt lat="46.32349" lon="6.98376">
        <ele>837.79998779297</ele>
        <time>2017-10-11T07:30:15.000Z</time>
      </trkpt>
      <trkpt lat="46.32349" lon="6.98377">
        <ele>838.20001220703</ele>
        <time>2017-10-11T07:30:18.000Z</time>
      </trkpt>
      <trkpt lat="46.32349" lon="6.9838">
        <ele>839.20001220703</ele>
        <time>2017-10-11T07:30:21.000Z</time>
      </trkpt>
      <trkpt lat="46.32351" lon="6.98382">
        <ele>841.20001220703</ele>
        <time>2017-10-11T07:30:24.000Z</time>
      </trkpt>
      <trkpt lat="46.32354" lon="6.9839">
        <ele>845</ele>
        <time>2017-10-11T07:30:29.000Z</time>
      </trkpt>
      <trkpt lat="46.32354" lon="6.98392">
        <ele>845.59997558594</ele>
        <time>2017-10-11T07:30:32.000Z</time>
      </trkpt>
      <trkpt lat="46.32354" lon="6.98395">
        <ele>846.59997558594</ele>
        <time>2017-10-11T07:30:34.000Z</time>
      </trkpt>
      <trkpt lat="46.32355" lon="6.98398">
        <ele>848.20001220703</ele>
        <time>2017-10-11T07:30:37.000Z</time>
      </trkpt>
      <trkpt lat="46.32355" lon="6.984">
        <ele>849</ele>
        <time>2017-10-11T07:30:39.000Z</time>
      </trkpt>
      <trkpt lat="46.3236" lon="6.98403">
        <ele>852.79998779297</ele>
        <time>2017-10-11T07:30:42.000Z</time>
      </trkpt>
      <trkpt lat="46.32365" lon="6.98403">
        <ele>855.79998779297</ele>
        <time>2017-10-11T07:30:48.000Z</time>
      </trkpt>
      <trkpt lat="46.3237" lon="6.98402">
        <ele>858</ele>
        <time>2017-10-11T07:30:53.000Z</time>
      </trkpt>
      <trkpt lat="46.3237" lon="6.98402">
        <ele>858.20001220703</ele>
        <time>2017-10-11T07:30:54.000Z</time>
      </trkpt>
      <trkpt lat="46.32371" lon="6.98401">
        <ele>858.59997558594</ele>
        <time>2017-10-11T07:30:56.000Z</time>
      </trkpt>
      <trkpt lat="46.32375" lon="6.984">
        <ele>860.59997558594</ele>
        <time>2017-10-11T07:31:00.000Z</time>
      </trkpt>
      <trkpt lat="46.32378" lon="6.98399">
        <ele>862.20001220703</ele>
        <time>2017-10-11T07:31:04.000Z</time>
      </trkpt>
      <trkpt lat="46.3238" lon="6.98399">
        <ele>863.40002441406</ele>
        <time>2017-10-11T07:31:07.000Z</time>
      </trkpt>
      <trkpt lat="46.32382" lon="6.98399">
        <ele>864.59997558594</ele>
        <time>2017-10-11T07:31:09.000Z</time>
      </trkpt>
      <trkpt lat="46.32382" lon="6.98398">
        <ele>864.40002441406</ele>
        <time>2017-10-11T07:31:11.000Z</time>
      </trkpt>
      <trkpt lat="46.32386" lon="6.98396">
        <ele>865.59997558594</ele>
        <time>2017-10-11T07:31:16.000Z</time>
      </trkpt>
      <trkpt lat="46.32388" lon="6.98398">
        <ele>867.20001220703</ele>
        <time>2017-10-11T07:31:21.000Z</time>
      </trkpt>
      <trkpt lat="46.32393" lon="6.98425">
        <ele>888.79998779297</ele>
        <time>2017-10-11T07:31:34.000Z</time>
      </trkpt>
      <trkpt lat="46.32394" lon="6.98427">
        <ele>890.59997558594</ele>
        <time>2017-10-11T07:31:35.000Z</time>
      </trkpt>
      <trkpt lat="46.32396" lon="6.98431">
        <ele>895.20001220703</ele>
        <time>2017-10-11T07:31:40.000Z</time>
      </trkpt>
      <trkpt lat="46.32398" lon="6.98431">
        <ele>896.59997558594</ele>
        <time>2017-10-11T07:31:42.000Z</time>
      </trkpt>
      <trkpt lat="46.32401" lon="6.98426">
        <ele>894.20001220703</ele>
        <time>2017-10-11T07:31:49.000Z</time>
      </trkpt>
      <trkpt lat="46.32402" lon="6.98424">
        <ele>892.59997558594</ele>
        <time>2017-10-11T07:31:52.000Z</time>
      </trkpt>
      <trkpt lat="46.32401" lon="6.9842">
        <ele>888.59997558594</ele>
        <time>2017-10-11T07:31:54.000Z</time>
      </trkpt>
      <trkpt lat="46.32402" lon="6.98415">
        <ele>884.40002441406</ele>
        <time>2017-10-11T07:31:57.000Z</time>
      </trkpt>
      <trkpt lat="46.32402" lon="6.98408">
        <ele>878.79998779297</ele>
        <time>2017-10-11T07:32:01.000Z</time>
      </trkpt>
      <trkpt lat="46.32403" lon="6.98404">
        <ele>878.20001220703</ele>
        <time>2017-10-11T07:32:04.000Z</time>
      </trkpt>
      <trkpt lat="46.32405" lon="6.98402">
        <ele>878.59997558594</ele>
        <time>2017-10-11T07:32:07.000Z</time>
      </trkpt>
      <trkpt lat="46.32407" lon="6.98399">
        <ele>878.79998779297</ele>
        <time>2017-10-11T07:32:11.000Z</time>
      </trkpt>
      <trkpt lat="46.3241" lon="6.98399">
        <ele>880.79998779297</ele>
        <time>2017-10-11T07:32:14.000Z</time>
      </trkpt>
      <trkpt lat="46.32411" lon="6.98399">
        <ele>881.79998779297</ele>
        <time>2017-10-11T07:32:17.000Z</time>
      </trkpt>
      <trkpt lat="46.32412" lon="6.98398">
        <ele>882.20001220703</ele>
        <time>2017-10-11T07:32:19.000Z</time>
      </trkpt>
      <trkpt lat="46.32415" lon="6.98399">
        <ele>884.59997558594</ele>
        <time>2017-10-11T07:32:22.000Z</time>
      </trkpt>
      <trkpt lat="46.3242" lon="6.98401">
        <ele>888.40002441406</ele>
        <time>2017-10-11T07:32:26.000Z</time>
      </trkpt>
      <trkpt lat="46.32421" lon="6.984">
        <ele>889.20001220703</ele>
        <time>2017-10-11T07:32:30.000Z</time>
      </trkpt>
      <trkpt lat="46.32422" lon="6.98394">
        <ele>886.79998779297</ele>
        <time>2017-10-11T07:32:34.000Z</time>
      </trkpt>
      <trkpt lat="46.32422" lon="6.98392">
        <ele>886.20001220703</ele>
        <time>2017-10-11T07:32:35.000Z</time>
      </trkpt>
      <trkpt lat="46.32422" lon="6.98389">
        <ele>885.20001220703</ele>
        <time>2017-10-11T07:32:39.000Z</time>
      </trkpt>
      <trkpt lat="46.32423" lon="6.98388">
        <ele>885.20001220703</ele>
        <time>2017-10-11T07:32:41.000Z</time>
      </trkpt>
      <trkpt lat="46.32425" lon="6.98388">
        <ele>886.79998779297</ele>
        <time>2017-10-11T07:32:45.000Z</time>
      </trkpt>
      <trkpt lat="46.3244" lon="6.98371">
        <ele>890.40002441406</ele>
        <time>2017-10-11T07:33:12.000Z</time>
      </trkpt>
      <trkpt lat="46.32459" lon="6.98366">
        <ele>899</ele>
        <time>2017-10-11T07:33:37.000Z</time>
      </trkpt>
      <trkpt lat="46.32477" lon="6.98365">
        <ele>908.40002441406</ele>
        <time>2017-10-11T07:33:55.000Z</time>
      </trkpt>
      <trkpt lat="46.32492" lon="6.98361">
        <ele>913.79998779297</ele>
        <time>2017-10-11T07:34:11.000Z</time>
      </trkpt>
      <trkpt lat="46.32494" lon="6.98361">
        <ele>914.59997558594</ele>
        <time>2017-10-11T07:34:13.000Z</time>
      </trkpt>
      <trkpt lat="46.32497" lon="6.98358">
        <ele>914.20001220703</ele>
        <time>2017-10-11T07:34:18.000Z</time>
      </trkpt>
      <trkpt lat="46.32499" lon="6.98358">
        <ele>914.59997558594</ele>
        <time>2017-10-11T07:34:20.000Z</time>
      </trkpt>
      <trkpt lat="46.32501" lon="6.98356">
        <ele>914.79998779297</ele>
        <time>2017-10-11T07:34:23.000Z</time>
      </trkpt>
      <trkpt lat="46.32504" lon="6.98358">
        <ele>916.79998779297</ele>
        <time>2017-10-11T07:34:26.000Z</time>
      </trkpt>
      <trkpt lat="46.32511" lon="6.98358">
        <ele>920.20001220703</ele>
        <time>2017-10-11T07:34:35.000Z</time>
      </trkpt>
      <trkpt lat="46.32513" lon="6.98358">
        <ele>920.79998779297</ele>
        <time>2017-10-11T07:34:37.000Z</time>
      </trkpt>
      <trkpt lat="46.32515" lon="6.98357">
        <ele>921</ele>
        <time>2017-10-11T07:34:39.000Z</time>
      </trkpt>
      <trkpt lat="46.32517" lon="6.98355">
        <ele>921</ele>
        <time>2017-10-11T07:34:41.000Z</time>
      </trkpt>
      <trkpt lat="46.32522" lon="6.98351">
        <ele>922</ele>
        <time>2017-10-11T07:34:47.000Z</time>
      </trkpt>
      <trkpt lat="46.32524" lon="6.98349">
        <ele>921.40002441406</ele>
        <time>2017-10-11T07:34:50.000Z</time>
      </trkpt>
      <trkpt lat="46.32525" lon="6.98346">
        <ele>920.59997558594</ele>
        <time>2017-10-11T07:34:53.000Z</time>
      </trkpt>
      <trkpt lat="46.32527" lon="6.98345">
        <ele>921.59997558594</ele>
        <time>2017-10-11T07:34:56.000Z</time>
      </trkpt>
      <trkpt lat="46.32527" lon="6.98343">
        <ele>920.20001220703</ele>
        <time>2017-10-11T07:34:58.000Z</time>
      </trkpt>
      <trkpt lat="46.32532" lon="6.98352">
        <ele>926.79998779297</ele>
        <time>2017-10-11T07:35:09.000Z</time>
      </trkpt>
      <trkpt lat="46.32529" lon="6.98372">
        <ele>934.79998779297</ele>
        <time>2017-10-11T07:35:20.000Z</time>
      </trkpt>
      <trkpt lat="46.32527" lon="6.98388">
        <ele>942.20001220703</ele>
        <time>2017-10-11T07:35:33.000Z</time>
      </trkpt>
      <trkpt lat="46.32528" lon="6.98391">
        <ele>943.79998779297</ele>
        <time>2017-10-11T07:35:35.000Z</time>
      </trkpt>
      <trkpt lat="46.32527" lon="6.98393">
        <ele>945</ele>
        <time>2017-10-11T07:35:37.000Z</time>
      </trkpt>
      <trkpt lat="46.32519" lon="6.98416">
        <ele>952.59997558594</ele>
        <time>2017-10-11T07:35:55.000Z</time>
      </trkpt>
      <trkpt lat="46.32519" lon="6.98424">
        <ele>955.59997558594</ele>
        <time>2017-10-11T07:36:02.000Z</time>
      </trkpt>
      <trkpt lat="46.32519" lon="6.98425">
        <ele>956.20001220703</ele>
        <time>2017-10-11T07:36:05.000Z</time>
      </trkpt>
      <trkpt lat="46.32521" lon="6.98425">
        <ele>957.20001220703</ele>
        <time>2017-10-11T07:36:08.000Z</time>
      </trkpt>
      <trkpt lat="46.32521" lon="6.98425">
        <ele>957</ele>
        <time>2017-10-11T07:36:10.000Z</time>
      </trkpt>
      <trkpt lat="46.32523" lon="6.98425">
        <ele>957.59997558594</ele>
        <time>2017-10-11T07:36:12.000Z</time>
      </trkpt>
      <trkpt lat="46.32524" lon="6.98425">
        <ele>958</ele>
        <time>2017-10-11T07:36:14.000Z</time>
      </trkpt>
      <trkpt lat="46.32533" lon="6.98417">
        <ele>958.59997558594</ele>
        <time>2017-10-11T07:36:27.000Z</time>
      </trkpt>
      <trkpt lat="46.32541" lon="6.98413">
        <ele>960.59997558594</ele>
        <time>2017-10-11T07:36:38.000Z</time>
      </trkpt>
      <trkpt lat="46.32545" lon="6.98415">
        <ele>963</ele>
        <time>2017-10-11T07:36:43.000Z</time>
      </trkpt>
      <trkpt lat="46.32547" lon="6.98415">
        <ele>963.59997558594</ele>
        <time>2017-10-11T07:36:46.000Z</time>
      </trkpt>
      <trkpt lat="46.32552" lon="6.98404">
        <ele>960.59997558594</ele>
        <time>2017-10-11T07:36:59.000Z</time>
      </trkpt>
      <trkpt lat="46.32569" lon="6.98395">
        <ele>962.59997558594</ele>
        <time>2017-10-11T07:37:25.000Z</time>
      </trkpt>
      <trkpt lat="46.32586" lon="6.98394">
        <ele>964.59997558594</ele>
        <time>2017-10-11T07:37:47.000Z</time>
      </trkpt>
      <trkpt lat="46.32604" lon="6.98397">
        <ele>968.40002441406</ele>
        <time>2017-10-11T07:38:07.000Z</time>
      </trkpt>
      <trkpt lat="46.32621" lon="6.98401">
        <ele>972.59997558594</ele>
        <time>2017-10-11T07:38:24.000Z</time>
      </trkpt>
      <trkpt lat="46.32636" lon="6.98413">
        <ele>979.79998779297</ele>
        <time>2017-10-11T07:38:45.000Z</time>
      </trkpt>
      <trkpt lat="46.32637" lon="6.98415">
        <ele>980.40002441406</ele>
        <time>2017-10-11T07:38:47.000Z</time>
      </trkpt>
      <trkpt lat="46.3264" lon="6.98416">
        <ele>981.40002441406</ele>
        <time>2017-10-11T07:38:50.000Z</time>
      </trkpt>
      <trkpt lat="46.32643" lon="6.98418">
        <ele>982.40002441406</ele>
        <time>2017-10-11T07:38:53.000Z</time>
      </trkpt>
      <trkpt lat="46.32648" lon="6.98419">
        <ele>983.20001220703</ele>
        <time>2017-10-11T07:38:59.000Z</time>
      </trkpt>
      <trkpt lat="46.32649" lon="6.9842">
        <ele>983.59997558594</ele>
        <time>2017-10-11T07:39:01.000Z</time>
      </trkpt>
      <trkpt lat="46.32652" lon="6.98426">
        <ele>986</ele>
        <time>2017-10-11T07:39:05.000Z</time>
      </trkpt>
      <trkpt lat="46.32652" lon="6.98433">
        <ele>987.79998779297</ele>
        <time>2017-10-11T07:39:09.000Z</time>
      </trkpt>
      <trkpt lat="46.32652" lon="6.98437">
        <ele>989</ele>
        <time>2017-10-11T07:39:13.000Z</time>
      </trkpt>
      <trkpt lat="46.3265" lon="6.9844">
        <ele>989.40002441406</ele>
        <time>2017-10-11T07:39:17.000Z</time>
      </trkpt>
      <trkpt lat="46.32647" lon="6.98442">
        <ele>989.40002441406</ele>
        <time>2017-10-11T07:39:21.000Z</time>
      </trkpt>
      <trkpt lat="46.32643" lon="6.98447">
        <ele>990</ele>
        <time>2017-10-11T07:39:25.000Z</time>
      </trkpt>
      <trkpt lat="46.3264" lon="6.98454">
        <ele>991.59997558594</ele>
        <time>2017-10-11T07:39:31.000Z</time>
      </trkpt>
      <trkpt lat="46.32635" lon="6.98468">
        <ele>994.79998779297</ele>
        <time>2017-10-11T07:39:44.000Z</time>
      </trkpt>
      <trkpt lat="46.32629" lon="6.98476">
        <ele>996.40002441406</ele>
        <time>2017-10-11T07:39:54.000Z</time>
      </trkpt>
      <trkpt lat="46.32621" lon="6.98482">
        <ele>999</ele>
        <time>2017-10-11T07:40:02.000Z</time>
      </trkpt>
      <trkpt lat="46.32615" lon="6.98486">
        <ele>1000.5999755859</ele>
        <time>2017-10-11T07:40:09.000Z</time>
      </trkpt>
      <trkpt lat="46.32615" lon="6.98487">
        <ele>1001.200012207</ele>
        <time>2017-10-11T07:40:11.000Z</time>
      </trkpt>
      <trkpt lat="46.32612" lon="6.9849">
        <ele>1002.4000244141</ele>
        <time>2017-10-11T07:40:14.000Z</time>
      </trkpt>
      <trkpt lat="46.32608" lon="6.98499">
        <ele>1005.4000244141</ele>
        <time>2017-10-11T07:40:23.000Z</time>
      </trkpt>
      <trkpt lat="46.32607" lon="6.98504">
        <ele>1007</ele>
        <time>2017-10-11T07:40:27.000Z</time>
      </trkpt>
      <trkpt lat="46.32606" lon="6.98507">
        <ele>1008.200012207</ele>
        <time>2017-10-11T07:40:31.000Z</time>
      </trkpt>
      <trkpt lat="46.32606" lon="6.98509">
        <ele>1008.799987793</ele>
        <time>2017-10-11T07:40:33.000Z</time>
      </trkpt>
      <trkpt lat="46.32609" lon="6.98514">
        <ele>1010.200012207</ele>
        <time>2017-10-11T07:40:37.000Z</time>
      </trkpt>
      <trkpt lat="46.32612" lon="6.98518">
        <ele>1011.799987793</ele>
        <time>2017-10-11T07:40:42.000Z</time>
      </trkpt>
      <trkpt lat="46.32616" lon="6.9852">
        <ele>1012.200012207</ele>
        <time>2017-10-11T07:40:46.000Z</time>
      </trkpt>
      <trkpt lat="46.32618" lon="6.98521">
        <ele>1012.5999755859</ele>
        <time>2017-10-11T07:40:48.000Z</time>
      </trkpt>
      <trkpt lat="46.32619" lon="6.98521">
        <ele>1012.5999755859</ele>
        <time>2017-10-11T07:40:51.000Z</time>
      </trkpt>
      <trkpt lat="46.3262" lon="6.98521">
        <ele>1012.4000244141</ele>
        <time>2017-10-11T07:40:53.000Z</time>
      </trkpt>
      <trkpt lat="46.32623" lon="6.98521">
        <ele>1012.5999755859</ele>
        <time>2017-10-11T07:40:57.000Z</time>
      </trkpt>
      <trkpt lat="46.32625" lon="6.98524">
        <ele>1013.4000244141</ele>
        <time>2017-10-11T07:41:02.000Z</time>
      </trkpt>
      <trkpt lat="46.32633" lon="6.98546">
        <ele>1020.5999755859</ele>
        <time>2017-10-11T07:41:26.000Z</time>
      </trkpt>
      <trkpt lat="46.32634" lon="6.98548">
        <ele>1021.4000244141</ele>
        <time>2017-10-11T07:41:28.000Z</time>
      </trkpt>
      <trkpt lat="46.32638" lon="6.98553">
        <ele>1022.799987793</ele>
        <time>2017-10-11T07:41:31.000Z</time>
      </trkpt>
      <trkpt lat="46.32652" lon="6.98571">
        <ele>1029.1999511719</ele>
        <time>2017-10-11T07:41:47.000Z</time>
      </trkpt>
      <trkpt lat="46.32663" lon="6.98592">
        <ele>1035.1999511719</ele>
        <time>2017-10-11T07:42:03.000Z</time>
      </trkpt>
      <trkpt lat="46.32675" lon="6.98611">
        <ele>1041.1999511719</ele>
        <time>2017-10-11T07:42:20.000Z</time>
      </trkpt>
      <trkpt lat="46.32687" lon="6.98622">
        <ele>1044.4000244141</ele>
        <time>2017-10-11T07:42:34.000Z</time>
      </trkpt>
      <trkpt lat="46.32692" lon="6.98637">
        <ele>1049.8000488281</ele>
        <time>2017-10-11T07:42:46.000Z</time>
      </trkpt>
      <trkpt lat="46.32692" lon="6.9864">
        <ele>1051.1999511719</ele>
        <time>2017-10-11T07:42:48.000Z</time>
      </trkpt>
      <trkpt lat="46.32691" lon="6.98651">
        <ele>1056</ele>
        <time>2017-10-11T07:42:56.000Z</time>
      </trkpt>
      <trkpt lat="46.32692" lon="6.98656">
        <ele>1058</ele>
        <time>2017-10-11T07:43:00.000Z</time>
      </trkpt>
      <trkpt lat="46.32695" lon="6.98663">
        <ele>1059.5999755859</ele>
        <time>2017-10-11T07:43:06.000Z</time>
      </trkpt>
      <trkpt lat="46.32697" lon="6.98665">
        <ele>1059.8000488281</ele>
        <time>2017-10-11T07:43:09.000Z</time>
      </trkpt>
      <trkpt lat="46.32708" lon="6.98671">
        <ele>1059.4000244141</ele>
        <time>2017-10-11T07:43:17.000Z</time>
      </trkpt>
      <trkpt lat="46.32708" lon="6.98674">
        <ele>1059.8000488281</ele>
        <time>2017-10-11T07:43:19.000Z</time>
      </trkpt>
      <trkpt lat="46.32714" lon="6.98699">
        <ele>1064.4000244141</ele>
        <time>2017-10-11T07:43:34.000Z</time>
      </trkpt>
      <trkpt lat="46.32724" lon="6.98723">
        <ele>1068</ele>
        <time>2017-10-11T07:43:49.000Z</time>
      </trkpt>
      <trkpt lat="46.32731" lon="6.9874">
        <ele>1070.8000488281</ele>
        <time>2017-10-11T07:44:02.000Z</time>
      </trkpt>
      <trkpt lat="46.32742" lon="6.98762">
        <ele>1074.5999755859</ele>
        <time>2017-10-11T07:44:16.000Z</time>
      </trkpt>
      <trkpt lat="46.32748" lon="6.98788">
        <ele>1079.5999755859</ele>
        <time>2017-10-11T07:44:31.000Z</time>
      </trkpt>
      <trkpt lat="46.32751" lon="6.98814">
        <ele>1085</ele>
        <time>2017-10-11T07:44:48.000Z</time>
      </trkpt>
      <trkpt lat="46.32753" lon="6.98823">
        <ele>1086.5999755859</ele>
        <time>2017-10-11T07:44:54.000Z</time>
      </trkpt>
      <trkpt lat="46.32755" lon="6.98825">
        <ele>1087</ele>
        <time>2017-10-11T07:44:56.000Z</time>
      </trkpt>
      <trkpt lat="46.32768" lon="6.98843">
        <ele>1089</ele>
        <time>2017-10-11T07:45:10.000Z</time>
      </trkpt>
      <trkpt lat="46.3278" lon="6.98865">
        <ele>1092</ele>
        <time>2017-10-11T07:45:26.000Z</time>
      </trkpt>
      <trkpt lat="46.32786" lon="6.9889">
        <ele>1097.8000488281</ele>
        <time>2017-10-11T07:45:44.000Z</time>
      </trkpt>
      <trkpt lat="46.32796" lon="6.98913">
        <ele>1102.4000244141</ele>
        <time>2017-10-11T07:46:00.000Z</time>
      </trkpt>
      <trkpt lat="46.32807" lon="6.98933">
        <ele>1103.1999511719</ele>
        <time>2017-10-11T07:46:14.000Z</time>
      </trkpt>
      <trkpt lat="46.32817" lon="6.98956">
        <ele>1105.5999755859</ele>
        <time>2017-10-11T07:46:29.000Z</time>
      </trkpt>
      <trkpt lat="46.32828" lon="6.98976">
        <ele>1109</ele>
        <time>2017-10-11T07:46:44.000Z</time>
      </trkpt>
      <trkpt lat="46.32844" lon="6.98991">
        <ele>1111.1999511719</ele>
        <time>2017-10-11T07:46:58.000Z</time>
      </trkpt>
      <trkpt lat="46.32856" lon="6.99011">
        <ele>1112</ele>
        <time>2017-10-11T07:47:10.000Z</time>
      </trkpt>
      <trkpt lat="46.32867" lon="6.99033">
        <ele>1112.8000488281</ele>
        <time>2017-10-11T07:47:23.000Z</time>
      </trkpt>
      <trkpt lat="46.32878" lon="6.99055">
        <ele>1113.4000244141</ele>
        <time>2017-10-11T07:47:35.000Z</time>
      </trkpt>
      <trkpt lat="46.3289" lon="6.99074">
        <ele>1115.4000244141</ele>
        <time>2017-10-11T07:47:48.000Z</time>
      </trkpt>
      <trkpt lat="46.32903" lon="6.99093">
        <ele>1115.4000244141</ele>
        <time>2017-10-11T07:48:00.000Z</time>
      </trkpt>
      <trkpt lat="46.32915" lon="6.99113">
        <ele>1115.4000244141</ele>
        <time>2017-10-11T07:48:13.000Z</time>
      </trkpt>
      <trkpt lat="46.32929" lon="6.99133">
        <ele>1115.1999511719</ele>
        <time>2017-10-11T07:48:25.000Z</time>
      </trkpt>
      <trkpt lat="46.32945" lon="6.99144">
        <ele>1112.8000488281</ele>
        <time>2017-10-11T07:48:37.000Z</time>
      </trkpt>
      <trkpt lat="46.32945" lon="6.99146">
        <ele>1112.8000488281</ele>
        <time>2017-10-11T07:48:40.000Z</time>
      </trkpt>
      <trkpt lat="46.32947" lon="6.99141">
        <ele>1111.8000488281</ele>
        <time>2017-10-11T07:48:49.000Z</time>
      </trkpt>
      <trkpt lat="46.32963" lon="6.99125">
        <ele>1110.4000244141</ele>
        <time>2017-10-11T07:49:02.000Z</time>
      </trkpt>
      <trkpt lat="46.32979" lon="6.9911">
        <ele>1114.5999755859</ele>
        <time>2017-10-11T07:49:15.000Z</time>
      </trkpt>
      <trkpt lat="46.32992" lon="6.99092">
        <ele>1122</ele>
        <time>2017-10-11T07:49:27.000Z</time>
      </trkpt>
      <trkpt lat="46.33006" lon="6.99074">
        <ele>1129.5999755859</ele>
        <time>2017-10-11T07:49:40.000Z</time>
      </trkpt>
      <trkpt lat="46.33017" lon="6.99064">
        <ele>1133.8000488281</ele>
        <time>2017-10-11T07:49:50.000Z</time>
      </trkpt>
      <trkpt lat="46.33017" lon="6.9906">
        <ele>1134</ele>
        <time>2017-10-11T07:49:56.000Z</time>
      </trkpt>
      <trkpt lat="46.33003" lon="6.99079">
        <ele>1128</ele>
        <time>2017-10-11T07:50:07.000Z</time>
      </trkpt>
      <trkpt lat="46.32989" lon="6.99099">
        <ele>1119.8000488281</ele>
        <time>2017-10-11T07:50:15.000Z</time>
      </trkpt>
      <trkpt lat="46.32976" lon="6.99117">
        <ele>1113</ele>
        <time>2017-10-11T07:50:22.000Z</time>
      </trkpt>
      <trkpt lat="46.32966" lon="6.99122">
        <ele>1111.1999511719</ele>
        <time>2017-10-11T07:50:28.000Z</time>
      </trkpt>
      <trkpt lat="46.32953" lon="6.991">
        <ele>1114.1999511719</ele>
        <time>2017-10-11T07:50:36.000Z</time>
      </trkpt>
      <trkpt lat="46.32949" lon="6.99075">
        <ele>1118.4000244141</ele>
        <time>2017-10-11T07:50:43.000Z</time>
      </trkpt>
      <trkpt lat="46.32952" lon="6.99049">
        <ele>1117.4000244141</ele>
        <time>2017-10-11T07:50:51.000Z</time>
      </trkpt>
      <trkpt lat="46.32956" lon="6.99022">
        <ele>1119.1999511719</ele>
        <time>2017-10-11T07:51:03.000Z</time>
      </trkpt>
      <trkpt lat="46.32962" lon="6.98995">
        <ele>1121.4000244141</ele>
        <time>2017-10-11T07:51:16.000Z</time>
      </trkpt>
      <trkpt lat="46.32967" lon="6.98969">
        <ele>1121.1999511719</ele>
        <time>2017-10-11T07:51:29.000Z</time>
      </trkpt>
      <trkpt lat="46.32968" lon="6.98943">
        <ele>1121.1999511719</ele>
        <time>2017-10-11T07:51:41.000Z</time>
      </trkpt>
      <trkpt lat="46.32971" lon="6.98917">
        <ele>1121.5999755859</ele>
        <time>2017-10-11T07:51:53.000Z</time>
      </trkpt>
      <trkpt lat="46.32974" lon="6.9889">
        <ele>1121.4000244141</ele>
        <time>2017-10-11T07:52:02.000Z</time>
      </trkpt>
      <trkpt lat="46.32978" lon="6.98864">
        <ele>1121.5999755859</ele>
        <time>2017-10-11T07:52:09.000Z</time>
      </trkpt>
      <trkpt lat="46.32983" lon="6.98836">
        <ele>1122.4000244141</ele>
        <time>2017-10-11T07:52:17.000Z</time>
      </trkpt>
      <trkpt lat="46.32987" lon="6.98807">
        <ele>1124.8000488281</ele>
        <time>2017-10-11T07:52:25.000Z</time>
      </trkpt>
      <trkpt lat="46.32991" lon="6.98779">
        <ele>1126.8000488281</ele>
        <time>2017-10-11T07:52:33.000Z</time>
      </trkpt>
      <trkpt lat="46.32995" lon="6.98752">
        <ele>1128.5999755859</ele>
        <time>2017-10-11T07:52:41.000Z</time>
      </trkpt>
      <trkpt lat="46.32998" lon="6.98725">
        <ele>1128.5999755859</ele>
        <time>2017-10-11T07:52:49.000Z</time>
      </trkpt>
      <trkpt lat="46.33001" lon="6.98697">
        <ele>1127.5999755859</ele>
        <time>2017-10-11T07:52:57.000Z</time>
      </trkpt>
      <trkpt lat="46.33004" lon="6.98668">
        <ele>1127.5999755859</ele>
        <time>2017-10-11T07:53:05.000Z</time>
      </trkpt>
      <trkpt lat="46.33008" lon="6.9864">
        <ele>1128.8000488281</ele>
        <time>2017-10-11T07:53:13.000Z</time>
      </trkpt>
      <trkpt lat="46.33012" lon="6.98613">
        <ele>1129.8000488281</ele>
        <time>2017-10-11T07:53:21.000Z</time>
      </trkpt>
      <trkpt lat="46.33018" lon="6.98586">
        <ele>1131.1999511719</ele>
        <time>2017-10-11T07:53:29.000Z</time>
      </trkpt>
      <trkpt lat="46.33025" lon="6.98558">
        <ele>1133</ele>
        <time>2017-10-11T07:53:37.000Z</time>
      </trkpt>
      <trkpt lat="46.3303" lon="6.98532">
        <ele>1134.5999755859</ele>
        <time>2017-10-11T07:53:45.000Z</time>
      </trkpt>
      <trkpt lat="46.33037" lon="6.98506">
        <ele>1136.4000244141</ele>
        <time>2017-10-11T07:53:53.000Z</time>
      </trkpt>
      <trkpt lat="46.33047" lon="6.98481">
        <ele>1139.1999511719</ele>
        <time>2017-10-11T07:54:01.000Z</time>
      </trkpt>
      <trkpt lat="46.33061" lon="6.98463">
        <ele>1143.4000244141</ele>
        <time>2017-10-11T07:54:08.000Z</time>
      </trkpt>
      <trkpt lat="46.33069" lon="6.98439">
        <ele>1143.8000488281</ele>
        <time>2017-10-11T07:54:16.000Z</time>
      </trkpt>
      <trkpt lat="46.33079" lon="6.98415">
        <ele>1145.5999755859</ele>
        <time>2017-10-11T07:54:24.000Z</time>
      </trkpt>
      <trkpt lat="46.33077" lon="6.98388">
        <ele>1146.5999755859</ele>
        <time>2017-10-11T07:54:31.000Z</time>
      </trkpt>
      <trkpt lat="46.33068" lon="6.98365">
        <ele>1144.5999755859</ele>
        <time>2017-10-11T07:54:38.000Z</time>
      </trkpt>
      <trkpt lat="46.33059" lon="6.98339">
        <ele>1142.1999511719</ele>
        <time>2017-10-11T07:54:46.000Z</time>
      </trkpt>
      <trkpt lat="46.33047" lon="6.98315">
        <ele>1138.1999511719</ele>
        <time>2017-10-11T07:54:54.000Z</time>
      </trkpt>
      <trkpt lat="46.33036" lon="6.98292">
        <ele>1135.1999511719</ele>
        <time>2017-10-11T07:55:02.000Z</time>
      </trkpt>
      <trkpt lat="46.33025" lon="6.9827">
        <ele>1131.5999755859</ele>
        <time>2017-10-11T07:55:10.000Z</time>
      </trkpt>
      <trkpt lat="46.33017" lon="6.98244">
        <ele>1129</ele>
        <time>2017-10-11T07:55:18.000Z</time>
      </trkpt>
      <trkpt lat="46.33007" lon="6.9822">
        <ele>1127</ele>
        <time>2017-10-11T07:55:26.000Z</time>
      </trkpt>
      <trkpt lat="46.33003" lon="6.98192">
        <ele>1128.1999511719</ele>
        <time>2017-10-11T07:55:34.000Z</time>
      </trkpt>
      <trkpt lat="46.33001" lon="6.98163">
        <ele>1130.1999511719</ele>
        <time>2017-10-11T07:55:43.000Z</time>
      </trkpt>
      <trkpt lat="46.32997" lon="6.98136">
        <ele>1129</ele>
        <time>2017-10-11T07:55:51.000Z</time>
      </trkpt>
      <trkpt lat="46.32997" lon="6.98125">
        <ele>1129.4000244141</ele>
        <time>2017-10-11T07:55:55.000Z</time>
      </trkpt>
      <trkpt lat="46.33004" lon="6.98117">
        <ele>1132.8000488281</ele>
        <time>2017-10-11T07:56:02.000Z</time>
      </trkpt>
      <trkpt lat="46.33012" lon="6.98094">
        <ele>1136.4000244141</ele>
        <time>2017-10-11T07:56:16.000Z</time>
      </trkpt>
      <trkpt lat="46.33019" lon="6.98071">
        <ele>1139.1999511719</ele>
        <time>2017-10-11T07:56:59.000Z</time>
      </trkpt>
      <trkpt lat="46.33024" lon="6.9806">
        <ele>1141.1999511719</ele>
        <time>2017-10-11T07:57:06.000Z</time>
      </trkpt>
      <trkpt lat="46.33029" lon="6.98046">
        <ele>1143.5999755859</ele>
        <time>2017-10-11T07:57:15.000Z</time>
      </trkpt>
      <trkpt lat="46.33037" lon="6.98023">
        <ele>1145.8000488281</ele>
        <time>2017-10-11T07:57:28.000Z</time>
      </trkpt>
      <trkpt lat="46.33041" lon="6.9802">
        <ele>1147.1999511719</ele>
        <time>2017-10-11T07:57:33.000Z</time>
      </trkpt>
      <trkpt lat="46.33059" lon="6.98023">
        <ele>1153.8000488281</ele>
        <time>2017-10-11T07:57:51.000Z</time>
      </trkpt>
      <trkpt lat="46.3306" lon="6.98024">
        <ele>1154.1999511719</ele>
        <time>2017-10-11T07:57:54.000Z</time>
      </trkpt>
      <trkpt lat="46.33065" lon="6.98026">
        <ele>1156.4000244141</ele>
        <time>2017-10-11T07:58:00.000Z</time>
      </trkpt>
      <trkpt lat="46.33071" lon="6.98026">
        <ele>1159.1999511719</ele>
        <time>2017-10-11T07:58:08.000Z</time>
      </trkpt>
      <trkpt lat="46.33071" lon="6.98025">
        <ele>1159.4000244141</ele>
        <time>2017-10-11T07:58:10.000Z</time>
      </trkpt>
      <trkpt lat="46.33071" lon="6.98026">
        <ele>1159.4000244141</ele>
        <time>2017-10-11T07:58:14.000Z</time>
      </trkpt>
      <trkpt lat="46.33073" lon="6.98032">
        <ele>1160.8000488281</ele>
        <time>2017-10-11T07:58:20.000Z</time>
      </trkpt>
      <trkpt lat="46.3308" lon="6.98036">
        <ele>1164.5999755859</ele>
        <time>2017-10-11T07:58:26.000Z</time>
      </trkpt>
      <trkpt lat="46.33091" lon="6.98058">
        <ele>1171.4000244141</ele>
        <time>2017-10-11T07:58:44.000Z</time>
      </trkpt>
      <trkpt lat="46.33092" lon="6.98063">
        <ele>1172.1999511719</ele>
        <time>2017-10-11T07:58:47.000Z</time>
      </trkpt>
      <trkpt lat="46.33097" lon="6.98088">
        <ele>1176.1999511719</ele>
        <time>2017-10-11T07:59:00.000Z</time>
      </trkpt>
      <trkpt lat="46.33098" lon="6.98115">
        <ele>1177.1999511719</ele>
        <time>2017-10-11T07:59:14.000Z</time>
      </trkpt>
      <trkpt lat="46.33096" lon="6.98143">
        <ele>1176.4000244141</ele>
        <time>2017-10-11T07:59:31.000Z</time>
      </trkpt>
      <trkpt lat="46.33103" lon="6.98167">
        <ele>1179.5999755859</ele>
        <time>2017-10-11T07:59:43.000Z</time>
      </trkpt>
      <trkpt lat="46.33115" lon="6.9819">
        <ele>1183.5999755859</ele>
        <time>2017-10-11T07:59:52.000Z</time>
      </trkpt>
      <trkpt lat="46.33124" lon="6.98214">
        <ele>1185.8000488281</ele>
        <time>2017-10-11T08:00:01.000Z</time>
      </trkpt>
      <trkpt lat="46.33131" lon="6.9824">
        <ele>1187.5999755859</ele>
        <time>2017-10-11T08:00:09.000Z</time>
      </trkpt>
      <trkpt lat="46.3314" lon="6.98264">
        <ele>1190.1999511719</ele>
        <time>2017-10-11T08:00:17.000Z</time>
      </trkpt>
      <trkpt lat="46.3315" lon="6.98287">
        <ele>1193.4000244141</ele>
        <time>2017-10-11T08:00:24.000Z</time>
      </trkpt>
      <trkpt lat="46.3316" lon="6.9831">
        <ele>1196.5999755859</ele>
        <time>2017-10-11T08:00:32.000Z</time>
      </trkpt>
      <trkpt lat="46.33169" lon="6.98332">
        <ele>1200</ele>
        <time>2017-10-11T08:00:46.000Z</time>
      </trkpt>
      <trkpt lat="46.3317" lon="6.98337">
        <ele>1200.5999755859</ele>
        <time>2017-10-11T08:00:48.000Z</time>
      </trkpt>
      <trkpt lat="46.33176" lon="6.98357">
        <ele>1203.1999511719</ele>
        <time>2017-10-11T08:00:58.000Z</time>
      </trkpt>
      <trkpt lat="46.33183" lon="6.98381">
        <ele>1205.8000488281</ele>
        <time>2017-10-11T08:01:11.000Z</time>
      </trkpt>
      <trkpt lat="46.33185" lon="6.9839">
        <ele>1206.5999755859</ele>
        <time>2017-10-11T08:01:17.000Z</time>
      </trkpt>
      <trkpt lat="46.33188" lon="6.98416">
        <ele>1206.5999755859</ele>
        <time>2017-10-11T08:01:32.000Z</time>
      </trkpt>
      <trkpt lat="46.33191" lon="6.98443">
        <ele>1207.4000244141</ele>
        <time>2017-10-11T08:01:47.000Z</time>
      </trkpt>
      <trkpt lat="46.33192" lon="6.98447">
        <ele>1208</ele>
        <time>2017-10-11T08:01:49.000Z</time>
      </trkpt>
      <trkpt lat="46.33194" lon="6.9845">
        <ele>1208.8000488281</ele>
        <time>2017-10-11T08:01:51.000Z</time>
      </trkpt>
      <trkpt lat="46.33196" lon="6.9846">
        <ele>1209.8000488281</ele>
        <time>2017-10-11T08:01:57.000Z</time>
      </trkpt>
      <trkpt lat="46.33198" lon="6.98486">
        <ele>1212.1999511719</ele>
        <time>2017-10-11T08:02:11.000Z</time>
      </trkpt>
      <trkpt lat="46.33201" lon="6.98511">
        <ele>1215.4000244141</ele>
        <time>2017-10-11T08:02:25.000Z</time>
      </trkpt>
      <trkpt lat="46.332" lon="6.98526">
        <ele>1215.8000488281</ele>
        <time>2017-10-11T08:02:35.000Z</time>
      </trkpt>
      <trkpt lat="46.332" lon="6.98528">
        <ele>1216</ele>
        <time>2017-10-11T08:02:37.000Z</time>
      </trkpt>
      <trkpt lat="46.33201" lon="6.98533">
        <ele>1216.5999755859</ele>
        <time>2017-10-11T08:02:41.000Z</time>
      </trkpt>
      <trkpt lat="46.33201" lon="6.98537">
        <ele>1217.1999511719</ele>
        <time>2017-10-11T08:02:44.000Z</time>
      </trkpt>
      <trkpt lat="46.33202" lon="6.98553">
        <ele>1219.1999511719</ele>
        <time>2017-10-11T08:02:55.000Z</time>
      </trkpt>
      <trkpt lat="46.332" lon="6.98559">
        <ele>1218.8000488281</ele>
        <time>2017-10-11T08:03:00.000Z</time>
      </trkpt>
      <trkpt lat="46.332" lon="6.9856">
        <ele>1218.8000488281</ele>
        <time>2017-10-11T08:03:01.000Z</time>
      </trkpt>
      <trkpt lat="46.33199" lon="6.98565">
        <ele>1219.1999511719</ele>
        <time>2017-10-11T08:03:05.000Z</time>
      </trkpt>
      <trkpt lat="46.33198" lon="6.98573">
        <ele>1219.5999755859</ele>
        <time>2017-10-11T08:03:09.000Z</time>
      </trkpt>
      <trkpt lat="46.33198" lon="6.98577">
        <ele>1219.8000488281</ele>
        <time>2017-10-11T08:03:11.000Z</time>
      </trkpt>
      <trkpt lat="46.33198" lon="6.98581">
        <ele>1220.1999511719</ele>
        <time>2017-10-11T08:03:13.000Z</time>
      </trkpt>
      <trkpt lat="46.33195" lon="6.98611">
        <ele>1221.1999511719</ele>
        <time>2017-10-11T08:03:25.000Z</time>
      </trkpt>
      <trkpt lat="46.33193" lon="6.98639">
        <ele>1222</ele>
        <time>2017-10-11T08:03:33.000Z</time>
      </trkpt>
      <trkpt lat="46.33193" lon="6.98667">
        <ele>1223.5999755859</ele>
        <time>2017-10-11T08:03:42.000Z</time>
      </trkpt>
      <trkpt lat="46.33194" lon="6.98696">
        <ele>1223.5999755859</ele>
        <time>2017-10-11T08:03:51.000Z</time>
      </trkpt>
      <trkpt lat="46.33195" lon="6.98723">
        <ele>1224.5999755859</ele>
        <time>2017-10-11T08:03:59.000Z</time>
      </trkpt>
      <trkpt lat="46.33195" lon="6.98752">
        <ele>1225</ele>
        <time>2017-10-11T08:04:08.000Z</time>
      </trkpt>
      <trkpt lat="46.33194" lon="6.98778">
        <ele>1224</ele>
        <time>2017-10-11T08:04:18.000Z</time>
      </trkpt>
      <trkpt lat="46.332" lon="6.98803">
        <ele>1225.5999755859</ele>
        <time>2017-10-11T08:04:29.000Z</time>
      </trkpt>
      <trkpt lat="46.33203" lon="6.98829">
        <ele>1226</ele>
        <time>2017-10-11T08:04:40.000Z</time>
      </trkpt>
      <trkpt lat="46.33208" lon="6.98845">
        <ele>1229</ele>
        <time>2017-10-11T08:04:51.000Z</time>
      </trkpt>
      <trkpt lat="46.33211" lon="6.98873">
        <ele>1231.4000244141</ele>
        <time>2017-10-11T08:05:02.000Z</time>
      </trkpt>
      <trkpt lat="46.33212" lon="6.989">
        <ele>1232.5999755859</ele>
        <time>2017-10-11T08:05:09.000Z</time>
      </trkpt>
      <trkpt lat="46.33213" lon="6.98927">
        <ele>1232</ele>
        <time>2017-10-11T08:05:18.000Z</time>
      </trkpt>
      <trkpt lat="46.33218" lon="6.98954">
        <ele>1233.1999511719</ele>
        <time>2017-10-11T08:05:33.000Z</time>
      </trkpt>
      <trkpt lat="46.33218" lon="6.98982">
        <ele>1232.1999511719</ele>
        <time>2017-10-11T08:05:42.000Z</time>
      </trkpt>
      <trkpt lat="46.33221" lon="6.99008">
        <ele>1232</ele>
        <time>2017-10-11T08:05:49.000Z</time>
      </trkpt>
      <trkpt lat="46.33226" lon="6.99035">
        <ele>1232.8000488281</ele>
        <time>2017-10-11T08:05:57.000Z</time>
      </trkpt>
      <trkpt lat="46.33232" lon="6.99063">
        <ele>1233.5999755859</ele>
        <time>2017-10-11T08:06:05.000Z</time>
      </trkpt>
      <trkpt lat="46.3324" lon="6.9909">
        <ele>1233.5999755859</ele>
        <time>2017-10-11T08:06:13.000Z</time>
      </trkpt>
      <trkpt lat="46.33251" lon="6.99114">
        <ele>1234.4000244141</ele>
        <time>2017-10-11T08:06:21.000Z</time>
      </trkpt>
      <trkpt lat="46.33261" lon="6.99139">
        <ele>1234.1999511719</ele>
        <time>2017-10-11T08:06:29.000Z</time>
      </trkpt>
      <trkpt lat="46.33267" lon="6.99166">
        <ele>1233.1999511719</ele>
        <time>2017-10-11T08:06:37.000Z</time>
      </trkpt>
      <trkpt lat="46.33274" lon="6.99194">
        <ele>1232.5999755859</ele>
        <time>2017-10-11T08:06:45.000Z</time>
      </trkpt>
      <trkpt lat="46.33279" lon="6.99222">
        <ele>1232</ele>
        <time>2017-10-11T08:06:53.000Z</time>
      </trkpt>
      <trkpt lat="46.33287" lon="6.99247">
        <ele>1232.4000244141</ele>
        <time>2017-10-11T08:07:00.000Z</time>
      </trkpt>
      <trkpt lat="46.33295" lon="6.99271">
        <ele>1232</ele>
        <time>2017-10-11T08:07:07.000Z</time>
      </trkpt>
      <trkpt lat="46.33302" lon="6.99297">
        <ele>1231</ele>
        <time>2017-10-11T08:07:15.000Z</time>
      </trkpt>
      <trkpt lat="46.33304" lon="6.99301">
        <ele>1231.4000244141</ele>
        <time>2017-10-11T08:07:17.000Z</time>
      </trkpt>
      <trkpt lat="46.33306" lon="6.993">
        <ele>1232.1999511719</ele>
        <time>2017-10-11T08:07:19.000Z</time>
      </trkpt>
      <trkpt lat="46.33304" lon="6.99272">
        <ele>1235.1999511719</ele>
        <time>2017-10-11T08:07:29.000Z</time>
      </trkpt>
      <trkpt lat="46.33297" lon="6.99245">
        <ele>1236.4000244141</ele>
        <time>2017-10-11T08:07:37.000Z</time>
      </trkpt>
      <trkpt lat="46.33293" lon="6.99217">
        <ele>1237.5999755859</ele>
        <time>2017-10-11T08:07:46.000Z</time>
      </trkpt>
      <trkpt lat="46.33289" lon="6.9919">
        <ele>1239</ele>
        <time>2017-10-11T08:07:55.000Z</time>
      </trkpt>
      <trkpt lat="46.33285" lon="6.99163">
        <ele>1240.4000244141</ele>
        <time>2017-10-11T08:08:04.000Z</time>
      </trkpt>
      <trkpt lat="46.33282" lon="6.99137">
        <ele>1242.8000488281</ele>
        <time>2017-10-11T08:08:13.000Z</time>
      </trkpt>
      <trkpt lat="46.33279" lon="6.9911">
        <ele>1246.4000244141</ele>
        <time>2017-10-11T08:08:22.000Z</time>
      </trkpt>
      <trkpt lat="46.33275" lon="6.99083">
        <ele>1250.4000244141</ele>
        <time>2017-10-11T08:08:31.000Z</time>
      </trkpt>
      <trkpt lat="46.33272" lon="6.99056">
        <ele>1252.1999511719</ele>
        <time>2017-10-11T08:08:40.000Z</time>
      </trkpt>
      <trkpt lat="46.3327" lon="6.99028">
        <ele>1253.8000488281</ele>
        <time>2017-10-11T08:08:50.000Z</time>
      </trkpt>
      <trkpt lat="46.33271" lon="6.99001">
        <ele>1258.4000244141</ele>
        <time>2017-10-11T08:08:58.000Z</time>
      </trkpt>
      <trkpt lat="46.33273" lon="6.98973">
        <ele>1262</ele>
        <time>2017-10-11T08:09:07.000Z</time>
      </trkpt>
      <trkpt lat="46.33277" lon="6.98947">
        <ele>1266.1999511719</ele>
        <time>2017-10-11T08:09:23.000Z</time>
      </trkpt>
      <trkpt lat="46.33278" lon="6.9892">
        <ele>1270.8000488281</ele>
        <time>2017-10-11T08:09:36.000Z</time>
      </trkpt>
      <trkpt lat="46.33281" lon="6.98895">
        <ele>1273.5999755859</ele>
        <time>2017-10-11T08:09:51.000Z</time>
      </trkpt>
      <trkpt lat="46.33281" lon="6.9889">
        <ele>1273.1999511719</ele>
        <time>2017-10-11T08:09:54.000Z</time>
      </trkpt>
      <trkpt lat="46.33281" lon="6.98862">
        <ele>1273.4000244141</ele>
        <time>2017-10-11T08:10:07.000Z</time>
      </trkpt>
      <trkpt lat="46.33284" lon="6.98834">
        <ele>1277.1999511719</ele>
        <time>2017-10-11T08:10:19.000Z</time>
      </trkpt>
      <trkpt lat="46.33288" lon="6.98808">
        <ele>1281.1999511719</ele>
        <time>2017-10-11T08:10:32.000Z</time>
      </trkpt>
      <trkpt lat="46.33291" lon="6.98782">
        <ele>1283.4000244141</ele>
        <time>2017-10-11T08:10:46.000Z</time>
      </trkpt>
      <trkpt lat="46.33295" lon="6.98757">
        <ele>1286.4000244141</ele>
        <time>2017-10-11T08:10:59.000Z</time>
      </trkpt>
      <trkpt lat="46.33296" lon="6.98729">
        <ele>1287.1999511719</ele>
        <time>2017-10-11T08:11:14.000Z</time>
      </trkpt>
      <trkpt lat="46.33296" lon="6.98701">
        <ele>1287</ele>
        <time>2017-10-11T08:11:26.000Z</time>
      </trkpt>
      <trkpt lat="46.333" lon="6.98675">
        <ele>1289.1999511719</ele>
        <time>2017-10-11T08:11:38.000Z</time>
      </trkpt>
      <trkpt lat="46.33304" lon="6.98648">
        <ele>1290.4000244141</ele>
        <time>2017-10-11T08:11:49.000Z</time>
      </trkpt>
      <trkpt lat="46.33312" lon="6.98623">
        <ele>1294.4000244141</ele>
        <time>2017-10-11T08:12:01.000Z</time>
      </trkpt>
      <trkpt lat="46.33324" lon="6.98601">
        <ele>1300.8000488281</ele>
        <time>2017-10-11T08:12:13.000Z</time>
      </trkpt>
      <trkpt lat="46.33332" lon="6.98578">
        <ele>1305.5999755859</ele>
        <time>2017-10-11T08:12:22.000Z</time>
      </trkpt>
      <trkpt lat="46.33334" lon="6.9855">
        <ele>1305.8000488281</ele>
        <time>2017-10-11T08:12:31.000Z</time>
      </trkpt>
      <trkpt lat="46.33332" lon="6.98522">
        <ele>1303.4000244141</ele>
        <time>2017-10-11T08:12:41.000Z</time>
      </trkpt>
      <trkpt lat="46.33331" lon="6.98505">
        <ele>1302</ele>
        <time>2017-10-11T08:12:48.000Z</time>
      </trkpt>
      <trkpt lat="46.33334" lon="6.98504">
        <ele>1304.4000244141</ele>
        <time>2017-10-11T08:12:50.000Z</time>
      </trkpt>
      <trkpt lat="46.3334" lon="6.98508">
        <ele>1309</ele>
        <time>2017-10-11T08:12:55.000Z</time>
      </trkpt>
      <trkpt lat="46.33346" lon="6.98532">
        <ele>1313.8000488281</ele>
        <time>2017-10-11T08:13:10.000Z</time>
      </trkpt>
      <trkpt lat="46.33348" lon="6.98557">
        <ele>1316.5999755859</ele>
        <time>2017-10-11T08:13:25.000Z</time>
      </trkpt>
      <trkpt lat="46.33351" lon="6.98584">
        <ele>1319</ele>
        <time>2017-10-11T08:13:39.000Z</time>
      </trkpt>
      <trkpt lat="46.33352" lon="6.98609">
        <ele>1318.4000244141</ele>
        <time>2017-10-11T08:13:56.000Z</time>
      </trkpt>
      <trkpt lat="46.33348" lon="6.98634">
        <ele>1316.8000488281</ele>
        <time>2017-10-11T08:14:11.000Z</time>
      </trkpt>
      <trkpt lat="46.33348" lon="6.98661">
        <ele>1318.5999755859</ele>
        <time>2017-10-11T08:14:25.000Z</time>
      </trkpt>
      <trkpt lat="46.33348" lon="6.98687">
        <ele>1319</ele>
        <time>2017-10-11T08:14:36.000Z</time>
      </trkpt>
      <trkpt lat="46.33352" lon="6.98713">
        <ele>1322.1999511719</ele>
        <time>2017-10-11T08:14:49.000Z</time>
      </trkpt>
      <trkpt lat="46.33359" lon="6.98738">
        <ele>1326.8000488281</ele>
        <time>2017-10-11T08:15:01.000Z</time>
      </trkpt>
      <trkpt lat="46.33365" lon="6.98763">
        <ele>1329.4000244141</ele>
        <time>2017-10-11T08:15:13.000Z</time>
      </trkpt>
      <trkpt lat="46.33371" lon="6.9879">
        <ele>1330.8000488281</ele>
        <time>2017-10-11T08:15:27.000Z</time>
      </trkpt>
      <trkpt lat="46.33378" lon="6.98815">
        <ele>1334</ele>
        <time>2017-10-11T08:15:41.000Z</time>
      </trkpt>
      <trkpt lat="46.33386" lon="6.98838">
        <ele>1337</ele>
        <time>2017-10-11T08:15:54.000Z</time>
      </trkpt>
      <trkpt lat="46.33396" lon="6.9886">
        <ele>1340.1999511719</ele>
        <time>2017-10-11T08:16:07.000Z</time>
      </trkpt>
      <trkpt lat="46.33407" lon="6.98883">
        <ele>1342.8000488281</ele>
        <time>2017-10-11T08:16:20.000Z</time>
      </trkpt>
      <trkpt lat="46.33419" lon="6.98904">
        <ele>1345.8000488281</ele>
        <time>2017-10-11T08:16:33.000Z</time>
      </trkpt>
      <trkpt lat="46.33431" lon="6.98925">
        <ele>1347</ele>
        <time>2017-10-11T08:16:47.000Z</time>
      </trkpt>
      <trkpt lat="46.33443" lon="6.98942">
        <ele>1348.5999755859</ele>
        <time>2017-10-11T08:17:01.000Z</time>
      </trkpt>
      <trkpt lat="46.33443" lon="6.98939">
        <ele>1349.1999511719</ele>
        <time>2017-10-11T08:17:03.000Z</time>
      </trkpt>
      <trkpt lat="46.33433" lon="6.98915">
        <ele>1349.8000488281</ele>
        <time>2017-10-11T08:17:13.000Z</time>
      </trkpt>
      <trkpt lat="46.33423" lon="6.98893">
        <ele>1348.5999755859</ele>
        <time>2017-10-11T08:17:21.000Z</time>
      </trkpt>
      <trkpt lat="46.33413" lon="6.9887">
        <ele>1346.4000244141</ele>
        <time>2017-10-11T08:17:29.000Z</time>
      </trkpt>
      <trkpt lat="46.33407" lon="6.98844">
        <ele>1346.4000244141</ele>
        <time>2017-10-11T08:17:37.000Z</time>
      </trkpt>
      <trkpt lat="46.33402" lon="6.98818">
        <ele>1346.4000244141</ele>
        <time>2017-10-11T08:17:44.000Z</time>
      </trkpt>
      <trkpt lat="46.334" lon="6.98791">
        <ele>1347.5999755859</ele>
        <time>2017-10-11T08:17:51.000Z</time>
      </trkpt>
      <trkpt lat="46.334" lon="6.98763">
        <ele>1349.8000488281</ele>
        <time>2017-10-11T08:17:59.000Z</time>
      </trkpt>
      <trkpt lat="46.33402" lon="6.98733">
        <ele>1351.8000488281</ele>
        <time>2017-10-11T08:18:07.000Z</time>
      </trkpt>
      <trkpt lat="46.33404" lon="6.98704">
        <ele>1352.1999511719</ele>
        <time>2017-10-11T08:18:15.000Z</time>
      </trkpt>
      <trkpt lat="46.33406" lon="6.98678">
        <ele>1352.4000244141</ele>
        <time>2017-10-11T08:18:22.000Z</time>
      </trkpt>
      <trkpt lat="46.33411" lon="6.9865">
        <ele>1356.5999755859</ele>
        <time>2017-10-11T08:18:30.000Z</time>
      </trkpt>
      <trkpt lat="46.33419" lon="6.98623">
        <ele>1362.4000244141</ele>
        <time>2017-10-11T08:18:39.000Z</time>
      </trkpt>
      <trkpt lat="46.33421" lon="6.98595">
        <ele>1365.4000244141</ele>
        <time>2017-10-11T08:18:49.000Z</time>
      </trkpt>
      <trkpt lat="46.33417" lon="6.98567">
        <ele>1364.5999755859</ele>
        <time>2017-10-11T08:18:59.000Z</time>
      </trkpt>
      <trkpt lat="46.33412" lon="6.98541">
        <ele>1363.1999511719</ele>
        <time>2017-10-11T08:19:08.000Z</time>
      </trkpt>
      <trkpt lat="46.334" lon="6.9852">
        <ele>1356.8000488281</ele>
        <time>2017-10-11T08:19:15.000Z</time>
      </trkpt>
      <trkpt lat="46.3339" lon="6.98496">
        <ele>1351.1999511719</ele>
        <time>2017-10-11T08:19:23.000Z</time>
      </trkpt>
      <trkpt lat="46.33385" lon="6.98471">
        <ele>1347.5999755859</ele>
        <time>2017-10-11T08:19:30.000Z</time>
      </trkpt>
      <trkpt lat="46.33387" lon="6.98445">
        <ele>1349.4000244141</ele>
        <time>2017-10-11T08:19:36.000Z</time>
      </trkpt>
      <trkpt lat="46.33392" lon="6.98416">
        <ele>1353.4000244141</ele>
        <time>2017-10-11T08:19:43.000Z</time>
      </trkpt>
      <trkpt lat="46.33401" lon="6.98391">
        <ele>1360.5999755859</ele>
        <time>2017-10-11T08:19:52.000Z</time>
      </trkpt>
      <trkpt lat="46.33402" lon="6.98387">
        <ele>1361.5999755859</ele>
        <time>2017-10-11T08:19:54.000Z</time>
      </trkpt>
      <trkpt lat="46.33405" lon="6.9836">
        <ele>1365.5999755859</ele>
        <time>2017-10-11T08:20:08.000Z</time>
      </trkpt>
      <trkpt lat="46.33408" lon="6.98334">
        <ele>1369.4000244141</ele>
        <time>2017-10-11T08:20:22.000Z</time>
      </trkpt>
      <trkpt lat="46.33413" lon="6.98308">
        <ele>1371.4000244141</ele>
        <time>2017-10-11T08:20:35.000Z</time>
      </trkpt>
      <trkpt lat="46.33418" lon="6.98282">
        <ele>1374.5999755859</ele>
        <time>2017-10-11T08:20:50.000Z</time>
      </trkpt>
      <trkpt lat="46.33423" lon="6.98256">
        <ele>1376</ele>
        <time>2017-10-11T08:21:03.000Z</time>
      </trkpt>
      <trkpt lat="46.33427" lon="6.9823">
        <ele>1375.1999511719</ele>
        <time>2017-10-11T08:21:18.000Z</time>
      </trkpt>
      <trkpt lat="46.33432" lon="6.98204">
        <ele>1374.4000244141</ele>
        <time>2017-10-11T08:21:31.000Z</time>
      </trkpt>
      <trkpt lat="46.3344" lon="6.9818">
        <ele>1375.5999755859</ele>
        <time>2017-10-11T08:21:42.000Z</time>
      </trkpt>
      <trkpt lat="46.33451" lon="6.98157">
        <ele>1377.8000488281</ele>
        <time>2017-10-11T08:21:55.000Z</time>
      </trkpt>
      <trkpt lat="46.33461" lon="6.98142">
        <ele>1380.5999755859</ele>
        <time>2017-10-11T08:22:06.000Z</time>
      </trkpt>
      <trkpt lat="46.33462" lon="6.98145">
        <ele>1381.4000244141</ele>
        <time>2017-10-11T08:22:08.000Z</time>
      </trkpt>
      <trkpt lat="46.33458" lon="6.9817">
        <ele>1383.1999511719</ele>
        <time>2017-10-11T08:22:21.000Z</time>
      </trkpt>
      <trkpt lat="46.33458" lon="6.98197">
        <ele>1386.8000488281</ele>
        <time>2017-10-11T08:22:33.000Z</time>
      </trkpt>
      <trkpt lat="46.33459" lon="6.98225">
        <ele>1390.8000488281</ele>
        <time>2017-10-11T08:22:48.000Z</time>
      </trkpt>
      <trkpt lat="46.33463" lon="6.98251">
        <ele>1396.1999511719</ele>
        <time>2017-10-11T08:23:01.000Z</time>
      </trkpt>
      <trkpt lat="46.33465" lon="6.98279">
        <ele>1400.4000244141</ele>
        <time>2017-10-11T08:23:15.000Z</time>
      </trkpt>
      <trkpt lat="46.33461" lon="6.98306">
        <ele>1401.8000488281</ele>
        <time>2017-10-11T08:23:27.000Z</time>
      </trkpt>
      <trkpt lat="46.33462" lon="6.98332">
        <ele>1402.5999755859</ele>
        <time>2017-10-11T08:23:41.000Z</time>
      </trkpt>
      <trkpt lat="46.33463" lon="6.98359">
        <ele>1404.8000488281</ele>
        <time>2017-10-11T08:23:54.000Z</time>
      </trkpt>
      <trkpt lat="46.33467" lon="6.98386">
        <ele>1409</ele>
        <time>2017-10-11T08:24:08.000Z</time>
      </trkpt>
      <trkpt lat="46.33471" lon="6.98412">
        <ele>1411.4000244141</ele>
        <time>2017-10-11T08:24:21.000Z</time>
      </trkpt>
      <trkpt lat="46.3347" lon="6.98438">
        <ele>1410</ele>
        <time>2017-10-11T08:24:35.000Z</time>
      </trkpt>
      <trkpt lat="46.33472" lon="6.98444">
        <ele>1411.4000244141</ele>
        <time>2017-10-11T08:24:39.000Z</time>
      </trkpt>
      <trkpt lat="46.33477" lon="6.9844">
        <ele>1415.4000244141</ele>
        <time>2017-10-11T08:24:46.000Z</time>
      </trkpt>
      <trkpt lat="46.33481" lon="6.98412">
        <ele>1419.1999511719</ele>
        <time>2017-10-11T08:25:00.000Z</time>
      </trkpt>
      <trkpt lat="46.33486" lon="6.98386">
        <ele>1420.8000488281</ele>
        <time>2017-10-11T08:25:15.000Z</time>
      </trkpt>
      <trkpt lat="46.33491" lon="6.98359">
        <ele>1422</ele>
        <time>2017-10-11T08:25:28.000Z</time>
      </trkpt>
      <trkpt lat="46.33497" lon="6.98334">
        <ele>1424.1999511719</ele>
        <time>2017-10-11T08:25:41.000Z</time>
      </trkpt>
      <trkpt lat="46.33506" lon="6.98311">
        <ele>1426.8000488281</ele>
        <time>2017-10-11T08:25:55.000Z</time>
      </trkpt>
      <trkpt lat="46.33517" lon="6.98291">
        <ele>1430.5999755859</ele>
        <time>2017-10-11T08:26:08.000Z</time>
      </trkpt>
      <trkpt lat="46.33526" lon="6.98267">
        <ele>1431.8000488281</ele>
        <time>2017-10-11T08:26:22.000Z</time>
      </trkpt>
      <trkpt lat="46.33533" lon="6.98243">
        <ele>1432</ele>
        <time>2017-10-11T08:26:36.000Z</time>
      </trkpt>
      <trkpt lat="46.33536" lon="6.98247">
        <ele>1434</ele>
        <time>2017-10-11T08:26:41.000Z</time>
      </trkpt>
      <trkpt lat="46.33538" lon="6.98273">
        <ele>1439.4000244141</ele>
        <time>2017-10-11T08:26:55.000Z</time>
      </trkpt>
      <trkpt lat="46.33539" lon="6.98301">
        <ele>1443.8000488281</ele>
        <time>2017-10-11T08:27:10.000Z</time>
      </trkpt>
      <trkpt lat="46.33538" lon="6.98327">
        <ele>1446.4000244141</ele>
        <time>2017-10-11T08:27:22.000Z</time>
      </trkpt>
      <trkpt lat="46.33538" lon="6.98354">
        <ele>1448.8000488281</ele>
        <time>2017-10-11T08:27:35.000Z</time>
      </trkpt>
      <trkpt lat="46.33538" lon="6.98382">
        <ele>1451</ele>
        <time>2017-10-11T08:27:49.000Z</time>
      </trkpt>
      <trkpt lat="46.33539" lon="6.98409">
        <ele>1453.1999511719</ele>
        <time>2017-10-11T08:28:01.000Z</time>
      </trkpt>
      <trkpt lat="46.33537" lon="6.98435">
        <ele>1454.1999511719</ele>
        <time>2017-10-11T08:28:15.000Z</time>
      </trkpt>
      <trkpt lat="46.3354" lon="6.98462">
        <ele>1457.4000244141</ele>
        <time>2017-10-11T08:28:31.000Z</time>
      </trkpt>
      <trkpt lat="46.33548" lon="6.98487">
        <ele>1462.8000488281</ele>
        <time>2017-10-11T08:28:46.000Z</time>
      </trkpt>
      <trkpt lat="46.33555" lon="6.98512">
        <ele>1464</ele>
        <time>2017-10-11T08:29:00.000Z</time>
      </trkpt>
      <trkpt lat="46.33566" lon="6.98534">
        <ele>1468</ele>
        <time>2017-10-11T08:29:14.000Z</time>
      </trkpt>
      <trkpt lat="46.33577" lon="6.98555">
        <ele>1470.5999755859</ele>
        <time>2017-10-11T08:29:26.000Z</time>
      </trkpt>
      <trkpt lat="46.33586" lon="6.98578">
        <ele>1472.4000244141</ele>
        <time>2017-10-11T08:29:38.000Z</time>
      </trkpt>
      <trkpt lat="46.33595" lon="6.98601">
        <ele>1472.1999511719</ele>
        <time>2017-10-11T08:29:50.000Z</time>
      </trkpt>
      <trkpt lat="46.33604" lon="6.98626">
        <ele>1472.1999511719</ele>
        <time>2017-10-11T08:30:02.000Z</time>
      </trkpt>
      <trkpt lat="46.33611" lon="6.9865">
        <ele>1471.4000244141</ele>
        <time>2017-10-11T08:30:11.000Z</time>
      </trkpt>
      <trkpt lat="46.33623" lon="6.98671">
        <ele>1473.4000244141</ele>
        <time>2017-10-11T08:30:21.000Z</time>
      </trkpt>
      <trkpt lat="46.33639" lon="6.98687">
        <ele>1478.5999755859</ele>
        <time>2017-10-11T08:30:35.000Z</time>
      </trkpt>
      <trkpt lat="46.33653" lon="6.98703">
        <ele>1482.1999511719</ele>
        <time>2017-10-11T08:30:51.000Z</time>
      </trkpt>
      <trkpt lat="46.33669" lon="6.98718">
        <ele>1485.4000244141</ele>
        <time>2017-10-11T08:31:06.000Z</time>
      </trkpt>
      <trkpt lat="46.33683" lon="6.98735">
        <ele>1487.5999755859</ele>
        <time>2017-10-11T08:31:22.000Z</time>
      </trkpt>
      <trkpt lat="46.337" lon="6.98747">
        <ele>1491.4000244141</ele>
        <time>2017-10-11T08:31:37.000Z</time>
      </trkpt>
      <trkpt lat="46.33718" lon="6.98754">
        <ele>1497.1999511719</ele>
        <time>2017-10-11T08:31:51.000Z</time>
      </trkpt>
      <trkpt lat="46.33736" lon="6.98761">
        <ele>1502.5999755859</ele>
        <time>2017-10-11T08:32:07.000Z</time>
      </trkpt>
      <trkpt lat="46.33752" lon="6.98767">
        <ele>1506.4000244141</ele>
        <time>2017-10-11T08:32:22.000Z</time>
      </trkpt>
      <trkpt lat="46.33759" lon="6.98768">
        <ele>1508.5999755859</ele>
        <time>2017-10-11T08:32:29.000Z</time>
      </trkpt>
      <trkpt lat="46.33761" lon="6.98767">
        <ele>1509.5999755859</ele>
        <time>2017-10-11T08:32:32.000Z</time>
      </trkpt>
      <trkpt lat="46.33761" lon="6.98766">
        <ele>1510</ele>
        <time>2017-10-11T08:32:34.000Z</time>
      </trkpt>
      <trkpt lat="46.33761" lon="6.98764">
        <ele>1510.5999755859</ele>
        <time>2017-10-11T08:32:36.000Z</time>
      </trkpt>
      <trkpt lat="46.33749" lon="6.98748">
        <ele>1512.1999511719</ele>
        <time>2017-10-11T08:32:55.000Z</time>
      </trkpt>
      <trkpt lat="46.33736" lon="6.98728">
        <ele>1515.1999511719</ele>
        <time>2017-10-11T08:33:11.000Z</time>
      </trkpt>
      <trkpt lat="46.33726" lon="6.98705">
        <ele>1519</ele>
        <time>2017-10-11T08:33:27.000Z</time>
      </trkpt>
      <trkpt lat="46.33714" lon="6.98685">
        <ele>1520.1999511719</ele>
        <time>2017-10-11T08:33:43.000Z</time>
      </trkpt>
      <trkpt lat="46.33701" lon="6.98666">
        <ele>1519.4000244141</ele>
        <time>2017-10-11T08:33:58.000Z</time>
      </trkpt>
      <trkpt lat="46.33691" lon="6.98642">
        <ele>1521</ele>
        <time>2017-10-11T08:34:13.000Z</time>
      </trkpt>
      <trkpt lat="46.33682" lon="6.98619">
        <ele>1521</ele>
        <time>2017-10-11T08:34:26.000Z</time>
      </trkpt>
      <trkpt lat="46.33673" lon="6.98595">
        <ele>1521</ele>
        <time>2017-10-11T08:34:39.000Z</time>
      </trkpt>
      <trkpt lat="46.33667" lon="6.98571">
        <ele>1521.4000244141</ele>
        <time>2017-10-11T08:34:52.000Z</time>
      </trkpt>
      <trkpt lat="46.33671" lon="6.98545">
        <ele>1526.5999755859</ele>
        <time>2017-10-11T08:35:04.000Z</time>
      </trkpt>
      <trkpt lat="46.33676" lon="6.9852">
        <ele>1532.4000244141</ele>
        <time>2017-10-11T08:35:16.000Z</time>
      </trkpt>
      <trkpt lat="46.33683" lon="6.98501">
        <ele>1530.5999755859</ele>
        <time>2017-10-11T08:35:27.000Z</time>
      </trkpt>
      <trkpt lat="46.33694" lon="6.98478">
        <ele>1528.5999755859</ele>
        <time>2017-10-11T08:35:41.000Z</time>
      </trkpt>
      <trkpt lat="46.33696" lon="6.98469">
        <ele>1527.5999755859</ele>
        <time>2017-10-11T08:35:47.000Z</time>
      </trkpt>
      <trkpt lat="46.33709" lon="6.98454">
        <ele>1522.8000488281</ele>
        <time>2017-10-11T08:36:04.000Z</time>
      </trkpt>
      <trkpt lat="46.33727" lon="6.98453">
        <ele>1520.5999755859</ele>
        <time>2017-10-11T08:36:19.000Z</time>
      </trkpt>
      <trkpt lat="46.33746" lon="6.98462">
        <ele>1518.5999755859</ele>
        <time>2017-10-11T08:36:34.000Z</time>
      </trkpt>
      <trkpt lat="46.33758" lon="6.98481">
        <ele>1522.8000488281</ele>
        <time>2017-10-11T08:36:46.000Z</time>
      </trkpt>
      <trkpt lat="46.33766" lon="6.98505">
        <ele>1530.8000488281</ele>
        <time>2017-10-11T08:37:01.000Z</time>
      </trkpt>
      <trkpt lat="46.33774" lon="6.98529">
        <ele>1539</ele>
        <time>2017-10-11T08:37:15.000Z</time>
      </trkpt>
      <trkpt lat="46.33777" lon="6.98555">
        <ele>1544.5999755859</ele>
        <time>2017-10-11T08:37:28.000Z</time>
      </trkpt>
      <trkpt lat="46.33779" lon="6.98583">
        <ele>1548.4000244141</ele>
        <time>2017-10-11T08:37:42.000Z</time>
      </trkpt>
      <trkpt lat="46.3379" lon="6.98606">
        <ele>1549.8000488281</ele>
        <time>2017-10-11T08:37:51.000Z</time>
      </trkpt>
      <trkpt lat="46.33802" lon="6.98627">
        <ele>1551</ele>
        <time>2017-10-11T08:38:00.000Z</time>
      </trkpt>
      <trkpt lat="46.33817" lon="6.98642">
        <ele>1551.8000488281</ele>
        <time>2017-10-11T08:38:09.000Z</time>
      </trkpt>
      <trkpt lat="46.33836" lon="6.98641">
        <ele>1553</ele>
        <time>2017-10-11T08:38:16.000Z</time>
      </trkpt>
      <trkpt lat="46.33855" lon="6.98642">
        <ele>1554</ele>
        <time>2017-10-11T08:38:23.000Z</time>
      </trkpt>
      <trkpt lat="46.33874" lon="6.98649">
        <ele>1555.8000488281</ele>
        <time>2017-10-11T08:38:31.000Z</time>
      </trkpt>
      <trkpt lat="46.33892" lon="6.98657">
        <ele>1557.5999755859</ele>
        <time>2017-10-11T08:38:40.000Z</time>
      </trkpt>
      <trkpt lat="46.33907" lon="6.98672">
        <ele>1557.1999511719</ele>
        <time>2017-10-11T08:38:49.000Z</time>
      </trkpt>
      <trkpt lat="46.33925" lon="6.98685">
        <ele>1556</ele>
        <time>2017-10-11T08:38:59.000Z</time>
      </trkpt>
      <trkpt lat="46.33943" lon="6.98694">
        <ele>1553.4000244141</ele>
        <time>2017-10-11T08:39:10.000Z</time>
      </trkpt>
      <trkpt lat="46.3396" lon="6.98709">
        <ele>1552</ele>
        <time>2017-10-11T08:39:19.000Z</time>
      </trkpt>
      <trkpt lat="46.33977" lon="6.98717">
        <ele>1549.4000244141</ele>
        <time>2017-10-11T08:39:27.000Z</time>
      </trkpt>
      <trkpt lat="46.33994" lon="6.98726">
        <ele>1550.5999755859</ele>
        <time>2017-10-11T08:39:34.000Z</time>
      </trkpt>
      <trkpt lat="46.34012" lon="6.98738">
        <ele>1553</ele>
        <time>2017-10-11T08:39:41.000Z</time>
      </trkpt>
      <trkpt lat="46.34027" lon="6.98753">
        <ele>1554.4000244141</ele>
        <time>2017-10-11T08:39:48.000Z</time>
      </trkpt>
      <trkpt lat="46.34043" lon="6.98768">
        <ele>1555.5999755859</ele>
        <time>2017-10-11T08:39:57.000Z</time>
      </trkpt>
      <trkpt lat="46.34058" lon="6.98784">
        <ele>1556.8000488281</ele>
        <time>2017-10-11T08:40:10.000Z</time>
      </trkpt>
      <trkpt lat="46.34071" lon="6.98803">
        <ele>1558.4000244141</ele>
        <time>2017-10-11T08:40:23.000Z</time>
      </trkpt>
      <trkpt lat="46.3408" lon="6.98826">
        <ele>1560.4000244141</ele>
        <time>2017-10-11T08:40:36.000Z</time>
      </trkpt>
      <trkpt lat="46.34092" lon="6.98846">
        <ele>1564.1999511719</ele>
        <time>2017-10-11T08:40:50.000Z</time>
      </trkpt>
      <trkpt lat="46.34101" lon="6.98869">
        <ele>1568</ele>
        <time>2017-10-11T08:41:04.000Z</time>
      </trkpt>
      <trkpt lat="46.34116" lon="6.98884">
        <ele>1571.8000488281</ele>
        <time>2017-10-11T08:41:19.000Z</time>
      </trkpt>
      <trkpt lat="46.34134" lon="6.98891">
        <ele>1575.1999511719</ele>
        <time>2017-10-11T08:41:32.000Z</time>
      </trkpt>
      <trkpt lat="46.34152" lon="6.98898">
        <ele>1577.8000488281</ele>
        <time>2017-10-11T08:41:50.000Z</time>
      </trkpt>
      <trkpt lat="46.3417" lon="6.98905">
        <ele>1577.5999755859</ele>
        <time>2017-10-11T08:42:06.000Z</time>
      </trkpt>
      <trkpt lat="46.34185" lon="6.98922">
        <ele>1576.8000488281</ele>
        <time>2017-10-11T08:42:19.000Z</time>
      </trkpt>
      <trkpt lat="46.34203" lon="6.9893">
        <ele>1575.8000488281</ele>
        <time>2017-10-11T08:42:32.000Z</time>
      </trkpt>
      <trkpt lat="46.34218" lon="6.98944">
        <ele>1574.8000488281</ele>
        <time>2017-10-11T08:42:40.000Z</time>
      </trkpt>
      <trkpt lat="46.34231" lon="6.98964">
        <ele>1573.5999755859</ele>
        <time>2017-10-11T08:42:47.000Z</time>
      </trkpt>
      <trkpt lat="46.34249" lon="6.98962">
        <ele>1575.4000244141</ele>
        <time>2017-10-11T08:42:54.000Z</time>
      </trkpt>
      <trkpt lat="46.34263" lon="6.98942">
        <ele>1577.4000244141</ele>
        <time>2017-10-11T08:43:02.000Z</time>
      </trkpt>
      <trkpt lat="46.34277" lon="6.98924">
        <ele>1576.8000488281</ele>
        <time>2017-10-11T08:43:10.000Z</time>
      </trkpt>
      <trkpt lat="46.34291" lon="6.98905">
        <ele>1576.5999755859</ele>
        <time>2017-10-11T08:43:18.000Z</time>
      </trkpt>
      <trkpt lat="46.34303" lon="6.98892">
        <ele>1576.8000488281</ele>
        <time>2017-10-11T08:43:27.000Z</time>
      </trkpt>
      <trkpt lat="46.34313" lon="6.98913">
        <ele>1577.1999511719</ele>
        <time>2017-10-11T08:43:39.000Z</time>
      </trkpt>
      <trkpt lat="46.34325" lon="6.98934">
        <ele>1581</ele>
        <time>2017-10-11T08:43:52.000Z</time>
      </trkpt>
      <trkpt lat="46.34335" lon="6.98957">
        <ele>1584.1999511719</ele>
        <time>2017-10-11T08:44:06.000Z</time>
      </trkpt>
      <trkpt lat="46.34343" lon="6.98981">
        <ele>1587.4000244141</ele>
        <time>2017-10-11T08:44:20.000Z</time>
      </trkpt>
      <trkpt lat="46.3435" lon="6.99006">
        <ele>1589.8000488281</ele>
        <time>2017-10-11T08:44:34.000Z</time>
      </trkpt>
      <trkpt lat="46.34351" lon="6.99027">
        <ele>1590.1999511719</ele>
        <time>2017-10-11T08:44:47.000Z</time>
      </trkpt>
      <trkpt lat="46.34347" lon="6.99051">
        <ele>1591.5999755859</ele>
        <time>2017-10-11T08:45:00.000Z</time>
      </trkpt>
      <trkpt lat="46.34339" lon="6.99075">
        <ele>1592.4000244141</ele>
        <time>2017-10-11T08:45:14.000Z</time>
      </trkpt>
      <trkpt lat="46.34328" lon="6.99097">
        <ele>1592.8000488281</ele>
        <time>2017-10-11T08:45:26.000Z</time>
      </trkpt>
      <trkpt lat="46.34324" lon="6.99122">
        <ele>1593</ele>
        <time>2017-10-11T08:45:40.000Z</time>
      </trkpt>
      <trkpt lat="46.34325" lon="6.99127">
        <ele>1593.4000244141</ele>
        <time>2017-10-11T08:45:45.000Z</time>
      </trkpt>
      <trkpt lat="46.34326" lon="6.99129">
        <ele>1593.5999755859</ele>
        <time>2017-10-11T08:45:47.000Z</time>
      </trkpt>
      <trkpt lat="46.3433" lon="6.99133">
        <ele>1595</ele>
        <time>2017-10-11T08:45:54.000Z</time>
      </trkpt>
      <trkpt lat="46.34334" lon="6.99132">
        <ele>1596</ele>
        <time>2017-10-11T08:45:58.000Z</time>
      </trkpt>
      <trkpt lat="46.3434" lon="6.99131">
        <ele>1597.5999755859</ele>
        <time>2017-10-11T08:46:03.000Z</time>
      </trkpt>
      <trkpt lat="46.34347" lon="6.99128">
        <ele>1599.1999511719</ele>
        <time>2017-10-11T08:46:09.000Z</time>
      </trkpt>
      <trkpt lat="46.34365" lon="6.99122">
        <ele>1603.1999511719</ele>
        <time>2017-10-11T08:46:26.000Z</time>
      </trkpt>
      <trkpt lat="46.34372" lon="6.99122">
        <ele>1604.5999755859</ele>
        <time>2017-10-11T08:46:33.000Z</time>
      </trkpt>
      <trkpt lat="46.34374" lon="6.99125">
        <ele>1605.1999511719</ele>
        <time>2017-10-11T08:46:35.000Z</time>
      </trkpt>
      <trkpt lat="46.34375" lon="6.99142">
        <ele>1607.4000244141</ele>
        <time>2017-10-11T08:46:44.000Z</time>
      </trkpt>
      <trkpt lat="46.34378" lon="6.99169">
        <ele>1610.4000244141</ele>
        <time>2017-10-11T08:47:00.000Z</time>
      </trkpt>
      <trkpt lat="46.34381" lon="6.99184">
        <ele>1613.4000244141</ele>
        <time>2017-10-11T08:47:09.000Z</time>
      </trkpt>
      <trkpt lat="46.34386" lon="6.9921">
        <ele>1618.4000244141</ele>
        <time>2017-10-11T08:47:25.000Z</time>
      </trkpt>
      <trkpt lat="46.34393" lon="6.99233">
        <ele>1623.5999755859</ele>
        <time>2017-10-11T08:47:40.000Z</time>
      </trkpt>
      <trkpt lat="46.34405" lon="6.99232">
        <ele>1628.1999511719</ele>
        <time>2017-10-11T08:47:50.000Z</time>
      </trkpt>
      <trkpt lat="46.3441" lon="6.99228">
        <ele>1629.8000488281</ele>
        <time>2017-10-11T08:47:56.000Z</time>
      </trkpt>
      <trkpt lat="46.3442" lon="6.9922">
        <ele>1633.4000244141</ele>
        <time>2017-10-11T08:48:07.000Z</time>
      </trkpt>
      <trkpt lat="46.34435" lon="6.99217">
        <ele>1639.8000488281</ele>
        <time>2017-10-11T08:48:20.000Z</time>
      </trkpt>
      <trkpt lat="46.34443" lon="6.99214">
        <ele>1643.4000244141</ele>
        <time>2017-10-11T08:48:28.000Z</time>
      </trkpt>
      <trkpt lat="46.34451" lon="6.99217">
        <ele>1647.4000244141</ele>
        <time>2017-10-11T08:48:36.000Z</time>
      </trkpt>
      <trkpt lat="46.34453" lon="6.99216">
        <ele>1648.1999511719</ele>
        <time>2017-10-11T08:48:38.000Z</time>
      </trkpt>
      <trkpt lat="46.34468" lon="6.992">
        <ele>1652.8000488281</ele>
        <time>2017-10-11T08:48:53.000Z</time>
      </trkpt>
      <trkpt lat="46.34484" lon="6.99189">
        <ele>1658.4000244141</ele>
        <time>2017-10-11T08:49:07.000Z</time>
      </trkpt>
      <trkpt lat="46.34501" lon="6.99178">
        <ele>1665.4000244141</ele>
        <time>2017-10-11T08:49:22.000Z</time>
      </trkpt>
      <trkpt lat="46.34505" lon="6.99178">
        <ele>1667.4000244141</ele>
        <time>2017-10-11T08:49:28.000Z</time>
      </trkpt>
      <trkpt lat="46.34506" lon="6.99167">
        <ele>1665.5999755859</ele>
        <time>2017-10-11T08:49:40.000Z</time>
      </trkpt>
      <trkpt lat="46.34516" lon="6.99144">
        <ele>1667.1999511719</ele>
        <time>2017-10-11T08:49:54.000Z</time>
      </trkpt>
      <trkpt lat="46.34528" lon="6.99124">
        <ele>1670</ele>
        <time>2017-10-11T08:50:10.000Z</time>
      </trkpt>
      <trkpt lat="46.3454" lon="6.99102">
        <ele>1672.8000488281</ele>
        <time>2017-10-11T08:50:28.000Z</time>
      </trkpt>
      <trkpt lat="46.3455" lon="6.99081">
        <ele>1675</ele>
        <time>2017-10-11T08:50:46.000Z</time>
      </trkpt>
      <trkpt lat="46.34561" lon="6.99059">
        <ele>1677.4000244141</ele>
        <time>2017-10-11T08:51:03.000Z</time>
      </trkpt>
      <trkpt lat="46.34566" lon="6.99047">
        <ele>1677.5999755859</ele>
        <time>2017-10-11T08:51:13.000Z</time>
      </trkpt>
      <trkpt lat="46.34568" lon="6.99046">
        <ele>1677.8000488281</ele>
        <time>2017-10-11T08:51:15.000Z</time>
      </trkpt>
      <trkpt lat="46.34576" lon="6.99021">
        <ele>1677</ele>
        <time>2017-10-11T08:51:36.000Z</time>
      </trkpt>
      <trkpt lat="46.34593" lon="6.99026">
        <ele>1683.4000244141</ele>
        <time>2017-10-11T08:51:57.000Z</time>
      </trkpt>
      <trkpt lat="46.34608" lon="6.99029">
        <ele>1687.4000244141</ele>
        <time>2017-10-11T08:52:14.000Z</time>
      </trkpt>
      <trkpt lat="46.3461" lon="6.99027">
        <ele>1687.1999511719</ele>
        <time>2017-10-11T08:52:17.000Z</time>
      </trkpt>
      <trkpt lat="46.34614" lon="6.99027">
        <ele>1687.8000488281</ele>
        <time>2017-10-11T08:52:23.000Z</time>
      </trkpt>
      <trkpt lat="46.34615" lon="6.99027">
        <ele>1688</ele>
        <time>2017-10-11T08:52:25.000Z</time>
      </trkpt>
      <trkpt lat="46.34616" lon="6.99028">
        <ele>1688.4000244141</ele>
        <time>2017-10-11T08:52:28.000Z</time>
      </trkpt>
      <trkpt lat="46.3463" lon="6.99032">
        <ele>1691.5999755859</ele>
        <time>2017-10-11T08:52:53.000Z</time>
      </trkpt>
      <trkpt lat="46.34634" lon="6.99032">
        <ele>1692.1999511719</ele>
        <time>2017-10-11T08:52:57.000Z</time>
      </trkpt>
      <trkpt lat="46.34638" lon="6.99032">
        <ele>1692.8000488281</ele>
        <time>2017-10-11T08:53:03.000Z</time>
      </trkpt>
      <trkpt lat="46.34648" lon="6.99052">
        <ele>1700.5999755859</ele>
        <time>2017-10-11T08:53:27.000Z</time>
      </trkpt>
      <trkpt lat="46.34657" lon="6.99074">
        <ele>1706.1999511719</ele>
        <time>2017-10-11T08:53:57.000Z</time>
      </trkpt>
      <trkpt lat="46.34668" lon="6.99096">
        <ele>1713.8000488281</ele>
        <time>2017-10-11T08:54:22.000Z</time>
      </trkpt>
      <trkpt lat="46.34671" lon="6.99114">
        <ele>1718.1999511719</ele>
        <time>2017-10-11T08:54:41.000Z</time>
      </trkpt>
      <trkpt lat="46.34671" lon="6.99117">
        <ele>1718.5999755859</ele>
        <time>2017-10-11T08:54:44.000Z</time>
      </trkpt>
      <trkpt lat="46.34671" lon="6.99122">
        <ele>1719.8000488281</ele>
        <time>2017-10-11T08:54:48.000Z</time>
      </trkpt>
      <trkpt lat="46.34671" lon="6.99124">
        <ele>1720.1999511719</ele>
        <time>2017-10-11T08:54:49.000Z</time>
      </trkpt>
      <trkpt lat="46.34667" lon="6.99141">
        <ele>1724</ele>
        <time>2017-10-11T08:55:01.000Z</time>
      </trkpt>
      <trkpt lat="46.34663" lon="6.99158">
        <ele>1727.8000488281</ele>
        <time>2017-10-11T08:55:14.000Z</time>
      </trkpt>
      <trkpt lat="46.34664" lon="6.99186">
        <ele>1735.5999755859</ele>
        <time>2017-10-11T08:55:31.000Z</time>
      </trkpt>
      <trkpt lat="46.34666" lon="6.99208">
        <ele>1741.5999755859</ele>
        <time>2017-10-11T08:55:45.000Z</time>
      </trkpt>
      <trkpt lat="46.34667" lon="6.99219">
        <ele>1744.4000244141</ele>
        <time>2017-10-11T08:55:52.000Z</time>
      </trkpt>
      <trkpt lat="46.34665" lon="6.99238">
        <ele>1749</ele>
        <time>2017-10-11T08:56:01.000Z</time>
      </trkpt>
      <trkpt lat="46.34664" lon="6.99264">
        <ele>1756.1999511719</ele>
        <time>2017-10-11T08:56:16.000Z</time>
      </trkpt>
      <trkpt lat="46.34659" lon="6.9929">
        <ele>1761.8000488281</ele>
        <time>2017-10-11T08:56:30.000Z</time>
      </trkpt>
      <trkpt lat="46.3465" lon="6.99314">
        <ele>1766.5999755859</ele>
        <time>2017-10-11T08:56:45.000Z</time>
      </trkpt>
      <trkpt lat="46.34639" lon="6.99334">
        <ele>1766.8000488281</ele>
        <time>2017-10-11T08:57:01.000Z</time>
      </trkpt>
      <trkpt lat="46.34629" lon="6.99357">
        <ele>1767</ele>
        <time>2017-10-11T08:57:14.000Z</time>
      </trkpt>
      <trkpt lat="46.34617" lon="6.99378">
        <ele>1765.4000244141</ele>
        <time>2017-10-11T08:57:28.000Z</time>
      </trkpt>
      <trkpt lat="46.3461" lon="6.99402">
        <ele>1767.8000488281</ele>
        <time>2017-10-11T08:57:42.000Z</time>
      </trkpt>
      <trkpt lat="46.34611" lon="6.99429">
        <ele>1771.8000488281</ele>
        <time>2017-10-11T08:57:59.000Z</time>
      </trkpt>
      <trkpt lat="46.34619" lon="6.99446">
        <ele>1777.8000488281</ele>
        <time>2017-10-11T08:58:16.000Z</time>
      </trkpt>
      <trkpt lat="46.34621" lon="6.99443">
        <ele>1778.4000244141</ele>
        <time>2017-10-11T08:58:21.000Z</time>
      </trkpt>
      <trkpt lat="46.3463" lon="6.9942">
        <ele>1780</ele>
        <time>2017-10-11T08:58:41.000Z</time>
      </trkpt>
      <trkpt lat="46.3464" lon="6.99405">
        <ele>1782.8000488281</ele>
        <time>2017-10-11T08:59:00.000Z</time>
      </trkpt>
      <trkpt lat="46.34652" lon="6.99384">
        <ele>1782.8000488281</ele>
        <time>2017-10-11T08:59:20.000Z</time>
      </trkpt>
      <trkpt lat="46.34669" lon="6.99377">
        <ele>1785.1999511719</ele>
        <time>2017-10-11T08:59:37.000Z</time>
      </trkpt>
      <trkpt lat="46.3468" lon="6.99381">
        <ele>1788.8000488281</ele>
        <time>2017-10-11T08:59:51.000Z</time>
      </trkpt>
      <trkpt lat="46.34684" lon="6.99386">
        <ele>1790.5999755859</ele>
        <time>2017-10-11T08:59:55.000Z</time>
      </trkpt>
      <trkpt lat="46.34686" lon="6.99391">
        <ele>1792</ele>
        <time>2017-10-11T08:59:59.000Z</time>
      </trkpt>
      <trkpt lat="46.34696" lon="6.99413">
        <ele>1798.5999755859</ele>
        <time>2017-10-11T09:00:16.000Z</time>
      </trkpt>
      <trkpt lat="46.34696" lon="6.99415">
        <ele>1798.8000488281</ele>
        <time>2017-10-11T09:00:17.000Z</time>
      </trkpt>
      <trkpt lat="46.34705" lon="6.99438">
        <ele>1803.4000244141</ele>
        <time>2017-10-11T09:00:35.000Z</time>
      </trkpt>
      <trkpt lat="46.34716" lon="6.99446">
        <ele>1806.8000488281</ele>
        <time>2017-10-11T09:00:47.000Z</time>
      </trkpt>
      <trkpt lat="46.34735" lon="6.99447">
        <ele>1810.1999511719</ele>
        <time>2017-10-11T09:01:15.000Z</time>
      </trkpt>
      <trkpt lat="46.3475" lon="6.99462">
        <ele>1812.4000244141</ele>
        <time>2017-10-11T09:01:35.000Z</time>
      </trkpt>
      <trkpt lat="46.34762" lon="6.99482">
        <ele>1815</ele>
        <time>2017-10-11T09:01:49.000Z</time>
      </trkpt>
      <trkpt lat="46.34776" lon="6.99499">
        <ele>1818</ele>
        <time>2017-10-11T09:02:02.000Z</time>
      </trkpt>
      <trkpt lat="46.34789" lon="6.99507">
        <ele>1820.1999511719</ele>
        <time>2017-10-11T09:02:16.000Z</time>
      </trkpt>
      <trkpt lat="46.34796" lon="6.99511">
        <ele>1821.4000244141</ele>
        <time>2017-10-11T09:02:23.000Z</time>
      </trkpt>
      <trkpt lat="46.34804" lon="6.99511">
        <ele>1821.5999755859</ele>
        <time>2017-10-11T09:02:34.000Z</time>
      </trkpt>
      <trkpt lat="46.34806" lon="6.99513">
        <ele>1822.1999511719</ele>
        <time>2017-10-11T09:02:38.000Z</time>
      </trkpt>
      <trkpt lat="46.34808" lon="6.99514">
        <ele>1822.4000244141</ele>
        <time>2017-10-11T09:02:41.000Z</time>
      </trkpt>
      <trkpt lat="46.34809" lon="6.99516">
        <ele>1822.8000488281</ele>
        <time>2017-10-11T09:02:43.000Z</time>
      </trkpt>
      <trkpt lat="46.34814" lon="6.99519">
        <ele>1823.5999755859</ele>
        <time>2017-10-11T09:02:50.000Z</time>
      </trkpt>
      <trkpt lat="46.34815" lon="6.9952">
        <ele>1823.8000488281</ele>
        <time>2017-10-11T09:02:53.000Z</time>
      </trkpt>
      <trkpt lat="46.34825" lon="6.99527">
        <ele>1823.4000244141</ele>
        <time>2017-10-11T09:03:06.000Z</time>
      </trkpt>
      <trkpt lat="46.34827" lon="6.99527">
        <ele>1823.1999511719</ele>
        <time>2017-10-11T09:03:09.000Z</time>
      </trkpt>
      <trkpt lat="46.34843" lon="6.99536">
        <ele>1822.1999511719</ele>
        <time>2017-10-11T09:03:36.000Z</time>
      </trkpt>
      <trkpt lat="46.34845" lon="6.99537">
        <ele>1822.1999511719</ele>
        <time>2017-10-11T09:03:38.000Z</time>
      </trkpt>
      <trkpt lat="46.34846" lon="6.99539">
        <ele>1822.4000244141</ele>
        <time>2017-10-11T09:03:40.000Z</time>
      </trkpt>
      <trkpt lat="46.34849" lon="6.99543">
        <ele>1822.8000488281</ele>
        <time>2017-10-11T09:03:43.000Z</time>
      </trkpt>
      <trkpt lat="46.34864" lon="6.99559">
        <ele>1823.4000244141</ele>
        <time>2017-10-11T09:03:58.000Z</time>
      </trkpt>
      <trkpt lat="46.34879" lon="6.99576">
        <ele>1824.1999511719</ele>
        <time>2017-10-11T09:04:16.000Z</time>
      </trkpt>
      <trkpt lat="46.34895" lon="6.9959">
        <ele>1823</ele>
        <time>2017-10-11T09:04:33.000Z</time>
      </trkpt>
      <trkpt lat="46.34909" lon="6.99606">
        <ele>1822.8000488281</ele>
        <time>2017-10-11T09:04:51.000Z</time>
      </trkpt>
      <trkpt lat="46.34926" lon="6.99612">
        <ele>1821.1999511719</ele>
        <time>2017-10-11T09:05:05.000Z</time>
      </trkpt>
      <trkpt lat="46.34942" lon="6.99625">
        <ele>1820.5999755859</ele>
        <time>2017-10-11T09:05:18.000Z</time>
      </trkpt>
      <trkpt lat="46.34954" lon="6.99639">
        <ele>1820.4000244141</ele>
        <time>2017-10-11T09:05:31.000Z</time>
      </trkpt>
      <trkpt lat="46.34961" lon="6.99663">
        <ele>1822.8000488281</ele>
        <time>2017-10-11T09:05:47.000Z</time>
      </trkpt>
      <trkpt lat="46.34966" lon="6.99688">
        <ele>1828.4000244141</ele>
        <time>2017-10-11T09:06:01.000Z</time>
      </trkpt>
      <trkpt lat="46.34965" lon="6.99716">
        <ele>1835.5999755859</ele>
        <time>2017-10-11T09:06:15.000Z</time>
      </trkpt>
      <trkpt lat="46.34968" lon="6.99729">
        <ele>1838.4000244141</ele>
        <time>2017-10-11T09:06:23.000Z</time>
      </trkpt>
      <trkpt lat="46.34967" lon="6.99757">
        <ele>1839.1999511719</ele>
        <time>2017-10-11T09:06:37.000Z</time>
      </trkpt>
      <trkpt lat="46.34967" lon="6.99784">
        <ele>1841.8000488281</ele>
        <time>2017-10-11T09:06:50.000Z</time>
      </trkpt>
      <trkpt lat="46.34974" lon="6.99809">
        <ele>1845.1999511719</ele>
        <time>2017-10-11T09:07:03.000Z</time>
      </trkpt>
      <trkpt lat="46.34975" lon="6.99811">
        <ele>1845.5999755859</ele>
        <time>2017-10-11T09:07:05.000Z</time>
      </trkpt>
      <trkpt lat="46.3498" lon="6.9981">
        <ele>1846.4000244141</ele>
        <time>2017-10-11T09:07:10.000Z</time>
      </trkpt>
      <trkpt lat="46.34986" lon="6.99804">
        <ele>1848.1999511719</ele>
        <time>2017-10-11T09:07:17.000Z</time>
      </trkpt>
      <trkpt lat="46.34987" lon="6.99803">
        <ele>1848.8000488281</ele>
        <time>2017-10-11T09:07:19.000Z</time>
      </trkpt>
      <trkpt lat="46.34989" lon="6.99802">
        <ele>1849.8000488281</ele>
        <time>2017-10-11T09:07:22.000Z</time>
      </trkpt>
      <trkpt lat="46.34991" lon="6.99799">
        <ele>1850.5999755859</ele>
        <time>2017-10-11T09:07:25.000Z</time>
      </trkpt>
      <trkpt lat="46.35001" lon="6.99797">
        <ele>1854.5999755859</ele>
        <time>2017-10-11T09:07:35.000Z</time>
      </trkpt>
      <trkpt lat="46.35004" lon="6.99795">
        <ele>1856</ele>
        <time>2017-10-11T09:07:40.000Z</time>
      </trkpt>
      <trkpt lat="46.35013" lon="6.99786">
        <ele>1859</ele>
        <time>2017-10-11T09:07:53.000Z</time>
      </trkpt>
      <trkpt lat="46.35023" lon="6.99769">
        <ele>1858.8000488281</ele>
        <time>2017-10-11T09:08:13.000Z</time>
      </trkpt>
      <trkpt lat="46.35025" lon="6.99766">
        <ele>1857.8000488281</ele>
        <time>2017-10-11T09:08:16.000Z</time>
      </trkpt>
      <trkpt lat="46.35026" lon="6.99764">
        <ele>1857.4000244141</ele>
        <time>2017-10-11T09:08:18.000Z</time>
      </trkpt>
      <trkpt lat="46.35042" lon="6.9975">
        <ele>1856</ele>
        <time>2017-10-11T09:08:41.000Z</time>
      </trkpt>
      <trkpt lat="46.3505" lon="6.99743">
        <ele>1855.1999511719</ele>
        <time>2017-10-11T09:08:51.000Z</time>
      </trkpt>
      <trkpt lat="46.35051" lon="6.99741">
        <ele>1855</ele>
        <time>2017-10-11T09:08:53.000Z</time>
      </trkpt>
      <trkpt lat="46.35057" lon="6.99735">
        <ele>1854.8000488281</ele>
        <time>2017-10-11T09:09:00.000Z</time>
      </trkpt>
      <trkpt lat="46.35059" lon="6.99733">
        <ele>1853.4000244141</ele>
        <time>2017-10-11T09:09:04.000Z</time>
      </trkpt>
      <trkpt lat="46.3506" lon="6.99731">
        <ele>1852.4000244141</ele>
        <time>2017-10-11T09:09:07.000Z</time>
      </trkpt>
      <trkpt lat="46.35066" lon="6.9973">
        <ele>1850.5999755859</ele>
        <time>2017-10-11T09:09:14.000Z</time>
      </trkpt>
      <trkpt lat="46.35084" lon="6.99738">
        <ele>1846</ele>
        <time>2017-10-11T09:09:39.000Z</time>
      </trkpt>
      <trkpt lat="46.35101" lon="6.99749">
        <ele>1845.4000244141</ele>
        <time>2017-10-11T09:09:52.000Z</time>
      </trkpt>
      <trkpt lat="46.35118" lon="6.99759">
        <ele>1846.4000244141</ele>
        <time>2017-10-11T09:10:12.000Z</time>
      </trkpt>
      <trkpt lat="46.35133" lon="6.99775">
        <ele>1852.1999511719</ele>
        <time>2017-10-11T09:10:31.000Z</time>
      </trkpt>
      <trkpt lat="46.3515" lon="6.99785">
        <ele>1852</ele>
        <time>2017-10-11T09:10:48.000Z</time>
      </trkpt>
      <trkpt lat="46.35165" lon="6.998">
        <ele>1855</ele>
        <time>2017-10-11T09:11:04.000Z</time>
      </trkpt>
      <trkpt lat="46.35182" lon="6.9981">
        <ele>1852.4000244141</ele>
        <time>2017-10-11T09:11:16.000Z</time>
      </trkpt>
      <trkpt lat="46.35192" lon="6.99833">
        <ele>1864</ele>
        <time>2017-10-11T09:11:30.000Z</time>
      </trkpt>
      <trkpt lat="46.35204" lon="6.99841">
        <ele>1862.1999511719</ele>
        <time>2017-10-11T09:11:42.000Z</time>
      </trkpt>
      <trkpt lat="46.35221" lon="6.99845">
        <ele>1854.1999511719</ele>
        <time>2017-10-11T09:11:55.000Z</time>
      </trkpt>
      <trkpt lat="46.35238" lon="6.99857">
        <ele>1851.1999511719</ele>
        <time>2017-10-11T09:12:08.000Z</time>
      </trkpt>
      <trkpt lat="46.35255" lon="6.99867">
        <ele>1846.4000244141</ele>
        <time>2017-10-11T09:12:20.000Z</time>
      </trkpt>
      <trkpt lat="46.35272" lon="6.99878">
        <ele>1842.5999755859</ele>
        <time>2017-10-11T09:12:32.000Z</time>
      </trkpt>
      <trkpt lat="46.35289" lon="6.99882">
        <ele>1834.5999755859</ele>
        <time>2017-10-11T09:12:48.000Z</time>
      </trkpt>
      <trkpt lat="46.35302" lon="6.99884">
        <ele>1828.4000244141</ele>
        <time>2017-10-11T09:13:01.000Z</time>
      </trkpt>
      <trkpt lat="46.35312" lon="6.99882">
        <ele>1822</ele>
        <time>2017-10-11T09:13:13.000Z</time>
      </trkpt>
      <trkpt lat="46.35313" lon="6.99884">
        <ele>1822.4000244141</ele>
        <time>2017-10-11T09:13:15.000Z</time>
      </trkpt>
      <trkpt lat="46.35315" lon="6.99887">
        <ele>1823.4000244141</ele>
        <time>2017-10-11T09:13:20.000Z</time>
      </trkpt>
      <trkpt lat="46.35315" lon="6.99888">
        <ele>1823.8000488281</ele>
        <time>2017-10-11T09:13:22.000Z</time>
      </trkpt>
      <trkpt lat="46.35316" lon="6.9989">
        <ele>1824.4000244141</ele>
        <time>2017-10-11T09:13:24.000Z</time>
      </trkpt>
      <trkpt lat="46.35322" lon="6.99894">
        <ele>1825.1999511719</ele>
        <time>2017-10-11T09:13:30.000Z</time>
      </trkpt>
      <trkpt lat="46.35337" lon="6.9991">
        <ele>1830.5999755859</ele>
        <time>2017-10-11T09:13:45.000Z</time>
      </trkpt>
      <trkpt lat="46.35349" lon="6.9993">
        <ele>1836.1999511719</ele>
        <time>2017-10-11T09:13:58.000Z</time>
      </trkpt>
      <trkpt lat="46.35368" lon="6.99931">
        <ele>1832.1999511719</ele>
        <time>2017-10-11T09:14:13.000Z</time>
      </trkpt>
      <trkpt lat="46.35387" lon="6.99932">
        <ele>1828.1999511719</ele>
        <time>2017-10-11T09:14:26.000Z</time>
      </trkpt>
      <trkpt lat="46.35401" lon="6.99948">
        <ele>1832.1999511719</ele>
        <time>2017-10-11T09:14:46.000Z</time>
      </trkpt>
      <trkpt lat="46.35402" lon="6.99951">
        <ele>1833.1999511719</ele>
        <time>2017-10-11T09:14:50.000Z</time>
      </trkpt>
      <trkpt lat="46.35415" lon="6.99956">
        <ele>1833.8000488281</ele>
        <time>2017-10-11T09:15:00.000Z</time>
      </trkpt>
      <trkpt lat="46.35417" lon="6.99955">
        <ele>1833.1999511719</ele>
        <time>2017-10-11T09:15:03.000Z</time>
      </trkpt>
      <trkpt lat="46.35423" lon="6.99957">
        <ele>1833.1999511719</ele>
        <time>2017-10-11T09:15:10.000Z</time>
      </trkpt>
      <trkpt lat="46.35442" lon="6.99957">
        <ele>1830.5999755859</ele>
        <time>2017-10-11T09:15:30.000Z</time>
      </trkpt>
      <trkpt lat="46.35448" lon="6.99954">
        <ele>1828.8000488281</ele>
        <time>2017-10-11T09:15:38.000Z</time>
      </trkpt>
      <trkpt lat="46.3545" lon="6.99954">
        <ele>1828.5999755859</ele>
        <time>2017-10-11T09:15:40.000Z</time>
      </trkpt>
      <trkpt lat="46.35467" lon="6.99965">
        <ele>1831.4000244141</ele>
        <time>2017-10-11T09:15:58.000Z</time>
      </trkpt>
      <trkpt lat="46.35483" lon="6.99978">
        <ele>1835.1999511719</ele>
        <time>2017-10-11T09:16:14.000Z</time>
      </trkpt>
      <trkpt lat="46.35498" lon="6.9999">
        <ele>1838.4000244141</ele>
        <time>2017-10-11T09:16:36.000Z</time>
      </trkpt>
      <trkpt lat="46.35514" lon="7.00003">
        <ele>1837.8000488281</ele>
        <time>2017-10-11T09:16:56.000Z</time>
      </trkpt>
      <trkpt lat="46.35531" lon="7.00014">
        <ele>1836.4000244141</ele>
        <time>2017-10-11T09:17:17.000Z</time>
      </trkpt>
      <trkpt lat="46.35547" lon="7.00032">
        <ele>1835.4000244141</ele>
        <time>2017-10-11T09:17:29.000Z</time>
      </trkpt>
      <trkpt lat="46.35561" lon="7.00052">
        <ele>1834.5999755859</ele>
        <time>2017-10-11T09:17:38.000Z</time>
      </trkpt>
      <trkpt lat="46.35575" lon="7.0007">
        <ele>1836.8000488281</ele>
        <time>2017-10-11T09:17:48.000Z</time>
      </trkpt>
      <trkpt lat="46.35589" lon="7.00089">
        <ele>1841.5999755859</ele>
        <time>2017-10-11T09:18:02.000Z</time>
      </trkpt>
      <trkpt lat="46.35594" lon="7.00096">
        <ele>1843.5999755859</ele>
        <time>2017-10-11T09:18:10.000Z</time>
      </trkpt>
      <trkpt lat="46.35596" lon="7.00097">
        <ele>1844</ele>
        <time>2017-10-11T09:21:50.000Z</time>
      </trkpt>
      <trkpt lat="46.35609" lon="7.00108">
        <ele>1848</ele>
        <time>2017-10-11T09:22:44.000Z</time>
      </trkpt>
      <trkpt lat="46.35627" lon="7.0011">
        <ele>1851.5999755859</ele>
        <time>2017-10-11T09:23:01.000Z</time>
      </trkpt>
      <trkpt lat="46.35632" lon="7.00109">
        <ele>1852.4000244141</ele>
        <time>2017-10-11T09:23:06.000Z</time>
      </trkpt>
      <trkpt lat="46.35633" lon="7.00111">
        <ele>1852.8000488281</ele>
        <time>2017-10-11T09:23:10.000Z</time>
      </trkpt>
      <trkpt lat="46.35638" lon="7.00113">
        <ele>1854.1999511719</ele>
        <time>2017-10-11T09:23:19.000Z</time>
      </trkpt>
      <trkpt lat="46.3565" lon="7.00107">
        <ele>1856.4000244141</ele>
        <time>2017-10-11T09:23:34.000Z</time>
      </trkpt>
      <trkpt lat="46.3566" lon="7.00105">
        <ele>1862</ele>
        <time>2017-10-11T09:23:47.000Z</time>
      </trkpt>
      <trkpt lat="46.35663" lon="7.00103">
        <ele>1863.5999755859</ele>
        <time>2017-10-11T09:23:51.000Z</time>
      </trkpt>
      <trkpt lat="46.35681" lon="7.00096">
        <ele>1871.1999511719</ele>
        <time>2017-10-11T09:24:14.000Z</time>
      </trkpt>
      <trkpt lat="46.35687" lon="7.00097">
        <ele>1874.1999511719</ele>
        <time>2017-10-11T09:24:22.000Z</time>
      </trkpt>
      <trkpt lat="46.35696" lon="7.0009">
        <ele>1876.8000488281</ele>
        <time>2017-10-11T09:24:35.000Z</time>
      </trkpt>
      <trkpt lat="46.35699" lon="7.00088">
        <ele>1877.4000244141</ele>
        <time>2017-10-11T09:24:38.000Z</time>
      </trkpt>
      <trkpt lat="46.35702" lon="7.00089">
        <ele>1879.4000244141</ele>
        <time>2017-10-11T09:24:42.000Z</time>
      </trkpt>
      <trkpt lat="46.35709" lon="7.00089">
        <ele>1882.1999511719</ele>
        <time>2017-10-11T09:24:51.000Z</time>
      </trkpt>
      <trkpt lat="46.35709" lon="7.00089">
        <ele>1882.4000244141</ele>
        <time>2017-10-11T09:24:52.000Z</time>
      </trkpt>
      <trkpt lat="46.35715" lon="7.00089">
        <ele>1885.1999511719</ele>
        <time>2017-10-11T09:25:01.000Z</time>
      </trkpt>
      <trkpt lat="46.35733" lon="7.00086">
        <ele>1892.8000488281</ele>
        <time>2017-10-11T09:25:30.000Z</time>
      </trkpt>
      <trkpt lat="46.35742" lon="7.00076">
        <ele>1895.4000244141</ele>
        <time>2017-10-11T09:25:54.000Z</time>
      </trkpt>
      <trkpt lat="46.3575" lon="7.00069">
        <ele>1898.1999511719</ele>
        <time>2017-10-11T09:26:08.000Z</time>
      </trkpt>
      <trkpt lat="46.35754" lon="7.00064">
        <ele>1899.1999511719</ele>
        <time>2017-10-11T09:26:15.000Z</time>
      </trkpt>
      <trkpt lat="46.35756" lon="7.00063">
        <ele>1899.8000488281</ele>
        <time>2017-10-11T09:26:17.000Z</time>
      </trkpt>
      <trkpt lat="46.35772" lon="7.00052">
        <ele>1906.4000244141</ele>
        <time>2017-10-11T09:26:38.000Z</time>
      </trkpt>
      <trkpt lat="46.3578" lon="7.00045">
        <ele>1909.1999511719</ele>
        <time>2017-10-11T09:26:50.000Z</time>
      </trkpt>
      <trkpt lat="46.35782" lon="7.00043">
        <ele>1910.1999511719</ele>
        <time>2017-10-11T09:26:54.000Z</time>
      </trkpt>
      <trkpt lat="46.35783" lon="7.00042">
        <ele>1910.5999755859</ele>
        <time>2017-10-11T09:26:56.000Z</time>
      </trkpt>
      <trkpt lat="46.35798" lon="7.00026">
        <ele>1914.8000488281</ele>
        <time>2017-10-11T09:27:20.000Z</time>
      </trkpt>
      <trkpt lat="46.358" lon="7.00023">
        <ele>1915.4000244141</ele>
        <time>2017-10-11T09:27:23.000Z</time>
      </trkpt>
      <trkpt lat="46.35801" lon="7.00021">
        <ele>1915.5999755859</ele>
        <time>2017-10-11T09:27:25.000Z</time>
      </trkpt>
      <trkpt lat="46.35801" lon="7.00017">
        <ele>1915</ele>
        <time>2017-10-11T09:27:29.000Z</time>
      </trkpt>
      <trkpt lat="46.35814" lon="7">
        <ele>1918.4000244141</ele>
        <time>2017-10-11T09:27:58.000Z</time>
      </trkpt>
      <trkpt lat="46.3582" lon="6.99991">
        <ele>1919</ele>
        <time>2017-10-11T09:28:09.000Z</time>
      </trkpt>
      <trkpt lat="46.35822" lon="6.99989">
        <ele>1919.4000244141</ele>
        <time>2017-10-11T09:28:12.000Z</time>
      </trkpt>
      <trkpt lat="46.35825" lon="6.99987">
        <ele>1919.8000488281</ele>
        <time>2017-10-11T09:28:15.000Z</time>
      </trkpt>
      <trkpt lat="46.35826" lon="6.99986">
        <ele>1919.8000488281</ele>
        <time>2017-10-11T09:28:17.000Z</time>
      </trkpt>
      <trkpt lat="46.35828" lon="6.99984">
        <ele>1920.1999511719</ele>
        <time>2017-10-11T09:28:20.000Z</time>
      </trkpt>
      <trkpt lat="46.35841" lon="6.99983">
        <ele>1924.4000244141</ele>
        <time>2017-10-11T09:28:35.000Z</time>
      </trkpt>
      <trkpt lat="46.35848" lon="6.99982">
        <ele>1927.1999511719</ele>
        <time>2017-10-11T09:28:46.000Z</time>
      </trkpt>
      <trkpt lat="46.3585" lon="6.99981">
        <ele>1927.5999755859</ele>
        <time>2017-10-11T09:28:50.000Z</time>
      </trkpt>
      <trkpt lat="46.35854" lon="6.99981">
        <ele>1928.8000488281</ele>
        <time>2017-10-11T09:28:55.000Z</time>
      </trkpt>
      <trkpt lat="46.35872" lon="6.9998">
        <ele>1935.4000244141</ele>
        <time>2017-10-11T09:29:23.000Z</time>
      </trkpt>
      <trkpt lat="46.35887" lon="6.99982">
        <ele>1941.1999511719</ele>
        <time>2017-10-11T09:30:55.000Z</time>
      </trkpt>
      <trkpt lat="46.35902" lon="6.99988">
        <ele>1946.1999511719</ele>
        <time>2017-10-11T09:31:24.000Z</time>
      </trkpt>
      <trkpt lat="46.35911" lon="7.00006">
        <ele>1956</ele>
        <time>2017-10-11T09:31:52.000Z</time>
      </trkpt>
      <trkpt lat="46.35909" lon="7.00032">
        <ele>1966.1999511719</ele>
        <time>2017-10-11T09:32:25.000Z</time>
      </trkpt>
      <trkpt lat="46.35912" lon="7.00057">
        <ele>1977.1999511719</ele>
        <time>2017-10-11T09:32:59.000Z</time>
      </trkpt>
      <trkpt lat="46.35913" lon="7.00084">
        <ele>1987.8000488281</ele>
        <time>2017-10-11T09:33:36.000Z</time>
      </trkpt>
      <trkpt lat="46.35913" lon="7.00109">
        <ele>1997.8000488281</ele>
        <time>2017-10-11T09:34:13.000Z</time>
      </trkpt>
      <trkpt lat="46.35919" lon="7.00134">
        <ele>2008.4000244141</ele>
        <time>2017-10-11T09:34:46.000Z</time>
      </trkpt>
      <trkpt lat="46.35916" lon="7.00159">
        <ele>2017</ele>
        <time>2017-10-11T09:35:28.000Z</time>
      </trkpt>
      <trkpt lat="46.35917" lon="7.00185">
        <ele>2018.1999511719</ele>
        <time>2017-10-11T09:35:57.000Z</time>
      </trkpt>
      <trkpt lat="46.35917" lon="7.00187">
        <ele>2018.4000244141</ele>
        <time>2017-10-11T09:35:59.000Z</time>
      </trkpt>
      <trkpt lat="46.35916" lon="7.0019">
        <ele>2018.8000488281</ele>
        <time>2017-10-11T09:36:02.000Z</time>
      </trkpt>
      <trkpt lat="46.35908" lon="7.00213">
        <ele>2021.5999755859</ele>
        <time>2017-10-11T09:36:35.000Z</time>
      </trkpt>
      <trkpt lat="46.35908" lon="7.00228">
        <ele>2023.5999755859</ele>
        <time>2017-10-11T09:36:50.000Z</time>
      </trkpt>
      <trkpt lat="46.35912" lon="7.00234">
        <ele>2024.4000244141</ele>
        <time>2017-10-11T09:36:58.000Z</time>
      </trkpt>
      <trkpt lat="46.35925" lon="7.00249">
        <ele>2024.8000488281</ele>
        <time>2017-10-11T09:37:22.000Z</time>
      </trkpt>
      <trkpt lat="46.35931" lon="7.00253">
        <ele>2024.1999511719</ele>
        <time>2017-10-11T09:37:30.000Z</time>
      </trkpt>
      <trkpt lat="46.35949" lon="7.00262">
        <ele>2023.4000244141</ele>
        <time>2017-10-11T09:37:46.000Z</time>
      </trkpt>
      <trkpt lat="46.35967" lon="7.00268">
        <ele>2023.1999511719</ele>
        <time>2017-10-11T09:38:02.000Z</time>
      </trkpt>
      <trkpt lat="46.35986" lon="7.0026">
        <ele>2024.8000488281</ele>
        <time>2017-10-11T09:38:17.000Z</time>
      </trkpt>
      <trkpt lat="46.36005" lon="7.00262">
        <ele>2023</ele>
        <time>2017-10-11T09:38:31.000Z</time>
      </trkpt>
      <trkpt lat="46.36023" lon="7.0027">
        <ele>2019.5999755859</ele>
        <time>2017-10-11T09:38:41.000Z</time>
      </trkpt>
      <trkpt lat="46.36042" lon="7.00272">
        <ele>2016.4000244141</ele>
        <time>2017-10-11T09:38:49.000Z</time>
      </trkpt>
      <trkpt lat="46.3606" lon="7.00282">
        <ele>2012.8000488281</ele>
        <time>2017-10-11T09:38:57.000Z</time>
      </trkpt>
      <trkpt lat="46.36078" lon="7.00293">
        <ele>2006.1999511719</ele>
        <time>2017-10-11T09:39:05.000Z</time>
      </trkpt>
      <trkpt lat="46.36097" lon="7.00287">
        <ele>1999.4000244141</ele>
        <time>2017-10-11T09:39:16.000Z</time>
      </trkpt>
      <trkpt lat="46.36109" lon="7.00281">
        <ele>1994.5999755859</ele>
        <time>2017-10-11T09:39:27.000Z</time>
      </trkpt>
      <trkpt lat="46.36114" lon="7.00255">
        <ele>1990.5999755859</ele>
        <time>2017-10-11T09:39:39.000Z</time>
      </trkpt>
      <trkpt lat="46.36113" lon="7.0023">
        <ele>1990</ele>
        <time>2017-10-11T09:39:50.000Z</time>
      </trkpt>
      <trkpt lat="46.36119" lon="7.00204">
        <ele>1986.5999755859</ele>
        <time>2017-10-11T09:40:01.000Z</time>
      </trkpt>
      <trkpt lat="46.36131" lon="7.00185">
        <ele>1981.5999755859</ele>
        <time>2017-10-11T09:40:11.000Z</time>
      </trkpt>
      <trkpt lat="46.36149" lon="7.00175">
        <ele>1974.4000244141</ele>
        <time>2017-10-11T09:40:22.000Z</time>
      </trkpt>
      <trkpt lat="46.36167" lon="7.00163">
        <ele>1969</ele>
        <time>2017-10-11T09:40:32.000Z</time>
      </trkpt>
      <trkpt lat="46.36185" lon="7.00151">
        <ele>1964.4000244141</ele>
        <time>2017-10-11T09:40:41.000Z</time>
      </trkpt>
      <trkpt lat="46.362" lon="7.00132">
        <ele>1959.8000488281</ele>
        <time>2017-10-11T09:40:49.000Z</time>
      </trkpt>
      <trkpt lat="46.36214" lon="7.00112">
        <ele>1957.8000488281</ele>
        <time>2017-10-11T09:40:57.000Z</time>
      </trkpt>
      <trkpt lat="46.36229" lon="7.00092">
        <ele>1956.4000244141</ele>
        <time>2017-10-11T09:41:05.000Z</time>
      </trkpt>
      <trkpt lat="46.36244" lon="7.00074">
        <ele>1952.4000244141</ele>
        <time>2017-10-11T09:41:13.000Z</time>
      </trkpt>
      <trkpt lat="46.36259" lon="7.00059">
        <ele>1942</ele>
        <time>2017-10-11T09:41:22.000Z</time>
      </trkpt>
      <trkpt lat="46.36264" lon="7.0006">
        <ele>1941</ele>
        <time>2017-10-11T09:41:24.000Z</time>
      </trkpt>
      <trkpt lat="46.3627" lon="7.00087">
        <ele>1943</ele>
        <time>2017-10-11T09:41:33.000Z</time>
      </trkpt>
      <trkpt lat="46.36277" lon="7.00113">
        <ele>1940.1999511719</ele>
        <time>2017-10-11T09:41:43.000Z</time>
      </trkpt>
      <trkpt lat="46.36286" lon="7.00138">
        <ele>1936.1999511719</ele>
        <time>2017-10-11T09:41:52.000Z</time>
      </trkpt>
      <trkpt lat="46.36293" lon="7.00164">
        <ele>1932</ele>
        <time>2017-10-11T09:42:02.000Z</time>
      </trkpt>
      <trkpt lat="46.363" lon="7.00189">
        <ele>1926.5999755859</ele>
        <time>2017-10-11T09:42:11.000Z</time>
      </trkpt>
      <trkpt lat="46.36313" lon="7.00203">
        <ele>1920.4000244141</ele>
        <time>2017-10-11T09:42:22.000Z</time>
      </trkpt>
      <trkpt lat="46.36332" lon="7.00196">
        <ele>1918.5999755859</ele>
        <time>2017-10-11T09:42:34.000Z</time>
      </trkpt>
      <trkpt lat="46.3635" lon="7.00188">
        <ele>1916.1999511719</ele>
        <time>2017-10-11T09:42:46.000Z</time>
      </trkpt>
      <trkpt lat="46.36369" lon="7.00189">
        <ele>1912</ele>
        <time>2017-10-11T09:42:56.000Z</time>
      </trkpt>
      <trkpt lat="46.36385" lon="7.00204">
        <ele>1907.5999755859</ele>
        <time>2017-10-11T09:43:05.000Z</time>
      </trkpt>
      <trkpt lat="46.36395" lon="7.00226">
        <ele>1904.1999511719</ele>
        <time>2017-10-11T09:43:13.000Z</time>
      </trkpt>
      <trkpt lat="46.36407" lon="7.0025">
        <ele>1903.1999511719</ele>
        <time>2017-10-11T09:43:22.000Z</time>
      </trkpt>
      <trkpt lat="46.36417" lon="7.00272">
        <ele>1902.4000244141</ele>
        <time>2017-10-11T09:43:30.000Z</time>
      </trkpt>
      <trkpt lat="46.36427" lon="7.00294">
        <ele>1901.1999511719</ele>
        <time>2017-10-11T09:43:40.000Z</time>
      </trkpt>
      <trkpt lat="46.36435" lon="7.00319">
        <ele>1899.5999755859</ele>
        <time>2017-10-11T09:43:52.000Z</time>
      </trkpt>
      <trkpt lat="46.36442" lon="7.00344">
        <ele>1902</ele>
        <time>2017-10-11T09:44:02.000Z</time>
      </trkpt>
      <trkpt lat="46.36448" lon="7.00372">
        <ele>1905.5999755859</ele>
        <time>2017-10-11T09:44:11.000Z</time>
      </trkpt>
      <trkpt lat="46.36452" lon="7.00398">
        <ele>1906.4000244141</ele>
        <time>2017-10-11T09:44:19.000Z</time>
      </trkpt>
      <trkpt lat="46.36456" lon="7.00425">
        <ele>1910</ele>
        <time>2017-10-11T09:44:27.000Z</time>
      </trkpt>
      <trkpt lat="46.36458" lon="7.00454">
        <ele>1915.8000488281</ele>
        <time>2017-10-11T09:44:35.000Z</time>
      </trkpt>
      <trkpt lat="46.36457" lon="7.00482">
        <ele>1918.4000244141</ele>
        <time>2017-10-11T09:44:43.000Z</time>
      </trkpt>
      <trkpt lat="46.36453" lon="7.0051">
        <ele>1917.5999755859</ele>
        <time>2017-10-11T09:44:51.000Z</time>
      </trkpt>
      <trkpt lat="46.3645" lon="7.00536">
        <ele>1917.4000244141</ele>
        <time>2017-10-11T09:44:59.000Z</time>
      </trkpt>
      <trkpt lat="46.36452" lon="7.00564">
        <ele>1919</ele>
        <time>2017-10-11T09:45:07.000Z</time>
      </trkpt>
      <trkpt lat="46.36453" lon="7.00591">
        <ele>1918</ele>
        <time>2017-10-11T09:45:15.000Z</time>
      </trkpt>
      <trkpt lat="46.36453" lon="7.00618">
        <ele>1915.8000488281</ele>
        <time>2017-10-11T09:45:28.000Z</time>
      </trkpt>
      <trkpt lat="46.3645" lon="7.00645">
        <ele>1913.5999755859</ele>
        <time>2017-10-11T09:45:41.000Z</time>
      </trkpt>
      <trkpt lat="46.36444" lon="7.0067">
        <ele>1909.1999511719</ele>
        <time>2017-10-11T09:45:54.000Z</time>
      </trkpt>
      <trkpt lat="46.36445" lon="7.00671">
        <ele>1909.4000244141</ele>
        <time>2017-10-11T09:45:56.000Z</time>
      </trkpt>
      <trkpt lat="46.36446" lon="7.00674">
        <ele>1909.5999755859</ele>
        <time>2017-10-11T09:45:58.000Z</time>
      </trkpt>
      <trkpt lat="46.36448" lon="7.00676">
        <ele>1910</ele>
        <time>2017-10-11T09:46:04.000Z</time>
      </trkpt>
      <trkpt lat="46.36464" lon="7.00688">
        <ele>1914.4000244141</ele>
        <time>2017-10-11T09:46:24.000Z</time>
      </trkpt>
      <trkpt lat="46.36469" lon="7.00684">
        <ele>1916.8000488281</ele>
        <time>2017-10-11T09:46:31.000Z</time>
      </trkpt>
      <trkpt lat="46.36474" lon="7.00687">
        <ele>1918.4000244141</ele>
        <time>2017-10-11T09:46:47.000Z</time>
      </trkpt>
      <trkpt lat="46.36487" lon="7.00705">
        <ele>1921.8000488281</ele>
        <time>2017-10-11T09:47:03.000Z</time>
      </trkpt>
      <trkpt lat="46.36498" lon="7.00727">
        <ele>1923.8000488281</ele>
        <time>2017-10-11T09:47:21.000Z</time>
      </trkpt>
      <trkpt lat="46.36502" lon="7.0074">
        <ele>1924.1999511719</ele>
        <time>2017-10-11T09:47:32.000Z</time>
      </trkpt>
      <trkpt lat="46.36512" lon="7.00755">
        <ele>1925.1999511719</ele>
        <time>2017-10-11T09:47:48.000Z</time>
      </trkpt>
      <trkpt lat="46.36525" lon="7.00774">
        <ele>1926</ele>
        <time>2017-10-11T09:48:07.000Z</time>
      </trkpt>
      <trkpt lat="46.36539" lon="7.00789">
        <ele>1929</ele>
        <time>2017-10-11T09:48:22.000Z</time>
      </trkpt>
      <trkpt lat="46.36555" lon="7.00804">
        <ele>1932.8000488281</ele>
        <time>2017-10-11T09:48:39.000Z</time>
      </trkpt>
      <trkpt lat="46.36571" lon="7.00817">
        <ele>1937.4000244141</ele>
        <time>2017-10-11T09:48:59.000Z</time>
      </trkpt>
      <trkpt lat="46.36587" lon="7.00832">
        <ele>1940.1999511719</ele>
        <time>2017-10-11T09:49:15.000Z</time>
      </trkpt>
      <trkpt lat="46.36602" lon="7.00848">
        <ele>1944</ele>
        <time>2017-10-11T09:49:30.000Z</time>
      </trkpt>
      <trkpt lat="46.36618" lon="7.00861">
        <ele>1948.4000244141</ele>
        <time>2017-10-11T09:49:45.000Z</time>
      </trkpt>
      <trkpt lat="46.36632" lon="7.00875">
        <ele>1952</ele>
        <time>2017-10-11T09:50:02.000Z</time>
      </trkpt>
      <trkpt lat="46.36644" lon="7.00896">
        <ele>1952.4000244141</ele>
        <time>2017-10-11T09:50:19.000Z</time>
      </trkpt>
      <trkpt lat="46.36654" lon="7.00918">
        <ele>1948.4000244141</ele>
        <time>2017-10-11T09:50:39.000Z</time>
      </trkpt>
      <trkpt lat="46.36654" lon="7.00932">
        <ele>1946</ele>
        <time>2017-10-11T09:50:58.000Z</time>
      </trkpt>
      <trkpt lat="46.36655" lon="7.00934">
        <ele>1945.4000244141</ele>
        <time>2017-10-11T09:51:01.000Z</time>
      </trkpt>
      <trkpt lat="46.36662" lon="7.00929">
        <ele>1945.4000244141</ele>
        <time>2017-10-11T09:51:39.000Z</time>
      </trkpt>
      <trkpt lat="46.3666" lon="7.00918">
        <ele>1947.8000488281</ele>
        <time>2017-10-11T09:52:50.000Z</time>
      </trkpt>
      <trkpt lat="46.36666" lon="7.00906">
        <ele>1950.5999755859</ele>
        <time>2017-10-11T09:53:53.000Z</time>
      </trkpt>
      <trkpt lat="46.36659" lon="7.00894">
        <ele>1954.1999511719</ele>
        <time>2017-10-11T09:54:12.000Z</time>
      </trkpt>
      <trkpt lat="46.36658" lon="7.00892">
        <ele>1954.8000488281</ele>
        <time>2017-10-11T09:54:14.000Z</time>
      </trkpt>
      <trkpt lat="46.36653" lon="7.00884">
        <ele>1957.1999511719</ele>
        <time>2017-10-11T09:54:25.000Z</time>
      </trkpt>
      <trkpt lat="46.36652" lon="7.00874">
        <ele>1959.8000488281</ele>
        <time>2017-10-11T09:54:31.000Z</time>
      </trkpt>
      <trkpt lat="46.36652" lon="7.00872">
        <ele>1960.4000244141</ele>
        <time>2017-10-11T09:54:35.000Z</time>
      </trkpt>
      <trkpt lat="46.36649" lon="7.00869">
        <ele>1961.1999511719</ele>
        <time>2017-10-11T09:54:41.000Z</time>
      </trkpt>
      <trkpt lat="46.36644" lon="7.00861">
        <ele>1961.8000488281</ele>
        <time>2017-10-11T09:54:52.000Z</time>
      </trkpt>
      <trkpt lat="46.36641" lon="7.00837">
        <ele>1966.4000244141</ele>
        <time>2017-10-11T09:55:16.000Z</time>
      </trkpt>
      <trkpt lat="46.36637" lon="7.00826">
        <ele>1967.1999511719</ele>
        <time>2017-10-11T09:55:28.000Z</time>
      </trkpt>
      <trkpt lat="46.36634" lon="7.0082">
        <ele>1968</ele>
        <time>2017-10-11T09:55:35.000Z</time>
      </trkpt>
      <trkpt lat="46.36634" lon="7.00819">
        <ele>1968</ele>
        <time>2017-10-11T09:55:37.000Z</time>
      </trkpt>
      <trkpt lat="46.36633" lon="7.00804">
        <ele>1973.1999511719</ele>
        <time>2017-10-11T09:56:13.000Z</time>
      </trkpt>
      <trkpt lat="46.36622" lon="7.00787">
        <ele>1974</ele>
        <time>2017-10-11T09:56:45.000Z</time>
      </trkpt>
      <trkpt lat="46.36624" lon="7.00783">
        <ele>1976.4000244141</ele>
        <time>2017-10-11T09:56:49.000Z</time>
      </trkpt>
      <trkpt lat="46.36627" lon="7.00764">
        <ele>1986</ele>
        <time>2017-10-11T09:57:32.000Z</time>
      </trkpt>
      <trkpt lat="46.36625" lon="7.00762">
        <ele>1986</ele>
        <time>2017-10-11T09:57:35.000Z</time>
      </trkpt>
      <trkpt lat="46.36624" lon="7.00759">
        <ele>1986.1999511719</ele>
        <time>2017-10-11T09:57:39.000Z</time>
      </trkpt>
      <trkpt lat="46.36621" lon="7.00747">
        <ele>1989.4000244141</ele>
        <time>2017-10-11T09:57:57.000Z</time>
      </trkpt>
      <trkpt lat="46.36608" lon="7.00728">
        <ele>1988</ele>
        <time>2017-10-11T09:58:20.000Z</time>
      </trkpt>
      <trkpt lat="46.36607" lon="7.00726">
        <ele>1988.1999511719</ele>
        <time>2017-10-11T09:58:22.000Z</time>
      </trkpt>
      <trkpt lat="46.36605" lon="7.00721">
        <ele>1988.5999755859</ele>
        <time>2017-10-11T09:58:26.000Z</time>
      </trkpt>
      <trkpt lat="46.36603" lon="7.00715">
        <ele>1988.8000488281</ele>
        <time>2017-10-11T09:58:31.000Z</time>
      </trkpt>
      <trkpt lat="46.36602" lon="7.00708">
        <ele>1990.1999511719</ele>
        <time>2017-10-11T09:58:36.000Z</time>
      </trkpt>
      <trkpt lat="46.36603" lon="7.00706">
        <ele>1991.4000244141</ele>
        <time>2017-10-11T09:58:39.000Z</time>
      </trkpt>
      <trkpt lat="46.36609" lon="7.00683">
        <ele>1999.5999755859</ele>
        <time>2017-10-11T09:59:19.000Z</time>
      </trkpt>
      <trkpt lat="46.36616" lon="7.00662">
        <ele>2007.8000488281</ele>
        <time>2017-10-11T10:00:04.000Z</time>
      </trkpt>
      <trkpt lat="46.36619" lon="7.00636">
        <ele>2013.1999511719</ele>
        <time>2017-10-11T10:00:44.000Z</time>
      </trkpt>
      <trkpt lat="46.36621" lon="7.00629">
        <ele>2014.8000488281</ele>
        <time>2017-10-11T10:00:52.000Z</time>
      </trkpt>
      <trkpt lat="46.36627" lon="7.00618">
        <ele>2017.1999511719</ele>
        <time>2017-10-11T10:01:07.000Z</time>
      </trkpt>
      <trkpt lat="46.36629" lon="7.00617">
        <ele>2017.8000488281</ele>
        <time>2017-10-11T10:01:10.000Z</time>
      </trkpt>
      <trkpt lat="46.36631" lon="7.00614">
        <ele>2018.5999755859</ele>
        <time>2017-10-11T10:01:14.000Z</time>
      </trkpt>
      <trkpt lat="46.36632" lon="7.00614">
        <ele>2019.4000244141</ele>
        <time>2017-10-11T10:01:16.000Z</time>
      </trkpt>
      <trkpt lat="46.36635" lon="7.00609">
        <ele>2020.4000244141</ele>
        <time>2017-10-11T10:01:23.000Z</time>
      </trkpt>
      <trkpt lat="46.36637" lon="7.00607">
        <ele>2021.1999511719</ele>
        <time>2017-10-11T10:01:26.000Z</time>
      </trkpt>
      <trkpt lat="46.36654" lon="7.00597">
        <ele>2028.4000244141</ele>
        <time>2017-10-11T10:01:57.000Z</time>
      </trkpt>
      <trkpt lat="46.36671" lon="7.00587">
        <ele>2040.1999511719</ele>
        <time>2017-10-11T10:02:29.000Z</time>
      </trkpt>
      <trkpt lat="46.36686" lon="7.00579">
        <ele>2056.1999511719</ele>
        <time>2017-10-11T10:03:01.000Z</time>
      </trkpt>
      <trkpt lat="46.36701" lon="7.00565">
        <ele>2073</ele>
        <time>2017-10-11T10:03:34.000Z</time>
      </trkpt>
      <trkpt lat="46.36714" lon="7.00553">
        <ele>2086</ele>
        <time>2017-10-11T10:04:07.000Z</time>
      </trkpt>
      <trkpt lat="46.36726" lon="7.00552">
        <ele>2094.6000976562</ele>
        <time>2017-10-11T10:04:28.000Z</time>
      </trkpt>
      <trkpt lat="46.36743" lon="7.00551">
        <ele>2094.3999023438</ele>
        <time>2017-10-11T10:05:02.000Z</time>
      </trkpt>
      <trkpt lat="46.36759" lon="7.00547">
        <ele>2089.6000976562</ele>
        <time>2017-10-11T10:05:38.000Z</time>
      </trkpt>
      <trkpt lat="46.36768" lon="7.00526">
        <ele>2091.3999023438</ele>
        <time>2017-10-11T10:06:18.000Z</time>
      </trkpt>
      <trkpt lat="46.36772" lon="7.00504">
        <ele>2110.6000976562</ele>
        <time>2017-10-11T10:06:51.000Z</time>
      </trkpt>
      <trkpt lat="46.36772" lon="7.00499">
        <ele>2115</ele>
        <time>2017-10-11T10:06:56.000Z</time>
      </trkpt>
      <trkpt lat="46.36774" lon="7.00486">
        <ele>2118.1999511719</ele>
        <time>2017-10-11T10:07:11.000Z</time>
      </trkpt>
      <trkpt lat="46.36779" lon="7.00471">
        <ele>2112</ele>
        <time>2017-10-11T10:07:33.000Z</time>
      </trkpt>
      <trkpt lat="46.3678" lon="7.0047">
        <ele>2111.8000488281</ele>
        <time>2017-10-11T10:07:35.000Z</time>
      </trkpt>
      <trkpt lat="46.36782" lon="7.00469">
        <ele>2112</ele>
        <time>2017-10-11T10:07:38.000Z</time>
      </trkpt>
      <trkpt lat="46.36784" lon="7.00468">
        <ele>2111.8000488281</ele>
        <time>2017-10-11T10:07:40.000Z</time>
      </trkpt>
      <trkpt lat="46.36802" lon="7.00461">
        <ele>2123.1999511719</ele>
        <time>2017-10-11T10:08:08.000Z</time>
      </trkpt>
      <trkpt lat="46.36813" lon="7.00455">
        <ele>2132.8000488281</ele>
        <time>2017-10-11T10:08:44.000Z</time>
      </trkpt>
      <trkpt lat="46.36817" lon="7.0044">
        <ele>2129.3999023438</ele>
        <time>2017-10-11T10:09:15.000Z</time>
      </trkpt>
      <trkpt lat="46.36829" lon="7.00429">
        <ele>2112.8000488281</ele>
        <time>2017-10-11T10:09:53.000Z</time>
      </trkpt>
      <trkpt lat="46.36829" lon="7.00424">
        <ele>2111.8000488281</ele>
        <time>2017-10-11T10:09:59.000Z</time>
      </trkpt>
      <trkpt lat="46.36845" lon="7.00416">
        <ele>2112.1999511719</ele>
        <time>2017-10-11T10:10:44.000Z</time>
      </trkpt>
      <trkpt lat="46.36854" lon="7.00402">
        <ele>2110</ele>
        <time>2017-10-11T10:11:53.000Z</time>
      </trkpt>
      <trkpt lat="46.36865" lon="7.00403">
        <ele>2106.1999511719</ele>
        <time>2017-10-11T10:13:06.000Z</time>
      </trkpt>
      <trkpt lat="46.36873" lon="7.00398">
        <ele>2098.8000488281</ele>
        <time>2017-10-11T10:13:24.000Z</time>
      </trkpt>
      <trkpt lat="46.36883" lon="7.00401">
        <ele>2097.3999023438</ele>
        <time>2017-10-11T10:13:36.000Z</time>
      </trkpt>
      <trkpt lat="46.36884" lon="7.00401">
        <ele>2097.1999511719</ele>
        <time>2017-10-11T10:13:38.000Z</time>
      </trkpt>
      <trkpt lat="46.36901" lon="7.00394">
        <ele>2096.1999511719</ele>
        <time>2017-10-11T10:14:11.000Z</time>
      </trkpt>
      <trkpt lat="46.36905" lon="7.00394">
        <ele>2094.8000488281</ele>
        <time>2017-10-11T10:14:16.000Z</time>
      </trkpt>
      <trkpt lat="46.36908" lon="7.00396">
        <ele>2094</ele>
        <time>2017-10-11T10:14:20.000Z</time>
      </trkpt>
      <trkpt lat="46.3691" lon="7.00395">
        <ele>2093.1999511719</ele>
        <time>2017-10-11T10:14:22.000Z</time>
      </trkpt>
      <trkpt lat="46.36928" lon="7.00388">
        <ele>2086.8000488281</ele>
        <time>2017-10-11T10:14:42.000Z</time>
      </trkpt>
      <trkpt lat="46.36942" lon="7.00378">
        <ele>2081.3999023438</ele>
        <time>2017-10-11T10:15:03.000Z</time>
      </trkpt>
      <trkpt lat="46.36954" lon="7.0036">
        <ele>2083</ele>
        <time>2017-10-11T10:15:44.000Z</time>
      </trkpt>
      <trkpt lat="46.3695" lon="7.00351">
        <ele>2085.6000976562</ele>
        <time>2017-10-11T10:16:32.000Z</time>
      </trkpt>
      <trkpt lat="46.36965" lon="7.00335">
        <ele>2089.6000976562</ele>
        <time>2017-10-11T10:17:00.000Z</time>
      </trkpt>
      <trkpt lat="46.36978" lon="7.00324">
        <ele>2091.8000488281</ele>
        <time>2017-10-11T10:17:34.000Z</time>
      </trkpt>
      <trkpt lat="46.36991" lon="7.00315">
        <ele>2094.8000488281</ele>
        <time>2017-10-11T10:18:13.000Z</time>
      </trkpt>
      <trkpt lat="46.3701" lon="7.00311">
        <ele>2098.1999511719</ele>
        <time>2017-10-11T10:18:39.000Z</time>
      </trkpt>
      <trkpt lat="46.37027" lon="7.003">
        <ele>2102</ele>
        <time>2017-10-11T10:19:09.000Z</time>
      </trkpt>
      <trkpt lat="46.37042" lon="7.00287">
        <ele>2108.1999511719</ele>
        <time>2017-10-11T10:19:35.000Z</time>
      </trkpt>
      <trkpt lat="46.37059" lon="7.00278">
        <ele>2115</ele>
        <time>2017-10-11T10:20:01.000Z</time>
      </trkpt>
      <trkpt lat="46.37075" lon="7.00268">
        <ele>2121</ele>
        <time>2017-10-11T10:20:25.000Z</time>
      </trkpt>
      <trkpt lat="46.37093" lon="7.00263">
        <ele>2125.1999511719</ele>
        <time>2017-10-11T10:20:50.000Z</time>
      </trkpt>
      <trkpt lat="46.37112" lon="7.00263">
        <ele>2129.3999023438</ele>
        <time>2017-10-11T10:21:15.000Z</time>
      </trkpt>
      <trkpt lat="46.37128" lon="7.00254">
        <ele>2136</ele>
        <time>2017-10-11T10:21:41.000Z</time>
      </trkpt>
      <trkpt lat="46.37145" lon="7.00246">
        <ele>2143</ele>
        <time>2017-10-11T10:22:04.000Z</time>
      </trkpt>
      <trkpt lat="46.37164" lon="7.00243">
        <ele>2153.6000976562</ele>
        <time>2017-10-11T10:22:30.000Z</time>
      </trkpt>
      <trkpt lat="46.37181" lon="7.00237">
        <ele>2168.8000488281</ele>
        <time>2017-10-11T10:22:56.000Z</time>
      </trkpt>
      <trkpt lat="46.37198" lon="7.00229">
        <ele>2185.8000488281</ele>
        <time>2017-10-11T10:23:26.000Z</time>
      </trkpt>
      <trkpt lat="46.37214" lon="7.00219">
        <ele>2199</ele>
        <time>2017-10-11T10:23:54.000Z</time>
      </trkpt>
      <trkpt lat="46.37224" lon="7.00202">
        <ele>2196.3999023438</ele>
        <time>2017-10-11T10:24:40.000Z</time>
      </trkpt>
      <trkpt lat="46.37206" lon="7.00199">
        <ele>2199.3999023438</ele>
        <time>2017-10-11T10:25:19.000Z</time>
      </trkpt>
      <trkpt lat="46.37207" lon="7.00203">
        <ele>2199.3999023438</ele>
        <time>2017-10-11T10:27:15.000Z</time>
      </trkpt>
      <trkpt lat="46.37205" lon="7.002">
        <ele>2199.6000976562</ele>
        <time>2017-10-11T10:28:06.000Z</time>
      </trkpt>
      <trkpt lat="46.37206" lon="7.00202">
        <ele>2199.6000976562</ele>
        <time>2017-10-11T10:28:08.000Z</time>
      </trkpt>
      <trkpt lat="46.37208" lon="7.00205">
        <ele>2199.3999023438</ele>
        <time>2017-10-11T10:28:13.000Z</time>
      </trkpt>
      <trkpt lat="46.37209" lon="7.00203">
        <ele>2199.1999511719</ele>
        <time>2017-10-11T10:35:00.000Z</time>
      </trkpt>
      <trkpt lat="46.37214" lon="7.00205">
        <ele>2198.3999023438</ele>
        <time>2017-10-11T10:50:32.000Z</time>
      </trkpt>
      <trkpt lat="46.37212" lon="7.00208">
        <ele>2198.8000488281</ele>
        <time>2017-10-11T10:50:35.000Z</time>
      </trkpt>
      <trkpt lat="46.37217" lon="7.00202">
        <ele>2197.8000488281</ele>
        <time>2017-10-11T10:51:10.000Z</time>
      </trkpt>
      <trkpt lat="46.37226" lon="7.00206">
        <ele>2196.1999511719</ele>
        <time>2017-10-11T10:51:23.000Z</time>
      </trkpt>
      <trkpt lat="46.37215" lon="7.00221">
        <ele>2199</ele>
        <time>2017-10-11T10:51:55.000Z</time>
      </trkpt>
      <trkpt lat="46.37199" lon="7.00232">
        <ele>2184</ele>
        <time>2017-10-11T10:52:13.000Z</time>
      </trkpt>
      <trkpt lat="46.37181" lon="7.0024">
        <ele>2167.6000976562</ele>
        <time>2017-10-11T10:52:29.000Z</time>
      </trkpt>
      <trkpt lat="46.37164" lon="7.00246">
        <ele>2150.3999023438</ele>
        <time>2017-10-11T10:52:43.000Z</time>
      </trkpt>
      <trkpt lat="46.37146" lon="7.00248">
        <ele>2142.6000976562</ele>
        <time>2017-10-11T10:52:58.000Z</time>
      </trkpt>
      <trkpt lat="46.37129" lon="7.00255">
        <ele>2136</ele>
        <time>2017-10-11T10:53:16.000Z</time>
      </trkpt>
      <trkpt lat="46.37112" lon="7.00264">
        <ele>2129.1999511719</ele>
        <time>2017-10-11T10:53:35.000Z</time>
      </trkpt>
      <trkpt lat="46.37094" lon="7.00267">
        <ele>2123.8000488281</ele>
        <time>2017-10-11T10:53:52.000Z</time>
      </trkpt>
      <trkpt lat="46.37075" lon="7.00274">
        <ele>2119.3999023438</ele>
        <time>2017-10-11T10:54:09.000Z</time>
      </trkpt>
      <trkpt lat="46.37057" lon="7.00279">
        <ele>2114.6000976562</ele>
        <time>2017-10-11T10:54:28.000Z</time>
      </trkpt>
      <trkpt lat="46.37045" lon="7.00282">
        <ele>2110.1999511719</ele>
        <time>2017-10-11T10:54:40.000Z</time>
      </trkpt>
      <trkpt lat="46.3703" lon="7.00297">
        <ele>2103</ele>
        <time>2017-10-11T10:55:01.000Z</time>
      </trkpt>
      <trkpt lat="46.37014" lon="7.0031">
        <ele>2099</ele>
        <time>2017-10-11T10:55:22.000Z</time>
      </trkpt>
      <trkpt lat="46.37001" lon="7.00313">
        <ele>2096.6000976562</ele>
        <time>2017-10-11T10:55:35.000Z</time>
      </trkpt>
      <trkpt lat="46.36998" lon="7.00314">
        <ele>2096</ele>
        <time>2017-10-11T10:55:38.000Z</time>
      </trkpt>
      <trkpt lat="46.36993" lon="7.00315">
        <ele>2095.1999511719</ele>
        <time>2017-10-11T10:55:42.000Z</time>
      </trkpt>
      <trkpt lat="46.36985" lon="7.00318">
        <ele>2093.3999023438</ele>
        <time>2017-10-11T10:55:51.000Z</time>
      </trkpt>
      <trkpt lat="46.36984" lon="7.0032">
        <ele>2093</ele>
        <time>2017-10-11T10:55:53.000Z</time>
      </trkpt>
      <trkpt lat="46.36974" lon="7.00326">
        <ele>2092</ele>
        <time>2017-10-11T10:56:19.000Z</time>
      </trkpt>
      <trkpt lat="46.36959" lon="7.00337">
        <ele>2089</ele>
        <time>2017-10-11T10:56:47.000Z</time>
      </trkpt>
      <trkpt lat="46.36957" lon="7.0034">
        <ele>2088.3999023438</ele>
        <time>2017-10-11T10:56:51.000Z</time>
      </trkpt>
      <trkpt lat="46.36955" lon="7.00343">
        <ele>2087.3999023438</ele>
        <time>2017-10-11T10:56:54.000Z</time>
      </trkpt>
      <trkpt lat="46.36947" lon="7.00361">
        <ele>2083</ele>
        <time>2017-10-11T10:57:20.000Z</time>
      </trkpt>
      <trkpt lat="46.36949" lon="7.00375">
        <ele>2079.1999511719</ele>
        <time>2017-10-11T10:57:58.000Z</time>
      </trkpt>
      <trkpt lat="46.36948" lon="7.00376">
        <ele>2079.1999511719</ele>
        <time>2017-10-11T10:58:01.000Z</time>
      </trkpt>
      <trkpt lat="46.36934" lon="7.00391">
        <ele>2084.8000488281</ele>
        <time>2017-10-11T10:58:29.000Z</time>
      </trkpt>
      <trkpt lat="46.36915" lon="7.00394">
        <ele>2091.1999511719</ele>
        <time>2017-10-11T10:58:43.000Z</time>
      </trkpt>
      <trkpt lat="46.369" lon="7.00398">
        <ele>2096.6000976562</ele>
        <time>2017-10-11T10:58:54.000Z</time>
      </trkpt>
      <trkpt lat="46.36882" lon="7.00402">
        <ele>2098.6000976562</ele>
        <time>2017-10-11T10:59:09.000Z</time>
      </trkpt>
      <trkpt lat="46.36869" lon="7.00399">
        <ele>2101</ele>
        <time>2017-10-11T10:59:22.000Z</time>
      </trkpt>
      <trkpt lat="46.36868" lon="7.004">
        <ele>2103</ele>
        <time>2017-10-11T10:59:26.000Z</time>
      </trkpt>
      <trkpt lat="46.36867" lon="7.00401">
        <ele>2104.1999511719</ele>
        <time>2017-10-11T10:59:28.000Z</time>
      </trkpt>
      <trkpt lat="46.36854" lon="7.00402">
        <ele>2110.1999511719</ele>
        <time>2017-10-11T11:00:14.000Z</time>
      </trkpt>
      <trkpt lat="46.36846" lon="7.00415">
        <ele>2112.1999511719</ele>
        <time>2017-10-11T11:01:12.000Z</time>
      </trkpt>
      <trkpt lat="46.36847" lon="7.00423">
        <ele>2105.1999511719</ele>
        <time>2017-10-11T11:01:39.000Z</time>
      </trkpt>
      <trkpt lat="46.36847" lon="7.00424">
        <ele>2104</ele>
        <time>2017-10-11T11:01:41.000Z</time>
      </trkpt>
      <trkpt lat="46.36845" lon="7.0043">
        <ele>2099.3999023438</ele>
        <time>2017-10-11T11:01:50.000Z</time>
      </trkpt>
      <trkpt lat="46.36833" lon="7.00427">
        <ele>2107.1999511719</ele>
        <time>2017-10-11T11:02:07.000Z</time>
      </trkpt>
      <trkpt lat="46.3683" lon="7.00427">
        <ele>2110.8000488281</ele>
        <time>2017-10-11T11:02:10.000Z</time>
      </trkpt>
      <trkpt lat="46.3683" lon="7.00429">
        <ele>2110.6000976562</ele>
        <time>2017-10-11T11:02:14.000Z</time>
      </trkpt>
      <trkpt lat="46.3683" lon="7.00434">
        <ele>2111.1999511719</ele>
        <time>2017-10-11T11:02:19.000Z</time>
      </trkpt>
      <trkpt lat="46.36828" lon="7.0044">
        <ele>2114</ele>
        <time>2017-10-11T11:02:28.000Z</time>
      </trkpt>
      <trkpt lat="46.36824" lon="7.00442">
        <ele>2119.6000976562</ele>
        <time>2017-10-11T11:02:36.000Z</time>
      </trkpt>
      <trkpt lat="46.3682" lon="7.00448">
        <ele>2126.1999511719</ele>
        <time>2017-10-11T11:02:49.000Z</time>
      </trkpt>
      <trkpt lat="46.36822" lon="7.00454">
        <ele>2123.3999023438</ele>
        <time>2017-10-11T11:02:56.000Z</time>
      </trkpt>
      <trkpt lat="46.36822" lon="7.00456">
        <ele>2123.8000488281</ele>
        <time>2017-10-11T11:02:58.000Z</time>
      </trkpt>
      <trkpt lat="46.36812" lon="7.00465">
        <ele>2132.6000976562</ele>
        <time>2017-10-11T11:03:23.000Z</time>
      </trkpt>
      <trkpt lat="46.36809" lon="7.00464">
        <ele>2129.8000488281</ele>
        <time>2017-10-11T11:03:27.000Z</time>
      </trkpt>
      <trkpt lat="46.36806" lon="7.00464">
        <ele>2127.1999511719</ele>
        <time>2017-10-11T11:03:30.000Z</time>
      </trkpt>
      <trkpt lat="46.36789" lon="7.00467">
        <ele>2113.6000976562</ele>
        <time>2017-10-11T11:03:43.000Z</time>
      </trkpt>
      <trkpt lat="46.36778" lon="7.00472">
        <ele>2112.3999023438</ele>
        <time>2017-10-11T11:03:50.000Z</time>
      </trkpt>
      <trkpt lat="46.36775" lon="7.00484">
        <ele>2117.6000976562</ele>
        <time>2017-10-11T11:03:57.000Z</time>
      </trkpt>
      <trkpt lat="46.36773" lon="7.00488">
        <ele>2119.1999511719</ele>
        <time>2017-10-11T11:04:01.000Z</time>
      </trkpt>
      <trkpt lat="46.36772" lon="7.00491">
        <ele>2120.3999023438</ele>
        <time>2017-10-11T11:04:04.000Z</time>
      </trkpt>
      <trkpt lat="46.36773" lon="7.00496">
        <ele>2117.1999511719</ele>
        <time>2017-10-11T11:04:07.000Z</time>
      </trkpt>
      <trkpt lat="46.36772" lon="7.00502">
        <ele>2112.1999511719</ele>
        <time>2017-10-11T11:04:11.000Z</time>
      </trkpt>
      <trkpt lat="46.36772" lon="7.00522">
        <ele>2095.8000488281</ele>
        <time>2017-10-11T11:04:26.000Z</time>
      </trkpt>
      <trkpt lat="46.3677" lon="7.00523">
        <ele>2094.1999511719</ele>
        <time>2017-10-11T11:04:29.000Z</time>
      </trkpt>
      <trkpt lat="46.36769" lon="7.00525">
        <ele>2092.3999023438</ele>
        <time>2017-10-11T11:04:31.000Z</time>
      </trkpt>
      <trkpt lat="46.36768" lon="7.00529">
        <ele>2089.1999511719</ele>
        <time>2017-10-11T11:04:35.000Z</time>
      </trkpt>
      <trkpt lat="46.36767" lon="7.00537">
        <ele>2088.3999023438</ele>
        <time>2017-10-11T11:04:43.000Z</time>
      </trkpt>
      <trkpt lat="46.36761" lon="7.00549">
        <ele>2088.8000488281</ele>
        <time>2017-10-11T11:05:01.000Z</time>
      </trkpt>
      <trkpt lat="46.36751" lon="7.00551">
        <ele>2091.8000488281</ele>
        <time>2017-10-11T11:05:15.000Z</time>
      </trkpt>
      <trkpt lat="46.36733" lon="7.00551">
        <ele>2097.6000976562</ele>
        <time>2017-10-11T11:05:36.000Z</time>
      </trkpt>
      <trkpt lat="46.36732" lon="7.00552">
        <ele>2097.8000488281</ele>
        <time>2017-10-11T11:05:37.000Z</time>
      </trkpt>
      <trkpt lat="46.36728" lon="7.00552">
        <ele>2095.8000488281</ele>
        <time>2017-10-11T11:05:41.000Z</time>
      </trkpt>
      <trkpt lat="46.36721" lon="7.00551">
        <ele>2091</ele>
        <time>2017-10-11T11:05:49.000Z</time>
      </trkpt>
      <trkpt lat="46.36717" lon="7.00552">
        <ele>2088.6000976562</ele>
        <time>2017-10-11T11:05:53.000Z</time>
      </trkpt>
      <trkpt lat="46.3671" lon="7.00562">
        <ele>2080.8000488281</ele>
        <time>2017-10-11T11:06:07.000Z</time>
      </trkpt>
      <trkpt lat="46.36694" lon="7.00574">
        <ele>2064.3999023438</ele>
        <time>2017-10-11T11:06:31.000Z</time>
      </trkpt>
      <trkpt lat="46.36683" lon="7.00583">
        <ele>2052</ele>
        <time>2017-10-11T11:06:43.000Z</time>
      </trkpt>
      <trkpt lat="46.36676" lon="7.00588">
        <ele>2044.1999511719</ele>
        <time>2017-10-11T11:06:56.000Z</time>
      </trkpt>
      <trkpt lat="46.36673" lon="7.00588">
        <ele>2041.5999755859</ele>
        <time>2017-10-11T11:06:59.000Z</time>
      </trkpt>
      <trkpt lat="46.36669" lon="7.00591">
        <ele>2037.5999755859</ele>
        <time>2017-10-11T11:07:03.000Z</time>
      </trkpt>
      <trkpt lat="46.36651" lon="7.00598">
        <ele>2026.8000488281</ele>
        <time>2017-10-11T11:07:19.000Z</time>
      </trkpt>
      <trkpt lat="46.36634" lon="7.00609">
        <ele>2020.1999511719</ele>
        <time>2017-10-11T11:07:36.000Z</time>
      </trkpt>
      <trkpt lat="46.36633" lon="7.0061">
        <ele>2019.8000488281</ele>
        <time>2017-10-11T11:07:37.000Z</time>
      </trkpt>
      <trkpt lat="46.36631" lon="7.00615">
        <ele>2019</ele>
        <time>2017-10-11T11:07:41.000Z</time>
      </trkpt>
      <trkpt lat="46.36624" lon="7.00623">
        <ele>2015.8000488281</ele>
        <time>2017-10-11T11:07:50.000Z</time>
      </trkpt>
      <trkpt lat="46.36622" lon="7.00631">
        <ele>2015</ele>
        <time>2017-10-11T11:07:59.000Z</time>
      </trkpt>
      <trkpt lat="46.36621" lon="7.00632">
        <ele>2014.5999755859</ele>
        <time>2017-10-11T11:08:01.000Z</time>
      </trkpt>
      <trkpt lat="46.36618" lon="7.00639">
        <ele>2012.1999511719</ele>
        <time>2017-10-11T11:08:09.000Z</time>
      </trkpt>
      <trkpt lat="46.36619" lon="7.00653">
        <ele>2010.8000488281</ele>
        <time>2017-10-11T11:08:23.000Z</time>
      </trkpt>
      <trkpt lat="46.36616" lon="7.00671">
        <ele>2006</ele>
        <time>2017-10-11T11:08:45.000Z</time>
      </trkpt>
      <trkpt lat="46.36607" lon="7.00687">
        <ele>1998.1999511719</ele>
        <time>2017-10-11T11:09:09.000Z</time>
      </trkpt>
      <trkpt lat="46.36605" lon="7.00688">
        <ele>1997.1999511719</ele>
        <time>2017-10-11T11:09:12.000Z</time>
      </trkpt>
      <trkpt lat="46.36601" lon="7.0071">
        <ele>1989</ele>
        <time>2017-10-11T11:09:42.000Z</time>
      </trkpt>
      <trkpt lat="46.36604" lon="7.00721">
        <ele>1987.8000488281</ele>
        <time>2017-10-11T11:09:55.000Z</time>
      </trkpt>
      <trkpt lat="46.36607" lon="7.0073">
        <ele>1987.1999511719</ele>
        <time>2017-10-11T11:10:01.000Z</time>
      </trkpt>
      <trkpt lat="46.36619" lon="7.0075">
        <ele>1986.8000488281</ele>
        <time>2017-10-11T11:10:20.000Z</time>
      </trkpt>
      <trkpt lat="46.36625" lon="7.00765">
        <ele>1984.4000244141</ele>
        <time>2017-10-11T11:10:42.000Z</time>
      </trkpt>
      <trkpt lat="46.36623" lon="7.00786">
        <ele>1974.8000488281</ele>
        <time>2017-10-11T11:11:22.000Z</time>
      </trkpt>
      <trkpt lat="46.36632" lon="7.00808">
        <ele>1970.8000488281</ele>
        <time>2017-10-11T11:12:02.000Z</time>
      </trkpt>
      <trkpt lat="46.36631" lon="7.00816">
        <ele>1967.4000244141</ele>
        <time>2017-10-11T11:12:31.000Z</time>
      </trkpt>
      <trkpt lat="46.36638" lon="7.00838">
        <ele>1965</ele>
        <time>2017-10-11T11:12:55.000Z</time>
      </trkpt>
      <trkpt lat="46.36642" lon="7.00862">
        <ele>1960</ele>
        <time>2017-10-11T11:13:13.000Z</time>
      </trkpt>
      <trkpt lat="46.36651" lon="7.00876">
        <ele>1959.4000244141</ele>
        <time>2017-10-11T11:13:30.000Z</time>
      </trkpt>
      <trkpt lat="46.36651" lon="7.00881">
        <ele>1958</ele>
        <time>2017-10-11T11:13:37.000Z</time>
      </trkpt>
      <trkpt lat="46.36663" lon="7.00899">
        <ele>1952.8000488281</ele>
        <time>2017-10-11T11:13:57.000Z</time>
      </trkpt>
      <trkpt lat="46.36664" lon="7.00915">
        <ele>1948.1999511719</ele>
        <time>2017-10-11T11:15:29.000Z</time>
      </trkpt>
      <trkpt lat="46.36661" lon="7.00913">
        <ele>1949</ele>
        <time>2017-10-11T11:15:33.000Z</time>
      </trkpt>
      <trkpt lat="46.36666" lon="7.00916">
        <ele>1947.8000488281</ele>
        <time>2017-10-11T11:16:08.000Z</time>
      </trkpt>
      <trkpt lat="46.3667" lon="7.00929">
        <ele>1944.1999511719</ele>
        <time>2017-10-11T11:16:35.000Z</time>
      </trkpt>
      <trkpt lat="46.36659" lon="7.00941">
        <ele>1943.4000244141</ele>
        <time>2017-10-11T11:17:17.000Z</time>
      </trkpt>
      <trkpt lat="46.36657" lon="7.00955">
        <ele>1941.4000244141</ele>
        <time>2017-10-11T11:17:31.000Z</time>
      </trkpt>
      <trkpt lat="46.36644" lon="7.00968">
        <ele>1938.1999511719</ele>
        <time>2017-10-11T11:18:08.000Z</time>
      </trkpt>
      <trkpt lat="46.36634" lon="7.00989">
        <ele>1930</ele>
        <time>2017-10-11T11:18:36.000Z</time>
      </trkpt>
      <trkpt lat="46.3663" lon="7.00995">
        <ele>1926.5999755859</ele>
        <time>2017-10-11T11:18:43.000Z</time>
      </trkpt>
      <trkpt lat="46.36631" lon="7.01021">
        <ele>1920.1999511719</ele>
        <time>2017-10-11T11:18:58.000Z</time>
      </trkpt>
      <trkpt lat="46.36635" lon="7.01031">
        <ele>1919.4000244141</ele>
        <time>2017-10-11T11:19:05.000Z</time>
      </trkpt>
      <trkpt lat="46.36638" lon="7.01044">
        <ele>1917.5999755859</ele>
        <time>2017-10-11T11:19:16.000Z</time>
      </trkpt>
      <trkpt lat="46.36645" lon="7.01068">
        <ele>1914.8000488281</ele>
        <time>2017-10-11T11:19:33.000Z</time>
      </trkpt>
      <trkpt lat="46.36649" lon="7.01083">
        <ele>1912.1999511719</ele>
        <time>2017-10-11T11:19:48.000Z</time>
      </trkpt>
      <trkpt lat="46.36649" lon="7.01088">
        <ele>1911</ele>
        <time>2017-10-11T11:19:52.000Z</time>
      </trkpt>
      <trkpt lat="46.36651" lon="7.01114">
        <ele>1905.1999511719</ele>
        <time>2017-10-11T11:20:05.000Z</time>
      </trkpt>
      <trkpt lat="46.36652" lon="7.01116">
        <ele>1904.4000244141</ele>
        <time>2017-10-11T11:20:06.000Z</time>
      </trkpt>
      <trkpt lat="46.36655" lon="7.01143">
        <ele>1898.4000244141</ele>
        <time>2017-10-11T11:20:15.000Z</time>
      </trkpt>
      <trkpt lat="46.36651" lon="7.01171">
        <ele>1892.8000488281</ele>
        <time>2017-10-11T11:20:23.000Z</time>
      </trkpt>
      <trkpt lat="46.36639" lon="7.01192">
        <ele>1887.1999511719</ele>
        <time>2017-10-11T11:20:31.000Z</time>
      </trkpt>
      <trkpt lat="46.36631" lon="7.01216">
        <ele>1880.8000488281</ele>
        <time>2017-10-11T11:20:40.000Z</time>
      </trkpt>
      <trkpt lat="46.36628" lon="7.01243">
        <ele>1875.4000244141</ele>
        <time>2017-10-11T11:20:50.000Z</time>
      </trkpt>
      <trkpt lat="46.36632" lon="7.0127">
        <ele>1872</ele>
        <time>2017-10-11T11:21:00.000Z</time>
      </trkpt>
      <trkpt lat="46.36633" lon="7.01298">
        <ele>1867.5999755859</ele>
        <time>2017-10-11T11:21:09.000Z</time>
      </trkpt>
      <trkpt lat="46.3663" lon="7.01324">
        <ele>1863</ele>
        <time>2017-10-11T11:21:18.000Z</time>
      </trkpt>
      <trkpt lat="46.36623" lon="7.01348">
        <ele>1853.5999755859</ele>
        <time>2017-10-11T11:21:28.000Z</time>
      </trkpt>
      <trkpt lat="46.36617" lon="7.01373">
        <ele>1843.8000488281</ele>
        <time>2017-10-11T11:21:37.000Z</time>
      </trkpt>
      <trkpt lat="46.36616" lon="7.01399">
        <ele>1842.8000488281</ele>
        <time>2017-10-11T11:21:45.000Z</time>
      </trkpt>
      <trkpt lat="46.36618" lon="7.01428">
        <ele>1840.5999755859</ele>
        <time>2017-10-11T11:21:54.000Z</time>
      </trkpt>
      <trkpt lat="46.3662" lon="7.01453">
        <ele>1837.5999755859</ele>
        <time>2017-10-11T11:22:02.000Z</time>
      </trkpt>
      <trkpt lat="46.36629" lon="7.01478">
        <ele>1835.5999755859</ele>
        <time>2017-10-11T11:22:11.000Z</time>
      </trkpt>
      <trkpt lat="46.36645" lon="7.01495">
        <ele>1834</ele>
        <time>2017-10-11T11:22:20.000Z</time>
      </trkpt>
      <trkpt lat="46.36653" lon="7.01521">
        <ele>1832.5999755859</ele>
        <time>2017-10-11T11:22:28.000Z</time>
      </trkpt>
      <trkpt lat="46.36648" lon="7.01546">
        <ele>1830.1999511719</ele>
        <time>2017-10-11T11:22:35.000Z</time>
      </trkpt>
      <trkpt lat="46.36638" lon="7.01572">
        <ele>1829</ele>
        <time>2017-10-11T11:22:43.000Z</time>
      </trkpt>
      <trkpt lat="46.36622" lon="7.01587">
        <ele>1828.1999511719</ele>
        <time>2017-10-11T11:22:50.000Z</time>
      </trkpt>
      <trkpt lat="46.36607" lon="7.016">
        <ele>1827.8000488281</ele>
        <time>2017-10-11T11:22:57.000Z</time>
      </trkpt>
      <trkpt lat="46.36605" lon="7.01626">
        <ele>1824.5999755859</ele>
        <time>2017-10-11T11:23:04.000Z</time>
      </trkpt>
      <trkpt lat="46.36613" lon="7.01651">
        <ele>1820.5999755859</ele>
        <time>2017-10-11T11:23:11.000Z</time>
      </trkpt>
      <trkpt lat="46.3662" lon="7.01677">
        <ele>1815.5999755859</ele>
        <time>2017-10-11T11:23:18.000Z</time>
      </trkpt>
      <trkpt lat="46.36626" lon="7.01701">
        <ele>1810.5999755859</ele>
        <time>2017-10-11T11:23:25.000Z</time>
      </trkpt>
      <trkpt lat="46.36618" lon="7.01724">
        <ele>1806.1999511719</ele>
        <time>2017-10-11T11:23:33.000Z</time>
      </trkpt>
      <trkpt lat="46.366" lon="7.01729">
        <ele>1806</ele>
        <time>2017-10-11T11:23:40.000Z</time>
      </trkpt>
      <trkpt lat="46.36583" lon="7.01715">
        <ele>1809.1999511719</ele>
        <time>2017-10-11T11:23:47.000Z</time>
      </trkpt>
      <trkpt lat="46.36569" lon="7.01698">
        <ele>1812.8000488281</ele>
        <time>2017-10-11T11:23:54.000Z</time>
      </trkpt>
      <trkpt lat="46.36554" lon="7.01678">
        <ele>1813.8000488281</ele>
        <time>2017-10-11T11:24:02.000Z</time>
      </trkpt>
      <trkpt lat="46.36541" lon="7.0166">
        <ele>1813.8000488281</ele>
        <time>2017-10-11T11:24:09.000Z</time>
      </trkpt>
      <trkpt lat="46.3653" lon="7.01638">
        <ele>1812.8000488281</ele>
        <time>2017-10-11T11:24:16.000Z</time>
      </trkpt>
      <trkpt lat="46.36521" lon="7.01614">
        <ele>1812.4000244141</ele>
        <time>2017-10-11T11:24:23.000Z</time>
      </trkpt>
      <trkpt lat="46.36513" lon="7.0159">
        <ele>1813.1999511719</ele>
        <time>2017-10-11T11:24:30.000Z</time>
      </trkpt>
      <trkpt lat="46.36505" lon="7.01566">
        <ele>1813.1999511719</ele>
        <time>2017-10-11T11:24:37.000Z</time>
      </trkpt>
      <trkpt lat="46.36497" lon="7.01541">
        <ele>1811.1999511719</ele>
        <time>2017-10-11T11:24:44.000Z</time>
      </trkpt>
      <trkpt lat="46.3649" lon="7.01517">
        <ele>1809.1999511719</ele>
        <time>2017-10-11T11:24:51.000Z</time>
      </trkpt>
      <trkpt lat="46.36483" lon="7.01493">
        <ele>1807.5999755859</ele>
        <time>2017-10-11T11:24:58.000Z</time>
      </trkpt>
      <trkpt lat="46.36479" lon="7.01467">
        <ele>1805.8000488281</ele>
        <time>2017-10-11T11:25:05.000Z</time>
      </trkpt>
      <trkpt lat="46.36482" lon="7.01438">
        <ele>1806.1999511719</ele>
        <time>2017-10-11T11:25:13.000Z</time>
      </trkpt>
      <trkpt lat="46.36483" lon="7.0141">
        <ele>1806</ele>
        <time>2017-10-11T11:25:21.000Z</time>
      </trkpt>
      <trkpt lat="46.36482" lon="7.01383">
        <ele>1805</ele>
        <time>2017-10-11T11:25:30.000Z</time>
      </trkpt>
      <trkpt lat="46.36479" lon="7.01378">
        <ele>1804.4000244141</ele>
        <time>2017-10-11T11:25:31.000Z</time>
      </trkpt>
      <trkpt lat="46.36461" lon="7.01374">
        <ele>1802.1999511719</ele>
        <time>2017-10-11T11:25:39.000Z</time>
      </trkpt>
      <trkpt lat="46.36443" lon="7.01374">
        <ele>1799.1999511719</ele>
        <time>2017-10-11T11:25:46.000Z</time>
      </trkpt>
      <trkpt lat="46.36428" lon="7.01394">
        <ele>1791.5999755859</ele>
        <time>2017-10-11T11:25:54.000Z</time>
      </trkpt>
      <trkpt lat="46.36421" lon="7.0141">
        <ele>1786.8000488281</ele>
        <time>2017-10-11T11:26:00.000Z</time>
      </trkpt>
      <trkpt lat="46.36424" lon="7.01438">
        <ele>1788.1999511719</ele>
        <time>2017-10-11T11:26:09.000Z</time>
      </trkpt>
      <trkpt lat="46.36422" lon="7.01465">
        <ele>1785.4000244141</ele>
        <time>2017-10-11T11:26:17.000Z</time>
      </trkpt>
      <trkpt lat="46.36418" lon="7.01471">
        <ele>1783</ele>
        <time>2017-10-11T11:26:20.000Z</time>
      </trkpt>
      <trkpt lat="46.36402" lon="7.01482">
        <ele>1775.4000244141</ele>
        <time>2017-10-11T11:26:30.000Z</time>
      </trkpt>
      <trkpt lat="46.36384" lon="7.01495">
        <ele>1769.5999755859</ele>
        <time>2017-10-11T11:26:38.000Z</time>
      </trkpt>
      <trkpt lat="46.36368" lon="7.01507">
        <ele>1765.4000244141</ele>
        <time>2017-10-11T11:26:46.000Z</time>
      </trkpt>
      <trkpt lat="46.3635" lon="7.01518">
        <ele>1761</ele>
        <time>2017-10-11T11:26:55.000Z</time>
      </trkpt>
      <trkpt lat="46.36331" lon="7.01523">
        <ele>1756</ele>
        <time>2017-10-11T11:27:04.000Z</time>
      </trkpt>
      <trkpt lat="46.36313" lon="7.01528">
        <ele>1751.4000244141</ele>
        <time>2017-10-11T11:27:12.000Z</time>
      </trkpt>
      <trkpt lat="46.36294" lon="7.01536">
        <ele>1748.4000244141</ele>
        <time>2017-10-11T11:27:21.000Z</time>
      </trkpt>
      <trkpt lat="46.36277" lon="7.01545">
        <ele>1744.5999755859</ele>
        <time>2017-10-11T11:27:28.000Z</time>
      </trkpt>
      <trkpt lat="46.36259" lon="7.0155">
        <ele>1739</ele>
        <time>2017-10-11T11:27:36.000Z</time>
      </trkpt>
      <trkpt lat="46.36241" lon="7.0155">
        <ele>1734</ele>
        <time>2017-10-11T11:27:44.000Z</time>
      </trkpt>
      <trkpt lat="46.36222" lon="7.01547">
        <ele>1729.8000488281</ele>
        <time>2017-10-11T11:27:52.000Z</time>
      </trkpt>
      <trkpt lat="46.36202" lon="7.01546">
        <ele>1725.5999755859</ele>
        <time>2017-10-11T11:28:00.000Z</time>
      </trkpt>
      <trkpt lat="46.36183" lon="7.01547">
        <ele>1720.4000244141</ele>
        <time>2017-10-11T11:28:08.000Z</time>
      </trkpt>
      <trkpt lat="46.36164" lon="7.01548">
        <ele>1715.1999511719</ele>
        <time>2017-10-11T11:28:17.000Z</time>
      </trkpt>
      <trkpt lat="46.36162" lon="7.01547">
        <ele>1714.8000488281</ele>
        <time>2017-10-11T11:28:21.000Z</time>
      </trkpt>
      <trkpt lat="46.36149" lon="7.01561">
        <ele>1708.8000488281</ele>
        <time>2017-10-11T11:29:01.000Z</time>
      </trkpt>
      <trkpt lat="46.36131" lon="7.01567">
        <ele>1703.1999511719</ele>
        <time>2017-10-11T11:29:09.000Z</time>
      </trkpt>
      <trkpt lat="46.36112" lon="7.01569">
        <ele>1697.8000488281</ele>
        <time>2017-10-11T11:29:18.000Z</time>
      </trkpt>
      <trkpt lat="46.36094" lon="7.01573">
        <ele>1692.1999511719</ele>
        <time>2017-10-11T11:29:28.000Z</time>
      </trkpt>
      <trkpt lat="46.36076" lon="7.01569">
        <ele>1688.1999511719</ele>
        <time>2017-10-11T11:29:37.000Z</time>
      </trkpt>
      <trkpt lat="46.36073" lon="7.01564">
        <ele>1688.4000244141</ele>
        <time>2017-10-11T11:29:38.000Z</time>
      </trkpt>
      <trkpt lat="46.36055" lon="7.01551">
        <ele>1686.1999511719</ele>
        <time>2017-10-11T11:29:48.000Z</time>
      </trkpt>
      <trkpt lat="46.36038" lon="7.01545">
        <ele>1683.1999511719</ele>
        <time>2017-10-11T11:29:54.000Z</time>
      </trkpt>
      <trkpt lat="46.36018" lon="7.01537">
        <ele>1679.8000488281</ele>
        <time>2017-10-11T11:30:01.000Z</time>
      </trkpt>
      <trkpt lat="46.36" lon="7.01534">
        <ele>1676</ele>
        <time>2017-10-11T11:30:07.000Z</time>
      </trkpt>
      <trkpt lat="46.3598" lon="7.01535">
        <ele>1671</ele>
        <time>2017-10-11T11:30:15.000Z</time>
      </trkpt>
      <trkpt lat="46.35961" lon="7.01532">
        <ele>1667.5999755859</ele>
        <time>2017-10-11T11:30:23.000Z</time>
      </trkpt>
      <trkpt lat="46.35942" lon="7.01534">
        <ele>1663.4000244141</ele>
        <time>2017-10-11T11:30:31.000Z</time>
      </trkpt>
      <trkpt lat="46.35928" lon="7.01551">
        <ele>1657.4000244141</ele>
        <time>2017-10-11T11:30:39.000Z</time>
      </trkpt>
      <trkpt lat="46.35918" lon="7.01574">
        <ele>1650.5999755859</ele>
        <time>2017-10-11T11:30:47.000Z</time>
      </trkpt>
      <trkpt lat="46.35904" lon="7.0159">
        <ele>1644.4000244141</ele>
        <time>2017-10-11T11:31:01.000Z</time>
      </trkpt>
      <trkpt lat="46.35901" lon="7.01591">
        <ele>1643.4000244141</ele>
        <time>2017-10-11T11:31:04.000Z</time>
      </trkpt>
      <trkpt lat="46.35896" lon="7.01596">
        <ele>1641</ele>
        <time>2017-10-11T11:31:10.000Z</time>
      </trkpt>
      <trkpt lat="46.35892" lon="7.01597">
        <ele>1639.5999755859</ele>
        <time>2017-10-11T11:31:14.000Z</time>
      </trkpt>
      <trkpt lat="46.3589" lon="7.01596">
        <ele>1639</ele>
        <time>2017-10-11T11:31:16.000Z</time>
      </trkpt>
      <trkpt lat="46.35887" lon="7.01596">
        <ele>1638.1999511719</ele>
        <time>2017-10-11T11:31:18.000Z</time>
      </trkpt>
      <trkpt lat="46.35885" lon="7.01595">
        <ele>1637.8000488281</ele>
        <time>2017-10-11T11:31:20.000Z</time>
      </trkpt>
      <trkpt lat="46.35868" lon="7.01592">
        <ele>1633.4000244141</ele>
        <time>2017-10-11T11:31:34.000Z</time>
      </trkpt>
      <trkpt lat="46.35865" lon="7.01594">
        <ele>1632</ele>
        <time>2017-10-11T11:31:38.000Z</time>
      </trkpt>
      <trkpt lat="46.35862" lon="7.01597">
        <ele>1630.8000488281</ele>
        <time>2017-10-11T11:31:41.000Z</time>
      </trkpt>
      <trkpt lat="46.35854" lon="7.01616">
        <ele>1624</ele>
        <time>2017-10-11T11:32:03.000Z</time>
      </trkpt>
      <trkpt lat="46.35852" lon="7.0163">
        <ele>1620.5999755859</ele>
        <time>2017-10-11T11:32:11.000Z</time>
      </trkpt>
      <trkpt lat="46.35845" lon="7.0163">
        <ele>1618.4000244141</ele>
        <time>2017-10-11T11:32:18.000Z</time>
      </trkpt>
      <trkpt lat="46.35837" lon="7.01629">
        <ele>1616.4000244141</ele>
        <time>2017-10-11T11:32:26.000Z</time>
      </trkpt>
      <trkpt lat="46.35833" lon="7.01628">
        <ele>1615.1999511719</ele>
        <time>2017-10-11T11:32:30.000Z</time>
      </trkpt>
      <trkpt lat="46.35831" lon="7.0163">
        <ele>1614</ele>
        <time>2017-10-11T11:32:33.000Z</time>
      </trkpt>
      <trkpt lat="46.35826" lon="7.01633">
        <ele>1612.1999511719</ele>
        <time>2017-10-11T11:32:39.000Z</time>
      </trkpt>
      <trkpt lat="46.35825" lon="7.01634">
        <ele>1611.4000244141</ele>
        <time>2017-10-11T11:32:41.000Z</time>
      </trkpt>
      <trkpt lat="46.35822" lon="7.01636">
        <ele>1610</ele>
        <time>2017-10-11T11:32:44.000Z</time>
      </trkpt>
      <trkpt lat="46.35817" lon="7.01651">
        <ele>1605.4000244141</ele>
        <time>2017-10-11T11:32:51.000Z</time>
      </trkpt>
      <trkpt lat="46.35798" lon="7.01647">
        <ele>1599.4000244141</ele>
        <time>2017-10-11T11:33:01.000Z</time>
      </trkpt>
      <trkpt lat="46.35779" lon="7.01638">
        <ele>1594.1999511719</ele>
        <time>2017-10-11T11:33:09.000Z</time>
      </trkpt>
      <trkpt lat="46.35767" lon="7.01618">
        <ele>1594.4000244141</ele>
        <time>2017-10-11T11:33:16.000Z</time>
      </trkpt>
      <trkpt lat="46.35751" lon="7.01605">
        <ele>1591.4000244141</ele>
        <time>2017-10-11T11:33:23.000Z</time>
      </trkpt>
      <trkpt lat="46.35736" lon="7.01591">
        <ele>1589</ele>
        <time>2017-10-11T11:33:29.000Z</time>
      </trkpt>
      <trkpt lat="46.35721" lon="7.0157">
        <ele>1588.8000488281</ele>
        <time>2017-10-11T11:33:36.000Z</time>
      </trkpt>
      <trkpt lat="46.35707" lon="7.0155">
        <ele>1588.1999511719</ele>
        <time>2017-10-11T11:33:43.000Z</time>
      </trkpt>
      <trkpt lat="46.35691" lon="7.01535">
        <ele>1585.8000488281</ele>
        <time>2017-10-11T11:33:50.000Z</time>
      </trkpt>
      <trkpt lat="46.35673" lon="7.01521">
        <ele>1582.5999755859</ele>
        <time>2017-10-11T11:33:58.000Z</time>
      </trkpt>
      <trkpt lat="46.35657" lon="7.01509">
        <ele>1579.5999755859</ele>
        <time>2017-10-11T11:34:06.000Z</time>
      </trkpt>
      <trkpt lat="46.35638" lon="7.01499">
        <ele>1576.1999511719</ele>
        <time>2017-10-11T11:34:14.000Z</time>
      </trkpt>
      <trkpt lat="46.3562" lon="7.0149">
        <ele>1575</ele>
        <time>2017-10-11T11:34:22.000Z</time>
      </trkpt>
      <trkpt lat="46.35603" lon="7.01476">
        <ele>1576.4000244141</ele>
        <time>2017-10-11T11:34:30.000Z</time>
      </trkpt>
      <trkpt lat="46.35584" lon="7.01475">
        <ele>1572.8000488281</ele>
        <time>2017-10-11T11:34:38.000Z</time>
      </trkpt>
      <trkpt lat="46.3558" lon="7.01478">
        <ele>1571</ele>
        <time>2017-10-11T11:34:39.000Z</time>
      </trkpt>
      <trkpt lat="46.35576" lon="7.01504">
        <ele>1561.8000488281</ele>
        <time>2017-10-11T11:34:51.000Z</time>
      </trkpt>
      <trkpt lat="46.35573" lon="7.0153">
        <ele>1554.4000244141</ele>
        <time>2017-10-11T11:35:03.000Z</time>
      </trkpt>
      <trkpt lat="46.35576" lon="7.01557">
        <ele>1548.4000244141</ele>
        <time>2017-10-11T11:35:14.000Z</time>
      </trkpt>
      <trkpt lat="46.35575" lon="7.01585">
        <ele>1540.4000244141</ele>
        <time>2017-10-11T11:35:27.000Z</time>
      </trkpt>
      <trkpt lat="46.35571" lon="7.01613">
        <ele>1525</ele>
        <time>2017-10-11T11:35:40.000Z</time>
      </trkpt>
      <trkpt lat="46.35572" lon="7.0164">
        <ele>1511.5999755859</ele>
        <time>2017-10-11T11:35:51.000Z</time>
      </trkpt>
      <trkpt lat="46.35567" lon="7.01668">
        <ele>1498.5999755859</ele>
        <time>2017-10-11T11:36:04.000Z</time>
      </trkpt>
      <trkpt lat="46.35561" lon="7.01694">
        <ele>1495</ele>
        <time>2017-10-11T11:36:15.000Z</time>
      </trkpt>
      <trkpt lat="46.35548" lon="7.01712">
        <ele>1494.8000488281</ele>
        <time>2017-10-11T11:36:28.000Z</time>
      </trkpt>
      <trkpt lat="46.35541" lon="7.01737">
        <ele>1490.8000488281</ele>
        <time>2017-10-11T11:36:40.000Z</time>
      </trkpt>
      <trkpt lat="46.35532" lon="7.01762">
        <ele>1485.1999511719</ele>
        <time>2017-10-11T11:36:52.000Z</time>
      </trkpt>
      <trkpt lat="46.3553" lon="7.01787">
        <ele>1479.1999511719</ele>
        <time>2017-10-11T11:37:02.000Z</time>
      </trkpt>
      <trkpt lat="46.35538" lon="7.01811">
        <ele>1471.8000488281</ele>
        <time>2017-10-11T11:37:11.000Z</time>
      </trkpt>
      <trkpt lat="46.35544" lon="7.01839">
        <ele>1463.1999511719</ele>
        <time>2017-10-11T11:37:21.000Z</time>
      </trkpt>
      <trkpt lat="46.35546" lon="7.01865">
        <ele>1455</ele>
        <time>2017-10-11T11:37:30.000Z</time>
      </trkpt>
      <trkpt lat="46.35544" lon="7.01893">
        <ele>1446</ele>
        <time>2017-10-11T11:37:39.000Z</time>
      </trkpt>
      <trkpt lat="46.35544" lon="7.0192">
        <ele>1439.1999511719</ele>
        <time>2017-10-11T11:37:47.000Z</time>
      </trkpt>
      <trkpt lat="46.35549" lon="7.01946">
        <ele>1436.1999511719</ele>
        <time>2017-10-11T11:37:55.000Z</time>
      </trkpt>
      <trkpt lat="46.35544" lon="7.01971">
        <ele>1432.4000244141</ele>
        <time>2017-10-11T11:38:03.000Z</time>
      </trkpt>
      <trkpt lat="46.3553" lon="7.0199">
        <ele>1428.8000488281</ele>
        <time>2017-10-11T11:38:10.000Z</time>
      </trkpt>
      <trkpt lat="46.35512" lon="7.02">
        <ele>1426.8000488281</ele>
        <time>2017-10-11T11:38:17.000Z</time>
      </trkpt>
      <trkpt lat="46.35493" lon="7.01998">
        <ele>1425.5999755859</ele>
        <time>2017-10-11T11:38:24.000Z</time>
      </trkpt>
      <trkpt lat="46.35475" lon="7.01991">
        <ele>1423.8000488281</ele>
        <time>2017-10-11T11:38:31.000Z</time>
      </trkpt>
      <trkpt lat="46.35458" lon="7.0198">
        <ele>1422.1999511719</ele>
        <time>2017-10-11T11:38:38.000Z</time>
      </trkpt>
      <trkpt lat="46.3544" lon="7.01968">
        <ele>1420.5999755859</ele>
        <time>2017-10-11T11:38:45.000Z</time>
      </trkpt>
      <trkpt lat="46.35423" lon="7.01956">
        <ele>1419.4000244141</ele>
        <time>2017-10-11T11:38:52.000Z</time>
      </trkpt>
      <trkpt lat="46.35407" lon="7.01941">
        <ele>1419</ele>
        <time>2017-10-11T11:38:59.000Z</time>
      </trkpt>
      <trkpt lat="46.35391" lon="7.01925">
        <ele>1418.4000244141</ele>
        <time>2017-10-11T11:39:07.000Z</time>
      </trkpt>
      <trkpt lat="46.35376" lon="7.01911">
        <ele>1418</ele>
        <time>2017-10-11T11:39:14.000Z</time>
      </trkpt>
      <trkpt lat="46.3536" lon="7.01895">
        <ele>1418.8000488281</ele>
        <time>2017-10-11T11:39:21.000Z</time>
      </trkpt>
      <trkpt lat="46.35344" lon="7.01881">
        <ele>1419.1999511719</ele>
        <time>2017-10-11T11:39:28.000Z</time>
      </trkpt>
      <trkpt lat="46.35328" lon="7.01868">
        <ele>1419</ele>
        <time>2017-10-11T11:39:35.000Z</time>
      </trkpt>
      <trkpt lat="46.35311" lon="7.01854">
        <ele>1419.1999511719</ele>
        <time>2017-10-11T11:39:42.000Z</time>
      </trkpt>
      <trkpt lat="46.35295" lon="7.01839">
        <ele>1419.4000244141</ele>
        <time>2017-10-11T11:39:49.000Z</time>
      </trkpt>
      <trkpt lat="46.35278" lon="7.01831">
        <ele>1417.4000244141</ele>
        <time>2017-10-11T11:39:56.000Z</time>
      </trkpt>
      <trkpt lat="46.35261" lon="7.01821">
        <ele>1415.1999511719</ele>
        <time>2017-10-11T11:40:03.000Z</time>
      </trkpt>
      <trkpt lat="46.35242" lon="7.01814">
        <ele>1411.1999511719</ele>
        <time>2017-10-11T11:40:11.000Z</time>
      </trkpt>
      <trkpt lat="46.35222" lon="7.01812">
        <ele>1406</ele>
        <time>2017-10-11T11:40:19.000Z</time>
      </trkpt>
      <trkpt lat="46.35203" lon="7.01811">
        <ele>1402.1999511719</ele>
        <time>2017-10-11T11:40:26.000Z</time>
      </trkpt>
      <trkpt lat="46.35185" lon="7.01809">
        <ele>1399</ele>
        <time>2017-10-11T11:40:33.000Z</time>
      </trkpt>
      <trkpt lat="46.35165" lon="7.01805">
        <ele>1395.4000244141</ele>
        <time>2017-10-11T11:40:41.000Z</time>
      </trkpt>
      <trkpt lat="46.35146" lon="7.01805">
        <ele>1392.1999511719</ele>
        <time>2017-10-11T11:40:48.000Z</time>
      </trkpt>
      <trkpt lat="46.35127" lon="7.01806">
        <ele>1391.8000488281</ele>
        <time>2017-10-11T11:40:55.000Z</time>
      </trkpt>
      <trkpt lat="46.35109" lon="7.01806">
        <ele>1389.4000244141</ele>
        <time>2017-10-11T11:41:02.000Z</time>
      </trkpt>
      <trkpt lat="46.35089" lon="7.01804">
        <ele>1386.8000488281</ele>
        <time>2017-10-11T11:41:10.000Z</time>
      </trkpt>
      <trkpt lat="46.35071" lon="7.01809">
        <ele>1383.1999511719</ele>
        <time>2017-10-11T11:41:17.000Z</time>
      </trkpt>
      <trkpt lat="46.35051" lon="7.0181">
        <ele>1380.1999511719</ele>
        <time>2017-10-11T11:41:26.000Z</time>
      </trkpt>
      <trkpt lat="46.35032" lon="7.0181">
        <ele>1376.1999511719</ele>
        <time>2017-10-11T11:41:34.000Z</time>
      </trkpt>
      <trkpt lat="46.35013" lon="7.01806">
        <ele>1372.8000488281</ele>
        <time>2017-10-11T11:41:42.000Z</time>
      </trkpt>
      <trkpt lat="46.34994" lon="7.018">
        <ele>1370.8000488281</ele>
        <time>2017-10-11T11:41:49.000Z</time>
      </trkpt>
      <trkpt lat="46.34976" lon="7.01792">
        <ele>1369.5999755859</ele>
        <time>2017-10-11T11:41:56.000Z</time>
      </trkpt>
      <trkpt lat="46.34958" lon="7.01779">
        <ele>1369</ele>
        <time>2017-10-11T11:42:03.000Z</time>
      </trkpt>
      <trkpt lat="46.34942" lon="7.01769">
        <ele>1368.4000244141</ele>
        <time>2017-10-11T11:42:10.000Z</time>
      </trkpt>
      <trkpt lat="46.34923" lon="7.0176">
        <ele>1366.1999511719</ele>
        <time>2017-10-11T11:42:18.000Z</time>
      </trkpt>
      <trkpt lat="46.34904" lon="7.01759">
        <ele>1362.5999755859</ele>
        <time>2017-10-11T11:42:26.000Z</time>
      </trkpt>
      <trkpt lat="46.34886" lon="7.01758">
        <ele>1359.5999755859</ele>
        <time>2017-10-11T11:42:34.000Z</time>
      </trkpt>
      <trkpt lat="46.34867" lon="7.01756">
        <ele>1356.4000244141</ele>
        <time>2017-10-11T11:42:43.000Z</time>
      </trkpt>
      <trkpt lat="46.34849" lon="7.01757">
        <ele>1352.8000488281</ele>
        <time>2017-10-11T11:42:52.000Z</time>
      </trkpt>
      <trkpt lat="46.3483" lon="7.01753">
        <ele>1350</ele>
        <time>2017-10-11T11:43:02.000Z</time>
      </trkpt>
      <trkpt lat="46.34813" lon="7.01744">
        <ele>1349.1999511719</ele>
        <time>2017-10-11T11:43:10.000Z</time>
      </trkpt>
      <trkpt lat="46.34795" lon="7.01733">
        <ele>1346.4000244141</ele>
        <time>2017-10-11T11:43:19.000Z</time>
      </trkpt>
      <trkpt lat="46.34777" lon="7.0172">
        <ele>1343.5999755859</ele>
        <time>2017-10-11T11:43:28.000Z</time>
      </trkpt>
      <trkpt lat="46.34774" lon="7.01723">
        <ele>1342.4000244141</ele>
        <time>2017-10-11T11:43:30.000Z</time>
      </trkpt>
      <trkpt lat="46.34774" lon="7.01729">
        <ele>1341.4000244141</ele>
        <time>2017-10-11T11:43:32.000Z</time>
      </trkpt>
      <trkpt lat="46.34782" lon="7.01752">
        <ele>1339</ele>
        <time>2017-10-11T11:43:41.000Z</time>
      </trkpt>
      <trkpt lat="46.34782" lon="7.01754">
        <ele>1338.5999755859</ele>
        <time>2017-10-11T11:43:43.000Z</time>
      </trkpt>
      <trkpt lat="46.34785" lon="7.01759">
        <ele>1338.1999511719</ele>
        <time>2017-10-11T11:43:47.000Z</time>
      </trkpt>
      <trkpt lat="46.34791" lon="7.01772">
        <ele>1336.8000488281</ele>
        <time>2017-10-11T11:43:57.000Z</time>
      </trkpt>
      <trkpt lat="46.34788" lon="7.0178">
        <ele>1334.1999511719</ele>
        <time>2017-10-11T11:44:00.000Z</time>
      </trkpt>
      <trkpt lat="46.34769" lon="7.01789">
        <ele>1327.8000488281</ele>
        <time>2017-10-11T11:44:07.000Z</time>
      </trkpt>
      <trkpt lat="46.34752" lon="7.01791">
        <ele>1324.8000488281</ele>
        <time>2017-10-11T11:44:14.000Z</time>
      </trkpt>
      <trkpt lat="46.3474" lon="7.01778">
        <ele>1324.5999755859</ele>
        <time>2017-10-11T11:44:20.000Z</time>
      </trkpt>
      <trkpt lat="46.34722" lon="7.01787">
        <ele>1321</ele>
        <time>2017-10-11T11:44:27.000Z</time>
      </trkpt>
      <trkpt lat="46.34704" lon="7.01779">
        <ele>1319.5999755859</ele>
        <time>2017-10-11T11:44:34.000Z</time>
      </trkpt>
      <trkpt lat="46.34688" lon="7.01763">
        <ele>1319.5999755859</ele>
        <time>2017-10-11T11:44:41.000Z</time>
      </trkpt>
      <trkpt lat="46.34673" lon="7.01746">
        <ele>1320</ele>
        <time>2017-10-11T11:44:48.000Z</time>
      </trkpt>
      <trkpt lat="46.34657" lon="7.01728">
        <ele>1319.1999511719</ele>
        <time>2017-10-11T11:44:56.000Z</time>
      </trkpt>
      <trkpt lat="46.34642" lon="7.01712">
        <ele>1318.5999755859</ele>
        <time>2017-10-11T11:45:03.000Z</time>
      </trkpt>
      <trkpt lat="46.34628" lon="7.01693">
        <ele>1318.1999511719</ele>
        <time>2017-10-11T11:45:11.000Z</time>
      </trkpt>
      <trkpt lat="46.34614" lon="7.01674">
        <ele>1318</ele>
        <time>2017-10-11T11:45:18.000Z</time>
      </trkpt>
      <trkpt lat="46.34598" lon="7.01656">
        <ele>1317.1999511719</ele>
        <time>2017-10-11T11:45:25.000Z</time>
      </trkpt>
      <trkpt lat="46.34584" lon="7.0164">
        <ele>1315.5999755859</ele>
        <time>2017-10-11T11:45:31.000Z</time>
      </trkpt>
      <trkpt lat="46.34575" lon="7.01616">
        <ele>1314.8000488281</ele>
        <time>2017-10-11T11:45:39.000Z</time>
      </trkpt>
      <trkpt lat="46.34556" lon="7.01603">
        <ele>1312.8000488281</ele>
        <time>2017-10-11T11:45:46.000Z</time>
      </trkpt>
      <trkpt lat="46.3454" lon="7.01585">
        <ele>1311.1999511719</ele>
        <time>2017-10-11T11:45:53.000Z</time>
      </trkpt>
      <trkpt lat="46.34525" lon="7.01566">
        <ele>1310.1999511719</ele>
        <time>2017-10-11T11:46:00.000Z</time>
      </trkpt>
      <trkpt lat="46.34511" lon="7.01549">
        <ele>1309.1999511719</ele>
        <time>2017-10-11T11:46:07.000Z</time>
      </trkpt>
      <trkpt lat="46.34498" lon="7.01529">
        <ele>1308.5999755859</ele>
        <time>2017-10-11T11:46:14.000Z</time>
      </trkpt>
      <trkpt lat="46.34485" lon="7.0151">
        <ele>1307.8000488281</ele>
        <time>2017-10-11T11:46:21.000Z</time>
      </trkpt>
      <trkpt lat="46.34471" lon="7.0149">
        <ele>1306.1999511719</ele>
        <time>2017-10-11T11:46:28.000Z</time>
      </trkpt>
      <trkpt lat="46.34458" lon="7.01471">
        <ele>1305</ele>
        <time>2017-10-11T11:46:35.000Z</time>
      </trkpt>
      <trkpt lat="46.34446" lon="7.0145">
        <ele>1304</ele>
        <time>2017-10-11T11:46:42.000Z</time>
      </trkpt>
      <trkpt lat="46.34434" lon="7.01429">
        <ele>1302.8000488281</ele>
        <time>2017-10-11T11:46:49.000Z</time>
      </trkpt>
      <trkpt lat="46.34423" lon="7.01407">
        <ele>1301.8000488281</ele>
        <time>2017-10-11T11:46:56.000Z</time>
      </trkpt>
      <trkpt lat="46.34407" lon="7.0139">
        <ele>1299.1999511719</ele>
        <time>2017-10-11T11:47:03.000Z</time>
      </trkpt>
      <trkpt lat="46.3439" lon="7.01375">
        <ele>1295.8000488281</ele>
        <time>2017-10-11T11:47:10.000Z</time>
      </trkpt>
      <trkpt lat="46.34375" lon="7.01357">
        <ele>1293</ele>
        <time>2017-10-11T11:47:17.000Z</time>
      </trkpt>
      <trkpt lat="46.34362" lon="7.01334">
        <ele>1290.8000488281</ele>
        <time>2017-10-11T11:47:26.000Z</time>
      </trkpt>
      <trkpt lat="46.3435" lon="7.01315">
        <ele>1288.5999755859</ele>
        <time>2017-10-11T11:47:34.000Z</time>
      </trkpt>
      <trkpt lat="46.3434" lon="7.0129">
        <ele>1287.5999755859</ele>
        <time>2017-10-11T11:47:42.000Z</time>
      </trkpt>
      <trkpt lat="46.34335" lon="7.01275">
        <ele>1287</ele>
        <time>2017-10-11T11:47:47.000Z</time>
      </trkpt>
      <trkpt lat="46.34332" lon="7.01268">
        <ele>1286.8000488281</ele>
        <time>2017-10-11T11:47:50.000Z</time>
      </trkpt>
      <trkpt lat="46.34312" lon="7.01258">
        <ele>1283.1999511719</ele>
        <time>2017-10-11T11:47:58.000Z</time>
      </trkpt>
      <trkpt lat="46.34299" lon="7.01241">
        <ele>1281.8000488281</ele>
        <time>2017-10-11T11:48:05.000Z</time>
      </trkpt>
      <trkpt lat="46.34289" lon="7.01218">
        <ele>1281.1999511719</ele>
        <time>2017-10-11T11:48:12.000Z</time>
      </trkpt>
      <trkpt lat="46.34276" lon="7.01197">
        <ele>1281.1999511719</ele>
        <time>2017-10-11T11:48:20.000Z</time>
      </trkpt>
      <trkpt lat="46.34264" lon="7.01176">
        <ele>1281.4000244141</ele>
        <time>2017-10-11T11:48:34.000Z</time>
      </trkpt>
      <trkpt lat="46.3426" lon="7.01151">
        <ele>1284.5999755859</ele>
        <time>2017-10-11T11:48:48.000Z</time>
      </trkpt>
      <trkpt lat="46.3427" lon="7.01137">
        <ele>1289.5999755859</ele>
        <time>2017-10-11T11:49:02.000Z</time>
      </trkpt>
      <trkpt lat="46.34269" lon="7.01137">
        <ele>1289.4000244141</ele>
        <time>2017-10-11T11:49:04.000Z</time>
      </trkpt>
      <trkpt lat="46.34268" lon="7.01139">
        <ele>1288.8000488281</ele>
        <time>2017-10-11T11:49:05.000Z</time>
      </trkpt>
      <trkpt lat="46.3425" lon="7.01153">
        <ele>1281.5999755859</ele>
        <time>2017-10-11T12:05:06.000Z</time>
      </trkpt>
      <trkpt lat="46.34247" lon="7.01147">
        <ele>1281.4000244141</ele>
        <time>2017-10-11T12:05:14.000Z</time>
      </trkpt>
      <trkpt lat="46.34251" lon="7.01153">
        <ele>1281.5999755859</ele>
        <time>2017-10-11T12:05:18.000Z</time>
      </trkpt>
      <trkpt lat="46.34252" lon="7.01165">
        <ele>1279.8000488281</ele>
        <time>2017-10-11T12:05:31.000Z</time>
      </trkpt>
      <trkpt lat="46.34246" lon="7.01176">
        <ele>1276.5999755859</ele>
        <time>2017-10-11T12:05:39.000Z</time>
      </trkpt>
      <trkpt lat="46.34229" lon="7.01171">
        <ele>1274</ele>
        <time>2017-10-11T12:05:53.000Z</time>
      </trkpt>
      <trkpt lat="46.34214" lon="7.01155">
        <ele>1272.5999755859</ele>
        <time>2017-10-11T12:06:05.000Z</time>
      </trkpt>
      <trkpt lat="46.34198" lon="7.01145">
        <ele>1270.5999755859</ele>
        <time>2017-10-11T12:06:18.000Z</time>
      </trkpt>
      <trkpt lat="46.3418" lon="7.01132">
        <ele>1268.8000488281</ele>
        <time>2017-10-11T12:06:31.000Z</time>
      </trkpt>
      <trkpt lat="46.34165" lon="7.01116">
        <ele>1267.1999511719</ele>
        <time>2017-10-11T12:06:43.000Z</time>
      </trkpt>
      <trkpt lat="46.34153" lon="7.01096">
        <ele>1266.5999755859</ele>
        <time>2017-10-11T12:06:56.000Z</time>
      </trkpt>
      <trkpt lat="46.34138" lon="7.01078">
        <ele>1265.4000244141</ele>
        <time>2017-10-11T12:07:10.000Z</time>
      </trkpt>
      <trkpt lat="46.34122" lon="7.01068">
        <ele>1263.4000244141</ele>
        <time>2017-10-11T12:07:22.000Z</time>
      </trkpt>
      <trkpt lat="46.3411" lon="7.01049">
        <ele>1262.4000244141</ele>
        <time>2017-10-11T12:07:34.000Z</time>
      </trkpt>
      <trkpt lat="46.34106" lon="7.01024">
        <ele>1264.5999755859</ele>
        <time>2017-10-11T12:07:45.000Z</time>
      </trkpt>
      <trkpt lat="46.34098" lon="7.01002">
        <ele>1266</ele>
        <time>2017-10-11T12:07:58.000Z</time>
      </trkpt>
      <trkpt lat="46.34085" lon="7.00981">
        <ele>1266.4000244141</ele>
        <time>2017-10-11T12:08:12.000Z</time>
      </trkpt>
      <trkpt lat="46.34074" lon="7.0096">
        <ele>1267</ele>
        <time>2017-10-11T12:08:25.000Z</time>
      </trkpt>
      <trkpt lat="46.34063" lon="7.00939">
        <ele>1267.8000488281</ele>
        <time>2017-10-11T12:08:38.000Z</time>
      </trkpt>
      <trkpt lat="46.3406" lon="7.00935">
        <ele>1267.8000488281</ele>
        <time>2017-10-11T12:08:42.000Z</time>
      </trkpt>
      <trkpt lat="46.34055" lon="7.00935">
        <ele>1267</ele>
        <time>2017-10-11T12:08:45.000Z</time>
      </trkpt>
      <trkpt lat="46.34044" lon="7.00913">
        <ele>1268.8000488281</ele>
        <time>2017-10-11T12:08:58.000Z</time>
      </trkpt>
      <trkpt lat="46.34035" lon="7.00892">
        <ele>1268.5999755859</ele>
        <time>2017-10-11T12:09:11.000Z</time>
      </trkpt>
      <trkpt lat="46.34022" lon="7.00871">
        <ele>1267.1999511719</ele>
        <time>2017-10-11T12:09:25.000Z</time>
      </trkpt>
      <trkpt lat="46.34013" lon="7.00846">
        <ele>1268.4000244141</ele>
        <time>2017-10-11T12:09:38.000Z</time>
      </trkpt>
      <trkpt lat="46.34005" lon="7.00821">
        <ele>1270.1999511719</ele>
        <time>2017-10-11T12:09:52.000Z</time>
      </trkpt>
      <trkpt lat="46.33993" lon="7.008">
        <ele>1268.8000488281</ele>
        <time>2017-10-11T12:10:05.000Z</time>
      </trkpt>
      <trkpt lat="46.33985" lon="7.00777">
        <ele>1268.8000488281</ele>
        <time>2017-10-11T12:10:18.000Z</time>
      </trkpt>
      <trkpt lat="46.33975" lon="7.00754">
        <ele>1268.8000488281</ele>
        <time>2017-10-11T12:10:31.000Z</time>
      </trkpt>
      <trkpt lat="46.33973" lon="7.0075">
        <ele>1268.8000488281</ele>
        <time>2017-10-11T12:10:34.000Z</time>
      </trkpt>
      <trkpt lat="46.33961" lon="7.0073">
        <ele>1268</ele>
        <time>2017-10-11T12:10:46.000Z</time>
      </trkpt>
      <trkpt lat="46.33949" lon="7.0071">
        <ele>1267.8000488281</ele>
        <time>2017-10-11T12:10:58.000Z</time>
      </trkpt>
      <trkpt lat="46.33936" lon="7.00688">
        <ele>1267.8000488281</ele>
        <time>2017-10-11T12:11:12.000Z</time>
      </trkpt>
      <trkpt lat="46.33924" lon="7.00666">
        <ele>1268</ele>
        <time>2017-10-11T12:11:25.000Z</time>
      </trkpt>
      <trkpt lat="46.33918" lon="7.00654">
        <ele>1268</ele>
        <time>2017-10-11T12:11:33.000Z</time>
      </trkpt>
      <trkpt lat="46.33918" lon="7.00653">
        <ele>1268.1999511719</ele>
        <time>2017-10-11T12:11:35.000Z</time>
      </trkpt>
      <trkpt lat="46.33919" lon="7.00652">
        <ele>1268.1999511719</ele>
        <time>2017-10-11T12:11:37.000Z</time>
      </trkpt>
      <trkpt lat="46.33907" lon="7.00632">
        <ele>1266.8000488281</ele>
        <time>2017-10-11T12:11:51.000Z</time>
      </trkpt>
      <trkpt lat="46.33894" lon="7.00613">
        <ele>1265</ele>
        <time>2017-10-11T12:12:06.000Z</time>
      </trkpt>
      <trkpt lat="46.33891" lon="7.00609">
        <ele>1264.5999755859</ele>
        <time>2017-10-11T12:12:09.000Z</time>
      </trkpt>
    </trkseg>
  </trk>
</gpx>